     2.11           OBSERVATION DATA    G (GPS)             RINEX VERSION / TYPE
teqc 2010Oct21 OPUS Account 20111025 19:10:25UTC            PGM / RUN BY / DATE
3287                                                        MARKER NAME
1137                                                        MARKER NUMBER
CSMIDDLETON NGS                                             OBSERVER / AGENCY
0220284361 TRIMBLE 5700 NP 1.22 / SP 1.22                   REC # / TYPE / VERS
12234991 TRM41249.00 NONE                                   ANT # / TYPE
  -739013.9320 -5480265.1859  3167894.7265                  APPROX POSITION XYZ
        2.0000        0.0000        0.0000                  ANTENNA: DELTA H/E/N
     1     1                                                WAVELENGTH FACT L1/2
     5    L1    L2    C1    P1    P2                        # / TYPES OF OBSERV
    15                                                      LEAP SECONDS
  2011     7    27    15    44    0.0000000     GPS         TIME OF FIRST OBS
                                                            END OF HEADER
 11  7 27 15 44  0.0000000  0  1G16
    -12265.65258    -10982.53957  20192704.9304                   20192701.6484
 11  7 27 15 44 30.0000000  0  8G03G06G13G16G20G23G31G32
   -202195.73447   -142129.50345  22466541.6414                   22466540.2734
   -155647.38347   -110805.35944  22709150.5704                   22709149.4884
   -201577.93447   -142213.61644  22618631.4614                   22618628.7234
    -30266.48448    -25009.17346  20189279.8134                   20189276.1294
     26081.30548     13395.52946  21334100.6884                   21334098.1454
   -156422.88348   -111275.99246  20795654.9224                   20795649.6094
     57632.53946     35315.90244  24313822.6414                   24313820.5634
     68686.27348     43128.65645  21897412.5944                   21897410.4734
 11  7 27 15 45  0.0000000  0  8G03G06G13G16G20G23G31G32
   -321007.14847   -234709.80445  22443932.4304                   22443931.1994
   -247461.29747   -182348.65544  22691678.9614                   22691677.4144
   -321169.03547   -235401.46944  22595873.6564                   22595871.4144
    -48080.06648    -38889.90747  20185889.9774                   20185886.6174
     41217.16848     25189.66846  21336980.9224                   21336977.9654
   -249113.94148   -183502.78246  20778016.3674                   20778011.1054
     91000.30546     61316.71244  24320171.8834                   24320171.1564
    108499.21948     74151.66645  21904988.9844                   21904986.9654
 11  7 27 15 45 30.0000000  0  8G03G06G13G16G20G23G31G32
   -439768.90647   -327251.44245  22421333.0704                   22421331.6374
   -339121.50047   -253772.20344  22674237.3914                   22674235.4804
   -440857.59847   -328665.24344  22573097.9774                   22573095.4844
    -65470.44148    -52440.85747  20182580.7584                   20182577.0704
     56664.91048     37226.81546  21339920.4454                   21339917.6214
   -341700.18048   -255647.91046  20760397.7584                   20760392.6564
     32060.17246     81120.91654  24326482.1094                   24326481.0124
    148484.75048    105309.18545  21912597.4064                   21912595.9224
 11  7 27 15 46  0.0000000  0  8G03G06G13G16G20G23G31G32
   -558438.84847   -419721.50045  22398750.9844                   22398749.4804
   -430586.84047   -325043.89344  22656831.6174                   22656829.8404
   -560603.91847   -421974.01144  22550310.6804                   22550308.6564
    -82400.53548    -65633.15847  20179359.0004                   20179355.6724
     72460.98448     49535.42246  21342926.4144                   21342923.2424
   -434141.30948   -327679.96746  20742806.8444                   20742801.6454
     65046.24646    106824.30444  24332759.8524                   24332758.1764
    188678.52348    136628.96445  21920246.6094                   21920244.6454
 11  7 27 15 46 30.0000000  0  8G03G06G13G16G20G23G31G32
   -676993.53947   -512101.78345  22376190.8204                   22376189.0394
   -521834.21947   -396145.73745  22639467.5084                   22639466.1334
   -680385.43747   -515310.21444  22527517.0474                   22527515.0594
    -98851.53948    -78452.12847  20176228.6564                   20176224.9344
     88623.64148     62129.66046  21346002.0784                   21345999.1564
   -526414.87548   -399581.44346  20725247.4694                   20725242.4924
     97881.21146    132409.90244  24339007.4924                   24339006.5514
    229098.93048    168125.33845  21927938.1254                   21927936.2934
 11  7 27 15 47  0.0000000  0  8G03G06G13G16G20G23G31G32
   -795416.64847   -604379.51145  22353655.3204                   22353653.7624
   -612847.25047   -467064.97744  22622148.5554                   22622147.0554
   -800186.77747   -608661.89344  22504719.4224                   22504717.0904
   -114810.77048    -90887.90347  20173191.5164                   20173188.0704
    105164.05148     75018.24746  21349149.7814                   21349146.8244
   -618504.85548   -471339.88046  20707723.6724                   20707718.5394
    130578.41846    157888.17344  24345229.6954                   24345228.2624
    269756.82048    199806.75545  21935674.7664                   21935673.3164
 11  7 27 15 47 30.0000000  0  8G03G06G13G16G20G23G31G32
   -913699.07847   -696547.61745  22331147.1094                   22331145.5164
   -703617.64847   -537795.11244  22604875.5864                   22604874.4574
   -920001.17647   -702023.73144  22481919.9534                   22481916.8714
   -130274.81648   -102937.81447  20170248.9454                   20170244.9454
    122085.30948     88203.61746  21352369.7424                   21352366.8674
   -710403.48448   -542949.19846  20690235.6724                   20690230.6994
    163143.40646    183263.41844  24351425.9144                   24351424.9064
    310654.88348    231675.34645  21943457.4534                   21943455.8674
 11  7 27 15 48  0.0000000  0  8G03G06G13G16G20G23G31G32
  -1031829.21547   -788597.07045  22308667.6954                   22308665.8914
   -794134.30147   -608327.52944  22587650.5164                   22587649.6914
  -1039818.01647   -795387.45445  22459119.2344                   22459117.0044
   -145236.36748   -114596.18246  20167401.8054                   20167398.1214
    139393.66448    101690.60046  21355663.5394                   21355660.9574
   -802100.03148   -614401.05446  20672786.5554                   20672781.4884
    195584.87146    208542.39044  24357600.4614                   24357598.1024
    351799.65647    263736.16645  21951287.1804                   21951285.9184
 11  7 27 15 48 30.0000000  0  8G03G06G13G16G20G23G31G32
  -1149801.82447   -880523.74445  22286217.9774                   22286216.2584
   -884392.84446   -678658.86545  22570475.1174                   22570473.9844
  -1159633.85947   -888750.45744  22436318.9614                   22436316.2894
   -159695.30148   -125862.89047  20164650.5004                   20164646.8054
    157088.27048    115478.57546  21359030.6254                   21359028.0474
   -893590.60948   -685692.40546  20655376.5164                   20655371.7624
    227904.39146    233726.36944  24363750.4924                   24363748.1954
    393190.07048    295988.39345  21959163.7034                   21959162.6294
 11  7 27 15 49  0.0000000  0  8G03G06G13G16G20G23G31G32
  -1267615.46147   -972326.56845  22263799.0474                   22263797.1604
   -974392.05147   -748788.09645  22553348.5784                   22553347.5354
  -1279448.63747   -982112.59744  22413519.3054                   22413516.1294
   -173654.80148   -136740.43447  20161993.7424                   20161990.5864
    175165.16048    129564.43046  21362470.6174                   21362468.0554
   -984874.56248   -756822.76246  20638005.7034                   20638000.7734
    260100.41446    258814.10744  24369876.9844                   24369875.4494
    434821.87548    328428.71645  21967085.9694                   21967084.3364
 11  7 27 15 49 30.0000000  0  8G03G06G13G16G20G23G31G32
  -1385263.14547  -1064000.05245  22241411.1884                   22241409.7544
  -1064125.65247   -818710.37445  22536273.2344                   22536271.4304
  -1399256.72747  -1075469.52744  22390720.2814                   22390717.1334
   -187112.34048   -147226.83647  20159432.8594                   20159429.3794
    193625.64847    143949.18146  21365983.1254                   21365981.0204
  -1075946.05948   -827787.55946  20620675.1414                   20620670.3634
    292176.59446    283808.45543  24375980.8674                   24375979.3444
    476696.37548    361058.14145  21975054.2974                   21975052.6024
 11  7 27 15 50  0.0000000  0  8G03G06G13G16G20G23G31G32
  -1502738.37147  -1155539.17945  22219056.1024                   22219054.9384
  -1153587.40247   -888420.79745  22519248.7664                   22519247.3014
  -1519052.90247  -1168817.16844  22367924.2114                   22367921.1804
   -200066.23448   -157320.79147  20156968.0314                   20156964.4844
    212470.84047    158633.71446  21369569.7034                   21369566.7974
  -1166799.23448   -898582.24046  20603386.5394                   20603381.6134
    324136.44146    308712.13843  24382062.6024                   24382061.1134
    518814.41848    393877.35445  21983069.3674                   21983067.5234
 11  7 27 15 50 30.0000000  0  8G03G06G13G16G20G23G31G32
  -1620045.31647  -1246947.16345  22196733.4304                   22196732.3014
  -1242782.31646   -957923.31545  22502275.7974                   22502274.9534
  -1638842.97347  -1262160.05845  22345128.3444                   22345125.5514
   -212525.86348   -167029.60446  20154596.8364                   20154593.5594
    231690.83647    173610.30546  21373227.1414                   21373224.4184
  -1257439.37548   -969210.93146  20586138.3594                   20586133.2274
                                  24388121.5314                   24388119.5594
    561166.02748    426878.55445  21991128.7814                   21991126.9494
 11  7 27 15 51  0.0000000  0  8G03G06G13G16G20G23G31G32
  -1737175.80147  -1338217.66345  22174444.3364                   22174443.1604
  -1331703.03547  -1027212.16145  22485354.6644                   22485353.5984
  -1758620.37547  -1355493.08245  22322335.3984                   22322332.6914
   -224488.14548   -176350.86446  20152320.6884                   20152317.1524
    251287.87547    188880.67846  21376955.9694                   21376953.5864
  -1347860.00848  -1039668.55846  20568931.8984                   20568926.8244
    387686.33246    358231.72343  24394156.4144                   24394155.2464
    603753.22348    460063.35045  21999232.6724                   21999231.1294
 11  7 27 15 51 30.0000000  0  8G03G06G13G16G20G23G31G32
  -1854127.35547  -1429348.73645  22152189.3754                   22152188.2424
  -1420347.38347  -1096285.65645  22468486.2194                   22468484.9494
  -1878383.69947  -1448815.13545  22299545.5314                   22299542.9064
   -235954.82048   -185285.94946  20150138.6884                   20150135.2154
    271259.15247    204442.68846  21380756.8054                   21380753.7584
  -1438059.05148  -1109953.53346  20551767.5164                   20551762.6684
    419283.70346    382852.96943  24400169.3834                   24400168.5394
    646573.03548    493429.38945  22007380.8914                   22007379.3674
 11  7 27 15 52  0.0000000  0  8G03G06G13G16G20G23G31G32
   -395468.95747   -292731.77945  22429762.4384                   22429761.2854
     66714.22747     62463.66845  22751464.4694                   22751463.4024
   -422703.18747   -314518.61545  22576552.1644                   22576549.4264
   1328496.41047   1033766.95546  20447843.9304                   20447840.1764
   1867025.14147   1447896.67446  21684420.8914                   21684418.4104
     47392.58248     47541.24346  20834439.6024                   20834434.8874
   2026190.38745   1634988.30743  24705951.6644                   24705951.0744
   2265045.19148   1754576.46745  22315366.4384                   22315364.3954
 11  7 27 15 52 30.0000000  0  7G03G06G13G16G20G23G32
   -512047.75447   -383572.41045  22407578.5784                   22407577.1914
    -21364.27747     -6168.91845  22734703.9224                   22734702.4614
   -542427.65647   -407810.37445  22553769.3834                   22553766.6334
   1318020.66448   1025604.01846  20445850.6804                   20445846.8674
   1887742.07847   1464039.69946  21688363.1094                   21688360.5984
    -42351.48448    -22389.19646  20817361.6724                   20817357.0234
   2308327.52348   1788302.90645  22323602.6644                   22323600.7424
 11  7 27 15 53  0.0000000  0  7G03G06G13G16G20G23G32
   -628429.98447   -474259.84145  22385431.5944                   22385430.4844
   -109150.14847    -74573.46645  22717999.0394                   22717997.1764
   -662124.25847   -501080.44745  22530991.6414                   22530989.2814
   1308043.74648   1017829.78946  20443951.7734                   20443948.0864
   1908834.12947   1480475.02946  21692377.1954                   21692374.0664
   -131858.69548    -92135.08046  20800329.0474                   20800324.0394
   2351843.18448   1822211.17945  22331883.4534                   22331881.6844
 11  7 27 15 53 30.0000000  0  7G03G06G13G16G20G23G32
   -744607.68747   -564787.90745  22363323.5394                   22363322.4844
   -196636.34447   -142744.52245  22701351.0234                   22701349.1094
   -781786.54347   -594323.75245  22508220.8284                   22508218.4734
   1298568.33647   1010446.33846  20442148.6254                   20442145.2424
   1930303.34847   1497204.25346  21696462.4304                   21696459.3674
   -221122.72348   -161691.45946  20783342.5784                   20783337.6764
   2395593.84848   1856302.55345  22340208.9144                   22340207.3634
 11  7 27 15 54  0.0000000  0  7G03G06G13G16G20G23G32
   -860572.21147   -655149.86845  22341256.3054                   22341255.2424
   -283814.87547   -210675.82445  22684761.2504                   22684760.0354
   -901407.55947   -687534.91145  22485457.5944                   22485455.5204
   1289598.01247   1003456.46146  20440441.5234                   20440438.2034
   1952152.16447   1514229.28446  21700620.3284                   21700617.2304
   -310135.76648   -231052.28146  20766403.8834                   20766399.1334
   2439582.41047   1890579.30545  22348579.6954                   22348577.9804
 11  7 27 15 54 30.0000000  0  7G03G06G13G16G20G23G32
   -976321.80147   -745344.33645  22319229.8284                   22319228.5084
   -370684.64847   -278366.55545  22668230.4224                   22668229.3094
  -1020986.47347   -780713.24845  22462702.5944                   22462700.4614
   1281129.48448    996857.60446  20438830.1254                   20438826.3984
   1974376.55547   1531546.94846  21704849.0554                   21704846.9304
   -398896.96548   -300216.82946  20749513.3444                   20749508.4774
   2483804.66848   1925038.17245  22356994.6884                   22356992.8484
 11  7 27 15 55  0.0000000  0  7G03G06G13G16G20G23G32
  -1091855.82447   -835370.84545  22297244.5234                   22297243.3134
   -457245.66847   -345816.67045  22651759.1024                   22651757.0044
  -1140523.99647   -873859.34745  22439955.2734                   22439953.2154
   1273158.49248    990646.42146  20437313.2344                   20437309.6564
   1996971.80947   1549153.60546  21709149.4064                   21709146.5514
   -487406.80548   -369185.54046  20732670.5784                   20732666.0274
   2528255.42247   1959675.05945  22365453.3674                   22365452.1054
 11  7 27 15 55 30.0000000  0  7G03G06G13G16G20G23G32
  -1207169.16047   -925225.38145  22275301.6644                   22275299.7734
   -543493.53947   -413022.79845  22635345.8054                   22635344.8364
  -1260016.50847   -966970.37345  22417216.6334                   22417214.3164
   1265685.30548    984823.13847  20435891.3524                   20435887.7544
   2019937.07047   1567048.57546  21713519.0944                   21713516.0904
   -575661.20748   -437955.20846  20715875.9454                   20715871.2584
   2572934.21148   1994489.65145  22373955.7504                   22373954.4144
 11  7 27 15 56  0.0000000  0  7G03G06G13G16G20G23G32
  -1322255.44547  -1014902.98945  22253401.2114                   22253399.9414
   -629422.71547   -479980.58145  22618994.4384                   22618992.6174
  -1379459.07447  -1060042.49245  22394487.7424                   22394485.2624
   1258710.82848    979388.47147  20434564.1804                   20434560.4804
   2043272.27047   1585231.82646  21717959.9064                   21717957.1884
   -663655.28548   -506522.02346  20699131.7274                   20699126.3714
   2617840.96147   2029481.87045  22382500.9614                   22382499.6524
 11  7 27 15 56 30.0000000  0  7G03G06G13G16G20G23G32
  -1437110.25047  -1104400.25645  22231544.9924                   22231543.0554
   -715029.34047   -546687.02645  22602703.9384                   22602702.1804
  -1498848.40647  -1153073.11045  22371768.2274                   22371765.7734
   1252234.88748    974342.26146  20433331.5634                   20433327.8324
   2066976.89547   1603702.92146  21722470.8284                   21722468.1174
   -751384.89148   -574882.74446  20682437.1884                   20682432.2734
   2662974.61347   2064650.89945  22391089.7344                   22391088.4024
 11  7 27 15 57  0.0000000  0  7G03G06G13G16G20G23G32
  -1551728.18447  -1193712.91445  22209733.7734                   22209732.2544
   -800308.33247   -613138.18445  22586475.5944                   22586473.9924
  -1618179.97747  -1246058.73645  22349060.1094                   22349057.8364
   1246257.39548    969684.46747  20432194.2114                   20432190.5514
   2091050.66047   1622461.66146  21727051.6254                   21727049.2624
   -838845.37148   -643033.77946  20665794.1644                   20665788.9924
   2708334.90647   2099996.52245  22399721.6954                   22399720.3794
 11  7 27 15 57 30.0000000  0  7G03G06G13G16G20G23G32
  -1666110.65247  -1282842.08345  22187967.4694                   22187966.1604
   -885261.89147   -679335.73345  22570309.8594                   22570307.9694
  -1737456.53147  -1339001.46745  22326362.4844                   22326360.1564
   1240772.14148    965410.23146  20431150.5084                   20431147.0394
   2115486.03947   1641502.18346  21731701.7344                   21731699.2934
   -926039.45748   -710977.21346  20649201.5554                   20649196.3134
   2753914.62547   2135513.12645  22408395.2974                   22408393.6454
 11  7 27 15 58  0.0000000  0  7G03G06G13G16G20G23G32
  -1780243.37947  -1371776.68345  22166248.6174                   22166247.3204
   -969876.77347   -745269.37945  22554207.9384                   22554206.4884
  -1856665.37547  -1431891.47045  22303677.6094                   22303675.3284
   1235788.14848    961526.58847  20430202.3134                   20430198.4574
   2140291.16047   1660830.80746  21736422.3054                   21736419.6564
  -1012953.71948   -778702.61346  20632662.1484                   20632657.3554
   2799721.92648   2171207.06745  22417112.3754                   22417111.0904
 11  7 27 15 58 30.0000000  0  7G03G06G13G16G20G23G32
  -1894123.14847  -1460514.13645  22144578.2814                   22144576.7934
  -1054150.44147   -810937.15445  22538171.5944                   22538169.3954
  -1975804.57047  -1524727.16845  22281006.2894                   22281004.0704
   1231303.58247    958032.11646  20429348.5004                   20429345.1174
   2165463.13347   1680445.29946  21741212.3444                   21741209.3054
  -1099586.12148   -846208.38146  20616176.5704                   20616172.0124
   2845753.94548   2207076.11545  22425871.8984                   22425870.2344
 11  7 27 15 59  0.0000000  0  7G03G06G13G16G20G23G32
  -2007745.02047  -1549050.63545  22122956.5704                   22122954.8014
  -1138078.43747   -876335.58545  22522200.2274                   22522198.9694
  -2094870.30147  -1617505.63845  22258348.7664                   22258346.3164
   1227318.34448    954926.73146  20428590.2424                   20428586.5744
   2191001.69547   1700345.44746  21746071.8444                   21746069.4144
  -1185932.63348   -913491.36446  20599745.4844                   20599740.5554
   2892010.07847   2243119.80645  22434674.1564                   22434672.7504
 11  7 27 15 59 30.0000000  0  7G03G06G13G16G20G23G32
  -2121106.17247  -1637383.99845  22101384.6884                   22101382.9184
  -1221658.69947   -941463.04945  22506294.4924                   22506293.0864
  -2213860.54347  -1710225.27345  22235706.4614                   22235703.7114
   1223830.29348    952208.76946  20427926.6094                   20427922.9104
   2216903.91847   1720528.94946  21751001.1174                   21750998.3634
  -1271991.00448   -980549.83246  20583369.1334                   20583363.9184
   2938487.40247   2279335.85345  22443518.4614                   22443516.8364
 11  7 27 16  0  0.0000000  0  8G03G06G13G16G20G23G19G32
  -2234203.64147  -1725511.88345  22079862.8754                   22079861.3984
  -1304888.90647  -1006317.74745  22490457.4304                   22490455.3524
  -2332773.54747  -1802884.75245  22213077.5784                   22213074.8134
   1220837.16448    949876.45647  20427357.0394                   20427353.4454
   2243166.84447   1740993.52246  21755998.8364                   21755996.1094
  -1357759.19548  -1047382.19246  20567047.8984                   20567042.9454
   1399304.46956   1115200.51554  24275595.3594                   24275593.3754
   2985183.19547   2315722.12045  22452404.5004                   22452403.0904
 11  7 27 16  0 30.0000000  0  8G03G06G13G16G20G23G19G32
  -2347035.58647  -1813432.87445  22058391.8524                   22058390.2774
  -1387768.48047  -1070899.22145  22474685.4454                   22474683.4884
  -2451609.46547  -1895484.13345  22190463.2664                   22190461.3484
   1218335.03948    947926.73946  20426881.0234                   20426877.1994
   2269785.91847   1761735.62546  21761064.3204                   21761061.6214
  -1443237.22348  -1113988.44246  20550782.2584                   20550776.9734
   1270791.28546   1015060.45944  24251139.9304                   24251138.3954
   3032092.58247   2352274.81545  22461331.0394                   22461329.7274
 11  7 27 16  1  0.0000000  0  8G03G06G13G16G20G23G19G32
  -2459601.97747  -1901146.90745  22036971.1094                   22036969.4454
  -1470297.53547  -1135207.59245  22458980.7274                   22458979.7734
  -2570368.70747  -1988023.79045  22167864.5784                   22167862.0124
   1216319.38748    946356.09746  20426497.2424                   20426493.6294
   2296755.69547   1782750.99146  21766196.8204                   21766194.0904
  -1528425.35548  -1180368.81346  20534571.1954                   20534566.2464
   1142172.62946    914838.18144  24226665.0554                   24226663.2734
   3079210.49247   2388990.02145  22470297.4144                   22470295.8014
 11  7 27 16  1 30.0000000  0  9G03G06G13G16G20G23G19G32G07
  -2571891.29747  -1988645.07345  22015603.1484                   22015601.2894
  -1552465.60547  -1199234.63945  22443344.6334                   22443343.3134
  -2689041.27047  -2080495.90345  22145281.6954                   22145279.3984
   1214796.41847    945169.36646  20426207.0234                   20426203.5904
   2324081.62547   1804043.87346  21771396.3364                   21771394.1644
  -1613313.10248  -1246515.11146  20518417.5704                   20518412.6454
   1013460.00447    814542.72644  24202172.4534                   24202169.4494
   3126542.41447   2425871.96945  22479304.0634                   22479302.9804
   1439091.26256   1136169.98853  24508085.4614                   24508085.1914
 11  7 27 16  2  0.0000000  0  9G03G06G13G16G20G23G19G32G07
  -2683901.67247  -2075925.86745  21994288.0314                   21994286.8404
  -1634271.50047  -1262979.46745  22427777.3524                   22427775.7424
  -2807626.44547  -2172899.90645  22122715.8754                   22122713.4414
   1213762.66448    944363.84147  20426010.7584                   20426007.2624
   2351759.80147   1825611.25246  21776663.4694                   21776660.7504
  -1697899.49248  -1312426.59846  20502321.1414                   20502316.7814
    884654.55947    714174.92544  24177660.7034                   24177658.7734
   3174084.35547   2462917.56445  22488351.3914                   22488349.7074
   1339850.81346   1058839.81543  24489200.3284                   24489200.3094
 11  7 27 16  2 30.0000000  0  9G03G06G13G16G20G23G19G32G07
  -2795626.28547  -2162983.98845  21973027.7664                   21973026.5594
  -1715709.42247  -1326437.59845  22412280.2664                   22412278.5274
  -2926118.19147  -2265231.13345  22100167.0864                   22100165.1484
   1213219.59048    943940.65746  20425907.3364                   20425903.7664
   2379790.93848   1847453.65246  21781997.5234                   21781995.1254
  -1782178.75848  -1378098.75546  20486283.6884                   20486278.5904
    755762.53947    613739.67144  24153133.2194                   24153131.1914
   3221836.88747   2500127.27745  22497438.4534                   22497436.7074
   1240634.81346    981528.72643  24470320.1334                   24470320.0234
 11  7 27 16  3  0.0000000  0  9G03G06G13G16G20G23G19G32G07
  -2907057.08647  -2249813.15945  21951823.3134                   21951822.0204
  -1796771.68047  -1389602.96645  22396854.4924                   22396852.4144
  -3044509.16447  -2357483.81245  22077638.8754                   22077636.2034
   1213170.24248    943902.18646  20425897.8914                   20425894.4414
   2408177.38747   1869572.92946  21787399.6804                   21787396.6644
  -1866143.62148  -1443525.91946  20470305.8134                   20470301.1334
    626791.96147    513243.21644  24128590.7034                   24128588.5234
   3269802.75847   2537503.22745  22506566.0314                   22506564.5514
   1141448.41846    904240.66143  24451446.1174                   24451445.5864
 11  7 27 16  3 30.0000000  0  9G03G06G13G16G20G23G19G32G07
  -3018185.32847  -2336406.57745  21930676.3204                   21930674.4574
  -1877450.75047  -1452469.76545  22381501.6804                   22381500.1024
  -3162792.34447  -2449652.51345  22055130.0864                   22055127.0634
   1213618.21948    944251.25846  20425983.2114                   20425979.9384
   2436922.04747   1891971.31246  21792869.0864                   21792866.9694
  -1949786.04348  -1508701.83946  20454388.9384                   20454384.2194
    497751.15647    412692.03344  24104035.0864                   24104032.5784
   3317984.57847   2575047.43045  22515734.5944                   22515733.5434
   1042296.48046    826979.41143  24432578.9384                   24432577.3524
 11  7 27 16  4  0.0000000  0  9G03G06G13G16G20G23G19G32G07
  -3129008.63747  -2422762.39645  21909587.2114                   21909585.1994
  -1957744.48847  -1515036.32845  22366222.2814                   22366220.3674
  -3280965.91047  -2541735.80145  22032642.5004                   22032639.6994
   1214560.99248    944985.86647  20426162.5474                   20426159.2814
   2466021.62147   1914646.26546  21798406.6174                   21798404.3444
  -2033104.49248  -1573625.30746  20438534.0394                   20438528.8134
    368642.34847    312087.88344  24079466.2194                   24079464.5784
   3366379.18447   2612757.44445  22524943.8284                   22524942.1604
    943177.82146    749744.15044  24413717.3284                   24413715.8954
 11  7 27 16  4 30.0000000  0  9G03G06G13G16G20G23G19G32G07
  -3239517.71947  -2508873.34945  21888557.6174                   21888556.4024
  -2037644.75047  -1577296.25145  22351017.9224                   22351016.4384
  -3399022.09847  -2633727.61245  22010176.6884                   22010174.0474
   1216001.82048    946108.56746  20426436.8674                   20426433.5824
   2495479.03947   1937600.07145  21804012.5084                   21804009.6174
  -2116091.14148  -1638290.23646  20422742.4534                   20422737.3164
    239474.17246    211437.48844  24054886.1484                   24054884.4064
   3414989.58647   2650635.62645  22534194.4694                   22534192.9534
    844097.55146    672538.81344  24394862.9224                   24394862.0944
 11  7 27 16  5  0.0000000  0  9G03G06G13G16G20G23G19G32G07
  -3349705.85247  -2594734.23145  21867589.4224                   21867588.4104
  -2117145.65647  -1639245.00645  22335889.7814                   22335887.8984
  -3516955.16847  -2725623.51645  21987735.1484                   21987732.4144
   1217942.48448    947620.75846  20426806.2424                   20426802.6764
   2525295.25047   1960833.44745  21809686.1334                   21809683.4884
  -2198739.91448  -1702691.87746  20407014.4304                   20407009.9574
    110253.22746    110745.95144  24030296.2194                   24030294.1994
   3463817.08647   2688682.98345  22543485.7114                   22543484.4494
    745059.34846    595366.20943  24376016.2814                   24376015.3014
 11  7 27 16  5 30.0000000  0  9G03G06G13G16G20G23G19G32G07
  -3459572.73047  -2680344.76345  21846682.6024                   21846681.1844
  -2196247.64547  -1700882.93245  22320837.0314                   22320835.5434
  -3634765.57847  -2817423.80645  21965316.7974                   21965313.8054
   1220378.06348    949518.59347  20427269.7114                   20427266.2584
   2555464.64847   1984342.01445  21815427.1954                   21815424.5554
  -2281051.48448  -1766830.77446  20391351.2584                   20391346.4344
    -19020.50846     10013.25844  24005696.3674                   24005694.1334
   3512855.77047   2726894.86345  22552817.4454                   22552816.3014
    646059.44546    518223.50244  24357177.5554                   24357175.9534
 11  7 27 16  6  0.0000000  0  9G03G06G13G16G20G23G19G32G07
  -3569109.73447  -2765698.26545  21825838.8204                   21825837.1994
  -2274943.15247  -1762204.10245  22305861.7894                   22305860.1454
  -3752446.23047  -2909122.99645  21942922.7504                   21942920.1454
   1223311.54348    951804.39546  20427827.8204                   20427824.6644
   2585989.68847   2008127.72545  21821236.2344                   21821233.5474
  -2363018.44548  -1830701.14646  20375753.3054                   20375748.8914
   -148338.69146    -90754.01344  23981087.6484                   23981085.0084
   3562108.33247   2765273.43045  22562190.0554                   22562188.7234
    547102.95746    441114.55543  24338345.9614                   24338344.8834
 11  7 27 16  6 30.0000000  0  9G03G06G13G16G20G23G19G32G07
  -3678314.66047  -2850793.01645  21805057.6954                   21805056.0864
  -2353230.60547  -1823207.31345  22290964.2114                   22290962.2734
  -3869995.62547  -3000719.89845  21920553.6334                   21920550.9454
   1226740.30548    954476.14046  20428480.4224                   20428477.0044
   2616867.02347   2032187.93545  21827111.8594                   21827109.2704
  -2444638.84848  -1894301.47246  20360221.8674                   20360217.0044
   -277699.20346   -191554.34244  23956471.7274                   23956468.8484
   3611571.41847   2803816.02545  22571602.6724                   22571601.2934
    448188.60246    364038.45443  24319522.9224                   24319522.6214
 11  7 27 16  7  0.0000000  0  9G03G06G13G16G20G23G19G32G07
  -3787187.98047  -2935629.34745  21784339.7344                   21784338.2274
  -2431111.33647  -1883893.60145  22276143.8674                   22276142.2774
  -3987415.29347  -3092215.73945  21898209.4534                   21898207.1454
   1230658.30948    957529.10046  20429225.9774                   20429222.4224
   2648090.12947   2056517.59145  21833053.5784                   21833050.7934
  -2525914.30548  -1957633.00946  20344755.4144                   20344750.8594
   -407102.94946   -292388.34744  23931846.1174                   23931844.2384
   3661238.64547   2842517.68945  22581054.2114                   22581052.6884
    349312.30946    286992.01543  24300707.5394                   24300706.8984
 11  7 27 16  7 30.0000000  0  9G03G06G13G16G20G23G19G32G07
  -3895724.98847  -3020203.61745  21763685.8054                   21763684.4454
  -2508581.69947  -1944260.12045  22261401.9774                   22261400.3714
  -4104701.35947  -3183607.46145  21875890.7424                   21875888.2894
   1235064.96148    960962.84446  20430064.3834                   20430061.2384
   2679657.47747   2081115.49645  21839060.8914                   21839057.9304
  -2606841.30148  -2020693.00146  20329355.6954                   20329350.4104
   -536545.67646   -393252.74243  23907214.3674                   23907211.3484
   3711108.63747   2881377.37145  22590543.7814                   22590542.6024
    250474.64546    209975.65543  24281899.1804                   24281898.2774
 11  7 27 16  8  0.0000000  0  9G03G06G13G16G20G23G19G32G07
  -4003919.64547  -3104511.13146  21743097.0944                   21743095.4454
  -2585636.00047  -2004302.43545  22246739.4774                   22246737.7194
  -4221848.51247  -3274890.96045  21853597.9224                   21853595.6254
   1239961.27748    964778.14546  20430996.4064                   20430993.1844
   2711569.59847   2105982.03345  21845133.5394                   21845130.5394
  -2687414.18448  -2083477.06246  20314023.0314                   20314018.3014
   -666020.87946   -494142.41644  23882576.2424                   23882573.2114
   3761182.15647   2920395.62045  22600072.5234                   22600071.6604
    151678.93046    132992.04543  24263099.0234                   24263097.6294
 11  7 27 16  8 30.0000000  0  9G03G06G13G16G20G23G19G32G07
  -4111767.75848  -3188548.60145  21722574.1644                   21722572.7704
  -2662271.68047  -2064018.55545  22232155.9774                   22232154.3404
  -4338853.84447  -3366063.93545  21831332.9924                   21831330.0084
   1245345.39148    968973.53846  20432020.7734                   20432017.3794
   2743824.07047   2131115.36945  21851271.0634                   21851268.4264
  -2767630.30148  -2145983.12846  20298758.2894                   20298753.6374
   -795525.53546   -595055.11044  23857932.0164                   23857928.8954
   3811456.65647   2959570.50345  22609640.0474                   22609638.6054
     52924.75846     56040.76143  24244307.4774                   24244305.1804
 11  7 27 16  9  0.0000000  0  9G03G06G13G16G20G23G19G32G07
  -4219265.16847  -3272312.80545  21702117.9924                   21702116.4494
  -2738484.97747  -2123405.52345  22217652.6884                   22217651.2894
  -4455714.27748  -3457123.99945  21809094.8914                   21809092.4884
   1251216.92648    973548.74746  20433137.9224                   20433134.5744
   2776419.75047   2156514.54645  21857473.9924                   21857471.1454
  -2847485.89148  -2208208.26046  20283562.4534                   20283557.9104
   -925055.05546   -695987.11044  23833283.5554                   23833279.9454
   3861931.24246   2998901.28345  22619244.6564                   22619243.9104
    -45786.72346    -20877.23543  24225523.3054                   24225521.0004
 11  7 27 16  9 30.0000000  0  9G03G06G13G16G20G23G19G32G07
  -4326401.21547  -3355795.41845  21681730.6644                   21681729.2234
  -2814266.38347  -2182455.98645  22203231.6884                   22203230.3204
  -4572419.81648  -3548063.37845  21786886.9144                   21786884.1884
   1257580.59848    978507.43847  20434349.0004                   20434345.5514
   2809361.12947   2182183.11545  21863742.7274                   21863739.9924
  -2926971.71948  -2270145.28446  20268436.6804                   20268431.9654
  -1054599.25046   -796930.61444  23808631.8674                   23808628.9734
   3912610.42247   3038391.49945  22628889.0234                   22628887.4494
   -144448.60947    -97756.62244  24206748.5084                   24206746.8794
 11  7 27 16 10  0.0000000  0  9G03G06G13G16G20G23G19G32G07
  -4433179.68447  -3438999.40645  21661411.3134                   21661410.2344
  -2889620.18447  -2241173.22245  22188892.6254                   22188890.8874
  -4688974.59448  -3638885.27745  21764707.4304                   21764704.7854
   1264428.05948    983843.11446  20435652.3754                   20435648.7304
   2842638.64848   2208113.61545  21870075.3754                   21870072.5314
  -3006091.66048  -2331797.19246  20253380.7734                   20253375.7734
  -1184161.25846   -897887.93344  23783977.1024                   23783973.9104
   3963484.72747   3078033.74945  22638569.6484                   22638568.9694
   -243067.78546   -174602.68444  24187982.3444                   24187980.2774
 11  7 27 16 10 30.0000000  0  9G03G06G13G16G20G23G19G32G07
  -4539592.94147  -3521918.80745  21641162.1954                   21641160.1884
  -2964540.09447  -2299552.35545  22174635.9534                   22174634.3324
  -4805372.77748  -3729585.15045  21742557.5004                   21742554.5704
   1271760.52748    989556.70846  20437047.3364                   20437044.1174
   2876253.61348   2234307.03745  21876471.7504                   21876469.4614
  -3084839.59448  -2393159.22146  20238395.6094                   20238390.5944
  -1313734.28546   -998853.84644  23759320.1724                   23759317.3714
   4014555.70347   3117829.25445  22648288.3674                   22648287.3524
   -341640.68047   -251412.68644  24169224.0084                   24169222.0594
 11  7 27 16 11  0.0000000  0  9G03G06G13G16G20G23G19G32G07
  -4645639.31247  -3604552.32345  21620981.8754                   21620980.1024
  -3039025.18747  -2357592.69045  22160461.7814                   22160460.2304
  -4921613.18448  -3820162.08645  21720437.6024                   21720434.6054
   1279574.70748    995645.66846  20438534.2344                   20438531.2854
   2910201.97748   2260760.28045  21882932.3984                   21882929.5124
  -3163214.66448  -2454230.71146  20223481.3524                   20223476.5784
  -1443316.35547  -1099826.83744  23734660.8984                   23734658.8524
   4065819.52747   3157775.01445  22658043.2664                   22658042.2814
   -440168.92246   -328187.90344  24150474.9304                   24150472.6214
 11  7 27 16 11 30.0000000  0  9G03G06G13G16G20G23G19G32G07
  -4751312.20347  -3686894.80745  21600872.9614                   21600871.2624
  -3113069.71147  -2415289.69545  22146371.5314                   22146370.0234
  -5037690.04348  -3910611.56945  21698349.1414                   21698346.2154
   1287871.88748   1002110.99246  20440113.3754                   20440109.8874
   2944484.75847   2287474.08845  21889456.0084                   21889453.2034
  -3241210.93448  -2515007.02446  20208639.0554                   20208634.2814
  -1572901.12146  -1200801.88744  23710002.0314                   23709999.5944
   4117277.02347   3197871.71645  22667836.1024                   22667834.9224
   -538649.59446   -404926.04044  24131733.8914                   24131732.7854
 11  7 27 16 12  0.0000000  0  9G03G06G13G16G20G23G19G32G07
  -4856612.41847  -3768946.89545  21580834.8754                   21580833.2854
  -3186675.58647  -2472644.92045  22132364.7814                   22132363.7584
  -5153604.03148  -4000934.14745  21676290.7974                   21676288.2934
   1296646.07448   1008948.00846  20441782.8364                   20441779.7234
   2979094.53547   2314442.70845  21896041.4384                   21896039.0164
  -3318830.13348  -2575489.51846  20193868.6884                   20193863.7034
  -1702489.21947  -1301779.58244  23685342.5944                   23685339.8954
   4168921.23847   3238113.90945  22677663.0314                   22677662.3914
   -637086.97346   -481630.43844  24113002.3444                   24113000.9264
 11  7 27 16 12 30.0000000  0  9G03G06G13G16G20G23G19G32G07
  -4961530.43447  -3850701.16845  21560869.3134                   21560868.2194
  -3259834.10547  -2529651.53645  22118443.4694                   22118442.1134
  -5269347.78947  -4091124.06445  21654265.7114                   21654263.3364
   1305901.13348   1016159.72646  20443543.9144                   20443540.8094
   3014035.28547   2341669.21645  21902691.0474                   21902688.8014
  -3396063.72748  -2635671.54646  20179171.2894                   20179166.4734
  -1832071.88346  -1402753.02744  23660683.1254                   23660680.7464
   4220756.14147   3278504.66645  22687527.1094                   22687526.0784
   -735475.10546   -558296.43244  24094279.2194                   24094278.4694
 11  7 27 16 13  0.0000000  0  9G03G06G13G16G20G23G19G32G07
  -5066063.87547  -3932155.77745  21540977.0314                   21540975.6214
  -3332543.71547  -2586308.34445  22104607.0004                   22104606.0204
  -5384919.61347  -4181180.03045  21632273.0314                   21632270.8094
   1315634.16448   1023743.90246  20445396.2734                   20445393.0394
   3049303.27347   2369150.73245  21909402.1254                   21909399.7814
  -3472910.03148  -2695551.78446  20164548.0704                   20164543.3524
  -1961646.72346  -1503720.36844  23636026.4144                   23636024.1414
   4272778.36347   3319041.39945  22697426.4224                   22697425.7704
   -833815.04746   -634924.90243  24075565.2194                   24075564.9804
 11  7 27 16 13 30.0000000  0  9G03G06G13G16G20G23G19G32G07
  -5170209.28947  -4013308.04345  21521159.2504                   21521157.1564
  -3404802.23047  -2642613.65845  22090856.8594                   22090855.5394
  -5500316.60547  -4271099.73545  21610313.7664                   21610311.1804
   1325843.20748   1031698.98646  20447339.2194                   20447335.6134
   3084895.71947   2396885.05345  21916175.0474                   21916172.9774
  -3549366.59448  -2755128.33546  20149998.8914                   20149993.9844
  -2091209.88347  -1604678.60544  23611370.7974                   23611369.0474
   4324985.40647   3359722.15145  22707361.6484                   22707360.6564
   -932107.43746   -711516.30944  24056861.1564                   24056860.4844
 11  7 27 16 14  0.0000000  0  9G03G06G13G16G20G23G19G32G07
  -3698540.19547  -2866552.88145  21801208.7504                   21801206.9534
  -1901185.00847  -1470963.85345  22376985.3984                   22376984.0864
  -4040112.65647  -3133278.46745  21888181.2274                   21888178.5784
   2911945.60248   2267622.92146  20749164.4614                   20749160.8874
   4696229.25447   3652469.58445  22222802.1954                   22222799.4614
  -2050008.51648  -1586797.36346  20435317.1644                   20435312.2814
   -645334.04746   -478022.01444  23886511.8754                   23886509.3754
   5952792.96147   4628143.58845  23017123.0554                   23017122.0864
    545071.25446    439532.11944  24337958.5944                   24337958.2304
 11  7 27 16 14 30.0000000  0  9G03G06G13G16G20G23G19G32G07
  -3801896.92247  -2947090.58445  21781540.4144                   21781538.5984
  -1972531.58247  -1526558.55545  22363408.7504                   22363407.4694
  -4155149.85947  -3222917.83245  21866290.5944                   21866287.8594
   2923103.32448   2276317.22746  20751287.5234                   20751284.2464
   4732465.96547   3680705.95745  22229697.4844                   22229694.7894
  -2125675.56648  -1645758.70946  20420918.4844                   20420913.3524
   -774861.81646   -578952.67044  23861863.8674                   23861861.4494
   6005364.91847   4669108.66845  23027127.1884                   23027126.0044
    446877.19146    363017.32544  24319273.2584                   24319272.3754
 11  7 27 16 15  0.0000000  0  9G03G06G13G16G20G23G19G32G07
  -3904847.28548  -3027311.63045  21761949.4614                   21761948.0904
  -2043411.52347  -1581789.66245  22349920.6024                   22349919.2974
  -4269996.07448  -3312408.37245  21844435.9534                   21844433.3364
   2934738.79348   2285383.81246  20753501.9144                   20753498.5824
   4769028.02047   3709195.82245  22236654.7734                   22236652.4064
  -2200937.11348  -1704404.07647  20406596.4534                   20406591.5204
   -904360.02346   -679860.27644  23837220.4844                   23837218.3204
   6058122.66447   4710218.55545  23037166.9064                   23037165.6804
    348738.80146    286545.90444  24300598.3754                   24300597.1484
 11  7 27 16 15 30.0000000  0  9G03G06G13G16G20G23G19G32G07
  -4007394.02347  -3107218.17545  21742435.4844                   21742433.8954
  -2113828.63347  -1636660.10345  22336520.6334                   22336519.4384
  -4384654.39548  -3401752.50245  21822617.1174                   21822615.0354
   2946844.38748   2294816.72146  20755805.3594                   20755802.0514
   4805906.46947   3737932.23145  22243672.7504                   22243670.3134
  -2275796.53548  -1762736.09947  20392351.3134                   20392346.5904
  -1033830.89546   -780746.62544  23812583.2274                   23812580.7624
   6111058.03547   4751466.81845  23047239.8674                   23047239.2274
    250650.12546    210113.23444  24281932.1024                   24281930.9734
 11  7 27 16 16  0.0000000  0  9G03G06G13G16G20G23G19G32G07
  -4109534.04747  -3186807.77845  21722998.7814                   21722997.1994
  -2183780.65647  -1691168.16245  22323209.3134                   22323207.7974
  -4499122.63748  -3490948.54245  21800834.5784                   21800832.1334
   2959417.84848   2304614.19146  20758198.1334                   20758194.8754
   4843098.85947   3766913.26845  22250750.4614                   22250747.6914
  -2350251.84448  -1820753.23446  20378183.0554                   20378177.8594
  -1163271.30546   -881609.16344  23787951.5004                   23787949.0554
   6164168.24647   4792851.34245  23057346.2344                   23057345.7664
    152611.03546    133719.19844  24263275.8914                   24263274.8874
 11  7 27 16 16 30.0000000  0  9G03G06G13G16G20G23G19G32G07
  -4211260.41047  -3266075.06245  21703641.0864                   21703639.3324
  -2253261.65247  -1745309.16045  22309987.2814                   22309985.8134
  -4613394.85248  -3579991.79845  21779089.2424                   21779086.9614
   2972460.69548   2314777.43246  20760679.9924                   20760677.0554
   4880606.37147   3796139.87045  22257887.7344                   22257885.3284
  -2424296.75848  -1878450.57647  20364092.7344                   20364087.9384
  -1292674.34846   -982442.62544  23763327.0704                   23763324.3284
   6217454.78147   4834373.24145  23067486.6564                   23067485.6684
     54624.68046     57366.24544  24244629.5084                   24244629.1994
 11  7 27 16 17  0.0000000  0  9G03G06G13G16G20G23G19G32G07
  -4312575.39148  -3345021.78246  21684361.7034                   21684359.7274
  -2322274.68047  -1799085.54745  22296854.8444                   22296853.2074
  -4727473.61348  -3668884.33945  21757380.8444                   21757378.1524
   2985965.55148   2325300.69046  20763250.0474                   20763246.7424
   4918420.72747   3825605.53945  22265083.4694                   22265080.8404
  -2497934.41448  -1935830.58047  20350079.9064                   20350075.3484
  -1422042.23446  -1083248.70944  23738708.8594                   23738706.2154
   6270909.21947   4876025.99745  23077658.9844                   23077657.6414
    -43314.82446    -18950.17144  24225992.7814                   24225991.4734
 11  7 27 16 17 30.0000000  0  9G03G06G13G16G20G23G19G32G07
  -4413471.12948  -3423641.82745  21665161.7734                   21665160.1914
  -2390813.40647  -1852492.31545  22283811.9144                   22283810.5314
  -4841351.82448  -3757620.60345  21735710.7424                   21735707.9694
   2999934.18048   2336185.31146  20765908.1644                   20765905.0554
   4956543.46147   3855311.53445  22272338.1414                   22272336.1724
  -2571157.83648  -1992887.79546  20336145.7664                   20336141.1334
  -1551366.91047  -1184021.13044  23714099.8134                   23714096.5354
   6324533.90647   4917811.41245  23087863.6644                   23087862.4384
   -141202.39846    -95226.14744  24207365.3524                   24207364.1954
 11  7 27 16 18  0.0000000  0  9G03G06G13G16G20G23G19G32G07
  -4513942.28147  -3501931.01646  21646042.5634                   21646040.8984
  -2458873.44947  -1905526.10045  22270860.5554                   22270858.9964
  -4955024.80948  -3846196.93945  21714079.2194                   21714076.5234
   3014366.84848   2347431.52946  20768654.5164                   20768651.4884
   4994974.27048   3885257.55645  22279651.0474                   22279649.1214
  -2643962.52048  -2049618.72546  20322291.8594                   20322286.4694
  -1680643.04346  -1284755.66944  23689499.4144                   23689495.7664
   6378328.34447   4959729.09844  23098100.1414                   23098098.9454
   -239036.43046   -171460.38444  24188748.5084                   24188746.9654
 11  7 27 16 18 30.0000000  0  9G03G06G13G16G20G23G19G32G07
  -4613990.26647  -3579890.47446  21627004.0084                   21627002.4104
  -2526457.23447  -1958188.77445  22257999.7734                   22257998.4844
  -5068494.70748  -3934615.03045  21692486.6254                   21692484.1644
   3029256.74648   2359034.02846  20771488.1024                   20771484.5704
   5033705.61347   3915437.79845  22287021.8674                   22287019.5274
  -2716350.68748  -2106025.10347  20308516.7114                   20308511.9414
  -1809872.05146  -1385453.56944  23664907.1884                   23664904.1214
   6432285.35947   5001773.46444  23108367.3594                   23108366.8404
   -336821.70346   -247656.67844  24170140.2584                   24170138.4614
 11  7 27 16 19  0.0000000  0  9G03G06G13G16G20G23G19G32G07
  -4713613.99248  -3657519.32845  21608046.3134                   21608044.5234
  -2593564.82447  -2010480.40045  22245229.7734                   22245228.2304
  -5181760.80548  -4022874.30545  21670932.7894                   21670930.0744
   3044599.39548   2370989.31846  20774407.5944                   20774404.5234
   5072732.75847   3945848.49045  22294448.7664                   22294446.0594
  -2788322.14848  -2162106.76647  20294820.8134                   20294816.1024
  -1939052.66446  -1486113.72144  23640324.8284                   23640322.0594
   6486400.63747   5043941.13545  23118665.1094                   23118664.4104
   -434560.96546   -323817.08544  24151541.5004                   24151538.9694
 11  7 27 16 19 30.0000000  0  9G03G06G13G16G20G23G19G32G07
  -4812805.50448  -3734811.39246  21589171.0394                   21589168.8634
  -2660189.16847  -2062395.46745  22232551.5314                   22232550.4614
  -5294815.84448  -4110969.14045  21649419.1174                   21649416.6214
   3060397.37548   2383299.42246  20777413.8914                   20777410.3954
   5112057.79747   3976491.33845  22301931.8834                   22301929.6684
  -2859870.00448  -2217858.35147  20281205.9774                   20281201.0314
  -2068177.09446  -1586730.11044  23615753.0314                   23615750.4144
   6540676.15647   5086233.70544  23128993.7894                   23128992.8404
   -532249.11346   -399937.71344  24132951.0234                   24132950.1454
 11  7 27 16 20  0.0000000  0  9G03G06G13G16G20G23G19G32G07
  -4911560.21547  -3811763.10546  21570378.6174                   21570376.9184
  -2726326.32047  -2113930.89345  22219966.2344                   22219964.7934
  -5407655.37948  -4198896.03545  21627946.3754                   21627944.0204
   3076650.91448   2395964.50046  20780506.8284                   20780503.5084
   5151679.72347   4007365.53445  22309471.3284                   22309469.1564
  -2930989.85548  -2273276.43146  20267672.4454                   20267667.1454
  -2197239.46147  -1687298.13144  23591193.1804                   23591190.6954
   6595111.34446   5128650.65944  23139352.7894                   23139351.6024
   -629884.74646   -476017.40444  24114371.5554                   24114370.7274
 11  7 27 16 20 30.0000000  0  9G03G06G13G16G20G23G19G32G07
  -5009877.21947  -3888373.72446  21551669.1644                   21551667.7114
  -2791976.94947  -2165087.21645  22207473.2664                   22207471.5274
  -5520279.48448  -4286655.06245  21606514.5554                   21606512.3634
   3093354.37148   2408980.17146  20783685.4224                   20783682.0704
   5191593.18848   4038466.88345  22317067.1334                   22317064.3754
  -3001681.89848  -2328361.13247  20254220.1724                   20254214.8284
  -2326239.21147  -1787817.35444  23566645.4694                   23566642.2934
   6649700.97747   5171187.96744  23149740.5314                   23149739.5274
   -727470.89846   -552058.53644  24095801.2664                   24095800.3054
 11  7 27 16 21  0.0000000  0  9G03G06G13G16G20G23G19G32G07
  -5107754.36347  -3964641.60846  21533043.9614                   21533042.4844
  -2857140.30147  -2215863.81845  22195072.9534                   22195071.2624
  -5632686.67648  -4374245.06845  21585124.4064                   21585121.6294
   3110504.19548   2422343.66046  20786948.9774                   20786945.6954
   5231794.39847   4069792.45345  22324717.3674                   22324714.4534
  -3071945.20348  -2383111.76546  20240849.3674                   20240844.3134
  -2455174.25446  -1888286.19844  23542110.4924                   23542106.5784
   6704441.44547   5213842.83744  23160157.2974                   23160156.3204
   -825008.71946   -628062.01944  24077241.1254                   24077239.9184
 11  7 27 16 21 30.0000000  0  9G03G06G13G16G20G23G19G32G07
  -5205186.91447  -4040563.05946  21514503.0704                   21514501.2384
  -2921812.10947  -2266257.44145  22182766.2424                   22182765.0514
  -5744872.30548  -4461662.43245  21563776.4144                   21563773.6214
   3128100.35948   2436054.94346  20790297.3284                   20790293.7624
   5272282.82447   4101341.83645  22332421.6254                   22332419.1684
  -3141775.20748  -2437524.76647  20227561.0084                   20227556.0824
  -2584039.55546  -1988700.67644  23517587.9924                   23517584.9614
   6759332.44146   5256614.95744  23170603.0234                   23170601.8484
   -922496.72746   -704026.64744  24058690.0554                   24058687.9384
 11  7 27 16 22  0.0000000  0  9G03G06G13G16G20G23G19G32G07
  -5302174.70347  -4116137.94146  21496047.0314                   21496045.0354
  -2985993.37147  -2316268.79945  22170553.0784                   22170550.7664
  -5856836.69548  -4548907.40345  21542470.3524                   21542467.3754
   3146137.76248   2450110.05046  20793729.9844                   20793726.5164
   5313052.28147   4133110.20745  22340179.9224                   22340177.9844
  -3211172.85948  -2491600.86446  20214355.4304                   20214350.6524
  -2712834.23046  -2089060.12845  23493079.1094                   23493076.1954
   6814368.18046   5299499.90444  23181076.1024                   23181075.3444
  -1019937.15646   -779954.21744  24040147.1334                   24040145.6724
 11  7 27 16 22 30.0000000  0  9G03G06G13G16G20G23G19G32G07
  -5398713.95347  -4191363.30145  21477675.7344                   21477674.2734
  -3049681.54747  -2365895.94045  22158433.4384                   22158431.5904
  -5968576.62148  -4635977.44746  21521206.7504                   21521204.1844
   3164614.82848   2464507.75346  20797245.8984                   20797242.4534
   5354100.91847   4165096.11345  22347991.0474                   22347989.1254
  -3280135.08248  -2545337.66447  20201232.0554                   20201227.4064
  -2841554.71146  -2189361.74544  23468584.0944                   23468581.6454
   6869546.94147   5342496.29544  23191576.3674                   23191575.2344
  -1117330.05546   -855844.76644  24021614.1644                   24021612.2934
 11  7 27 16 23  0.0000000  0  9G03G06G13G16G20G23G19G32G07
  -5494802.17247  -4266237.21146  21459391.1094                   21459389.6884
  -3112875.13747  -2415137.69845  22146408.1254                   22146406.3094
  -6080090.02748  -4722871.00645  21499986.5554                   21499983.6054
   3183528.32848   2479245.52846  20800845.0164                   20800841.6374
   5395425.43047   4197297.00245  22355854.7424                   22355853.0164
  -3348660.02348  -2598733.73347  20188192.2814                   20188187.7974
  -2970197.89546  -2289603.13744  23444104.7504                   23444101.6254
   6924865.67246   5385601.72044  23202102.5234                   23202102.1844
  -1214676.31246   -931698.92944  24003089.6884                   24003088.1024
 11  7 27 16 23 30.0000000  0  9G03G06G13G16G20G23G19G32G07
  -5590433.99647  -4340755.50846  21441193.1254                   21441191.4534
  -3175569.98447  -2463990.80045  22134477.8284                   22134476.0314
  -6191372.02048  -4809584.22946  21478810.1564                   21478807.4264
   3202878.63348   2494323.67046  20804527.1024                   20804523.9104
   5437024.98847   4229712.18945  22363771.2894                   22363769.3634
  -3416743.51248  -2651785.81147  20175236.3834                   20175231.6134
  -3098758.27746  -2389779.98644  23419639.5314                   23419637.1094
   6980323.97346   5428815.88144  23212656.5554                   23212655.6804
  -1311974.06646  -1007515.31344  23984573.7734                   23984572.4384
 11  7 27 16 24  0.0000000  0  9G03G06G13G16G20G23G19G32G07
  -5685608.89547  -4414917.73746  21423082.1334                   21423080.6604
  -3237766.87547  -2512455.90745  22122642.5314                   22122640.1374
  -6302422.72748  -4896117.24146  21457678.0784                   21457675.6214
   3222660.46148   2509738.06046  20808291.7664                   20808288.2734
   5478894.14847   4262337.46545  22371738.4924                   22371736.1054
  -3484385.75848  -2704494.05447  20162364.6094                   20162359.6484
  -3227234.96146  -2489891.64844  23395191.5164                   23395188.9224
   7035916.73046   5472134.84244  23223235.7664                   23223234.8134
  -1409226.02046  -1083296.01844  23966067.5234                   23966066.5784
 11  7 27 16 24 30.0000000  0  9G03G06G13G16G20G23G19G32G07
  -5780321.18447  -4488719.50646  21405058.4144                   21405056.7704
  -3299460.80947  -2560529.09545  22110902.1024                   22110900.6024
  -6413236.10548  -4982465.31846  21436590.9454                   21436588.2974
   3242874.60948   2525489.32346  20812138.1414                   20812134.8404
   5521033.76647   4295173.50445  22379757.6254                   22379755.5514
  -3551581.78948  -2756854.60547  20149577.5784                   20149572.5044
  -3355621.59446  -2589933.14844  23370759.9384                   23370757.5434
   7091644.77346   5515559.22244  23233839.8204                   23233839.3244
  -1506429.12946  -1159038.60644  23947570.6644                   23947569.6684
 11  7 27 16 25  0.0000000  0  9G03G06G13G16G20G23G19G32G07
  -5874567.41447  -4562158.10346  21387124.3914                   21387122.6954
  -3360649.68447  -2608208.71445  22099258.5234                   22099256.6604
  -6523809.39848  -5068626.32045  21415549.5314                   21415546.3984
   3263519.21548   2541576.01046  20816066.8444                   20816063.5634
   5563441.02747   4328218.09545  22387827.6094                   22387825.4614
  -3618328.56648  -2808865.07847  20136875.9064                   20136871.0944
  -3483914.84446  -2689901.84444  23346346.8054                   23346343.7504
   7147505.45346   5559086.95944  23244470.0864                   23244469.3094
  -1603583.31646  -1234743.14344  23929083.0554                   23929081.4694
 11  7 27 16 25 30.0000000  0  9G03G06G13G16G20G23G19G32G07
  -5968345.44547  -4635231.87046  21369278.2424                   21369276.5164
  -3421332.39547  -2655493.94345  22087710.6564                   22087709.3524
  -6634140.99648  -5154598.99045  21394553.8914                   21394551.4264
   3284590.82048   2557995.42046  20820076.9384                   20820073.1724
   5606112.28147   4361468.37245  22395947.3444                   22395945.2624
  -3684624.76648  -2860524.47247  20124260.1884                   20124255.7234
  -3612111.70346  -2789795.47044  23321951.9844                   23321949.1174
   7203495.45347   5602715.44644  23255125.4224                   23255123.9384
  -1700689.84446  -1310410.52844  23910603.4384                   23910603.0514
 11  7 27 16 26  0.0000000  0  9G03G06G13G16G20G23G19G32G07
  -6061656.74647  -4707941.95846  21351521.5474                   21351520.3524
  -3481511.87547  -2702387.01345  22076259.0164                   22076257.6374
  -6744232.83248  -5240384.82345  21373604.0314                   21373601.4264
   3306082.57048   2574742.22346  20824166.2274                   20824162.8634
   5649039.66847   4394918.23945  22404116.3364                   22404114.2074
  -3750473.09848  -2911834.86047  20111729.7894                   20111724.8794
  -3740213.59046  -2889615.06644  23297574.5394                   23297571.8674
   7259607.85547   5646439.32544  23265802.7424                   23265802.0084
  -1797753.44146  -1386044.43244  23892132.3674                   23892132.3014
 11  7 27 16 26 30.0000000  0  9G03G06G13G16G20G23G19G32G07
  -6154494.95747  -4780283.40046  21333855.2424                   21333853.9734
  -3541182.32847  -2748883.45245  22064904.2114                   22064902.4104
  -6854078.14848  -5325978.56745  21352701.7424                   21352698.7274
   3327995.89148   2591817.52046  20828336.4844                   20828332.7734
   5692225.09447   4428569.18145  22412333.9614                   22412332.3054
  -3815867.62948  -2962791.63847  20099285.6644                   20099280.5594
  -3868213.02746  -2989354.83244  23273217.2344                   23273214.6564
   7315843.81646   5690259.45344  23276504.1954                   23276503.6724
  -1894770.34446  -1461641.97344  23873671.1884                   23873669.9264
 11  7 27 16 27  0.0000000  0  9G03G06G13G16G20G23G19G32G07
  -6246854.33647  -4852251.72446  21316280.1334                   21316278.5634
  -3600339.97347  -2794980.29145  22053646.7194                   22053644.5744
  -6963672.29748  -5411376.60046  21331846.0394                   21331843.3404
   3350331.09848   2609221.56746  20832586.7974                   20832583.2774
   5735667.37947   4462420.27545  22420601.1564                   22420598.6334
  -3880803.76248  -3013391.22947  20086928.6564                   20086923.7074
  -3996104.35546  -3089010.35645  23248880.3444                   23248877.8324
   7372202.97746   5734175.63944  23287228.7424                   23287228.2194
  -1991738.74246  -1537201.75944  23855219.3444                   23855217.6524
 11  7 27 16 27 30.0000000  0  9G03G06G13G16G20G23G19G32G07
  -6338738.16447  -4923849.49446  21298794.8914                   21298793.5784
  -3658988.59447  -2840680.52445  22042486.3834                   22042484.3204
  -7073018.46148  -5496581.37245  21311038.2504                   21311035.5394
   3373078.95747   2626947.15546  20836915.3364                   20836912.1564
   5779357.92647   4496464.82545  22428915.2584                   22428913.2624
  -3945284.97348  -3063636.33147  20074658.2584                   20074653.4734
  -4123890.57446  -3188583.98945  23224562.7974                   23224560.4414
   7428677.10246   5778181.36044  23297975.7734                   23297975.2384
  -2088664.37946  -1612728.16244  23836774.7894                   23836773.1564
 11  7 27 16 28  0.0000000  0  9G03G06G13G16G20G23G19G32G07
  -6430140.19148  -4995071.83346  21281401.6094                   21281400.1884
  -3717123.25848  -2885980.22945  22031423.5164                   22031421.7934
  -7182110.35548  -5581588.04245  21290278.8524                   21290275.8674
   3396241.04748   2644995.50546  20841323.0554                   20841319.8054
   5823297.49647   4530703.40245  22437276.5474                   22437274.6214
  -4009305.69148  -3113522.61047  20062475.5864                   20062470.6454
  -4251564.60547  -3288070.20645  23200267.8284                   23200264.9144
   7485267.02746   5822277.34744  23308744.5084                   23308743.6484
  -2185544.39546  -1688219.01744  23818339.2194                   23818337.5514
 11  7 27 16 28 30.0000000  0  9G03G06G13G16G20G23G19G32G07
  -6521059.79348  -5065918.25546  21264100.3284                   21264098.7234
  -3774744.69947  -2930880.06245  22020458.1174                   22020456.5274
  -7290948.19548  -5666396.73946  21269567.7894                   21269564.7774
   3419812.65248   2663362.97446  20845808.6954                   20845805.4734
   5867480.68047   4565131.80945  22445685.1174                   22445682.2734
  -4072866.49648  -3163050.52247  20050380.3364                   20050375.5474
  -4379125.57447  -3387468.32645  23175993.7344                   23175990.7734
   7541967.70346   5866459.60044  23319534.3914                   23319534.3134
  -2282381.16846  -1763676.20044  23799911.5784                   23799910.0474
 11  7 27 16 29  0.0000000  0  9G03G06G13G16G20G23G19G32G07
  -6611492.41047  -5136385.20746  21246891.3984                   21246889.8594
  -3831848.94547  -2975376.85045  22009592.1174                   22009590.2774
  -7399526.81248  -5751003.44846  21248905.8444                   21248903.3094
   3443793.32848   2682049.19146  20850371.7974                   20850368.6914
   5911906.69147   4599749.43845  22454138.2664                   22454136.5004
  -4135963.35948  -3212216.92147  20038373.4144                   20038368.5704
  -4506567.73447  -3486773.84344  23151742.5944                   23151739.2114
   7598778.77746   5910727.90444  23330345.1414                   23330344.5124
  -2379173.04346  -1839098.40844  23781492.6724                   23781491.6914
 11  7 27 16 29 30.0000000  0  9G03G06G13G16G20G23G19G32G07
  -6701437.87147  -5206472.58046  21229775.1174                   21229773.5234
  -3888437.69947  -3019471.98545  21998823.5554                   21998822.0274
  -7507846.74648  -5835408.58345  21228293.2974                   21228290.4024
   3468177.50848   2701049.82546  20855012.0784                   20855009.0514
   5956569.62147   4634551.67745  22462637.5704                   22462635.4494
  -4198597.00448  -3261022.36147  20026454.4534                   20026450.0044
  -4633890.88347  -3585986.61245  23127513.6954                   23127510.1954
   7655694.69146   5955077.88144  23341175.8134                   23341175.3484
  -2475922.98846  -1914487.92144  23763082.2664                   23763080.5434
 11  7 27 16 30  0.0000000  0  9G03G06G13G16G20G23G19G32G07
  -6790894.20348  -5276178.79446  21212752.3914                   21212750.8984
  -3944509.94547  -3063164.63045  21988152.8284                   21988151.8834
  -7615906.16848  -5919610.73045  21207730.2424                   21207727.3244
   3492961.99648   2720362.40146  20859728.7974                   20859725.0784
   6001465.80547   4669535.68445  22471181.3054                   22471179.2194
  -4260766.15248  -3309465.85347  20014624.2814                   20014619.5084
  -4761092.39147  -3685104.63845  23103307.6724                   23103304.7154
   7712711.93446   5999506.81144  23352026.2894                   23352025.4454
  -2572632.28946  -1989845.78344  23744678.8914                   23744677.7624
 11  7 27 16 30 30.0000000  0  9G03G06G13G16G20G23G19G32G07
  -6879857.54348  -5345500.85546  21195823.3524                   21195821.5234
  -4000063.31247  -3106452.95145  21977581.8594                   21977579.4184
  -7723701.32048  -6003606.94245  21187217.3594                   21187214.9414
   3518145.09848   2739985.56546  20864520.7814                   20864517.1914
   6046593.66047   4704700.17845  22479768.5554                   22479766.8834
  -4322467.97748  -3357545.21447  20002883.0084                   20002878.1024
  -4888168.04347  -3784124.56945  23079126.3364                   23079123.0274
   7769829.06646   6044013.57244  23362894.9614                   23362894.3984
  -2669299.91446  -2065171.19144  23726282.9224                   23726282.1994
 11  7 27 16 31  0.0000000  0  9G03G06G13G16G20G23G19G32G07
  -6968325.97348  -5414437.28046  21178988.0634                   21178986.6644
  -4055096.48047  -3149335.94145  21967109.4844                   21967107.5744
  -7831230.16448  -6087395.63346  21166755.1724                   21166752.6054
   3543724.14548   2759917.28246  20869388.1724                   20869385.1374
   6091949.62947   4740042.46145  22488399.3284                   22488397.1294
  -4383700.56648  -3405258.94147  19991230.5394                   19991225.7344
  -5015114.89847  -3883044.15345  23054968.7344                   23054965.3954
   7827042.96546   6088595.76444  23373782.6564                   23373782.0554
  -2765926.77746  -2140464.82944  23707895.8054                   23707894.8554
 11  7 27 16 31 30.0000000  0  9G03G06G13G16G20G23G19G32G07
  -7056295.37948  -5482984.85146  21162248.4774                   21162246.5904
  -4109606.75447  -3191811.47945  21956736.2424                   21956734.4104
  -7938488.83648  -6170973.80946  21146344.8674                   21146342.3014
   3569697.82048   2780156.48746  20874331.1094                   20874327.3754
   6137531.76247   4775560.95945  22497073.5554                   22497071.3364
  -4444460.88748  -3452604.64947  19979668.2814                   19979663.4654
  -5141928.32447  -3981859.75745  23030836.7734                   23030833.5744
   7884352.16446   6133252.19444  23384688.3754                   23384687.7194
  -2862511.62547  -2215725.72944  23689516.6484                   23689514.7854
 11  7 27 16 32  0.0000000  0  9G03G06G13G16G20G23G19G32G07
  -7143765.94548  -5551143.71546  21145603.5314                   21145601.9924
  -4163595.91447  -3233880.95545  21946462.4844                   21946461.1994
  -8045478.41448  -6254342.30746  21125985.0234                   21125982.7624
   3596060.27048   2800698.64446  20879347.4304                   20879344.2584
   6183334.24647   4811251.15745  22505789.7734                   22505787.6094
  -4504750.02748  -3499583.21647  19968195.5784                   19968191.0274
  -5268608.09447  -4080571.19244  23006730.3834                   23006727.2664
   7941751.11346   6177978.56444  23395611.3524                   23395610.1454
  -2959058.19147  -2290956.79544  23671144.1804                   23671142.8284
 11  7 27 16 32 30.0000000  0  9G03G06G13G16G20G23G19G32G07
  -7230731.62548  -5618909.16746  21129054.6174                   21129052.5744
  -4217058.53148  -3275540.14245  21936288.8364                   21936287.3874
  -8152191.59848  -6337495.42046  21105678.4924                   21105675.5354
   3622813.22348   2821545.08146  20884438.7974                   20884434.9924
   6229358.08647   4847113.84845  22514547.4224                   22514545.8244
  -4564562.15648  -3546190.08047  19956814.0314                   19956809.0164
  -5395146.82047  -4179172.73344  22982650.9224                   22982647.6414
   7999240.96946   6222775.75844  23406550.9614                   23406550.6884
  -3055562.69546  -2366155.08244  23652779.7734                   23652778.5124
 11  7 27 16 33  0.0000000  0  9G03G06G13G16G20G23G19G32G07
  -7317188.13748  -5686277.87046  21112602.3594                   21112600.4884
  -4269991.71947  -3316786.78545  21926215.9224                   21926214.0634
  -8258624.52048  -6420430.15946  21085424.9144                   21085422.1214
   3649955.49648   2842694.88546  20889603.6174                   20889600.2464
   6275601.69547   4883147.76545  22523347.6954                   22523345.0744
  -4623893.78148  -3592422.52747  19945523.3984                   19945518.9064
  -5521539.58247  -4277660.54044  22958599.3524                   22958595.8714
   8056820.76246   6267643.01844  23417508.2424                   23417507.7934
  -3152024.04746  -2441319.72244  23634423.3284                   23634422.1214
 11  7 27 16 33 30.0000000  0  9G03G06G13G16G20G23G19G32G07
  -7403136.86748  -5753250.88946  21096246.8984                   21096245.1994
  -4322398.14147  -3357622.96745  21916243.8914                   21916241.8524
  -8364778.70348  -6503147.68946  21065224.6484                   21065221.6804
   3677480.37548   2864142.82346  20894841.0634                   20894838.2464
   6322058.07847   4919347.49545  22532188.2114                   22532185.8054
  -4682747.22748  -3638282.36247  19934323.9694                   19934319.2584
  -5647787.76247  -4376035.68444  22934574.7114                   22934571.4844
   8114483.84847   6312575.20444  23428481.0864                   23428480.8134
  -3248446.32446  -2516453.93844  23616075.0944                   23616073.2734
 11  7 27 16 34  0.0000000  0  9G03G06G13G16G20G23G19G32G07
  -7488575.82848  -5819826.69246  21079988.1414                   21079986.6254
  -4374277.15648  -3398048.18145  21906371.5004                   21906369.4454
  -8470652.37148  -6585646.63646  21045077.0784                   21045074.4734
   3705384.44548   2885886.24246  20900151.0944                   20900148.1564
   6368723.92647   4955710.45745  22541068.3674                   22541066.4924
  -4741121.30148  -3683768.65847  19923215.6954                   19923210.9454
  -5773888.14147  -4474295.63845  22910578.4924                   22910575.7074
   8172226.62946   6357569.48344  23439469.4694                   23439468.5634
  -3344830.44946  -2591558.39344  23597734.3834                   23597732.4104
 11  7 27 16 34 30.0000000  0  9G03G06G13G16G20G23G19G32G07
  -7573499.14848  -5886000.68546  21063827.7974                   21063826.0784
  -4425624.31648  -3438058.96045  21896600.4454                   21896598.3524
  -8576239.32048  -6667922.16446  21024984.9614                   21024982.4804
   3733668.62548   2907925.82446  20905533.5944                   20905530.4144
   6415599.30547   4992236.67545  22549988.3284                   22549986.2894
  -4799010.72348  -3728877.30847  19912199.9534                   19912194.8404
  -5899834.13747  -4572435.31245  22886611.8054                   22886608.9574
   8230049.87546   6402626.45444  23450472.8834                   23450472.2504
  -3441173.65647  -2666630.96544  23579400.4224                   23579398.7584
 11  7 27 16 35  0.0000000  0  9G03G06G13G16G20G23G19G32G07
  -7657902.82848  -5951769.77546  21047766.1884                   21047764.6374
  -4476436.41848  -3477652.81245  21886930.9774                   21886929.1134
  -8681535.73048  -6749971.30346  21004947.6094                   21004944.6214
   3762331.89148   2930260.81846  20910988.1174                   20910984.9024
   6462682.82047   5028925.06645  22558948.1724                   22558945.7274
  -4856412.25048  -3773605.78947  19901276.4774                   19901271.7464
  -6025621.02047  -4670450.98345  22862675.3134                   22862672.1254
   8287952.79346   6447745.47344  23461491.3054                   23461491.0044
  -3537474.52347  -2741670.58644  23561074.7974                   23561073.2704
 11  7 27 16 35 30.0000000  0  9G03G06G13G16G20G23G19G32G07
  -7741791.01648  -6017137.18746  21031803.0314                   21031801.1134
  -4526718.89847  -3516833.97545  21877362.4534                   21877360.3404
  -8786545.20748  -6831796.86146  20984964.8204                   20984962.0044
   3791365.13348   2952884.11046  20916512.8594                   20916509.6604
   6509965.11747   5065768.37645  22567945.4924                   22567943.5634
  -4913330.31648  -3817957.53947  19890445.3524                   19890440.7114
  -6151251.86747  -4768345.09945  22838768.3914                   22838765.3204
   8345925.95746   6492919.29544  23472523.3284                   23472522.8524
  -3633739.69247  -2816682.40744  23542756.2894                   23542754.5704
 11  7 27 16 36  0.0000000  0  9G03G06G13G16G20G23G19G32G07
  -6249733.13348  -4854494.65446  21315732.1094                   21315730.4884
  -3001044.07447  -2327996.44745  22167689.0634                   22167686.9734
  -7315837.14148  -5685790.57746  21264830.8364                   21264828.5634
   5396189.51248   4203396.59046  21221900.7344                   21221897.4454
   8132866.41447   6330366.73745  22876773.4924                   22876771.5944
  -3394336.48448  -2634325.98547  20179500.5944                   20179495.5784
  -4701294.29747  -3638507.97845  23114686.3364                   23114683.0164
   9979389.89846   7765748.22644  23783361.6094                   23783360.7814
  -2154541.53546  -1664060.38644  23824238.3524                   23824236.7854
 11  7 27 16 36 30.0000000  0  9G03G06G13G16G20G23G19G32G07
  -6332576.92248  -4919048.26146  21299967.2974                   21299965.4534
  -3050258.01248  -2366344.96945  22158323.8594                   22158321.8874
  -7420260.21948  -5767159.19246  21244960.1484                   21244957.3094
   5425960.31348   4226594.58646  21227566.0314                   21227563.1334
   8180542.66447   6367517.00645  22885846.2274                   22885844.1564
  -3450277.02748  -2677916.03547  20168855.5234                   20168850.2194
  -4826597.72347  -3736146.95545  23090841.6254                   23090839.0004
  10037501.24647   7811029.68544  23794419.3984                   23794419.3014
  -2250731.24647  -1739013.35744  23805933.7424                   23805932.2304
 11  7 27 16 37  0.0000000  0  9G03G06G13G16G20G23G19G32G07
  -6414896.71948  -4983193.53846  21284302.3204                   21284300.7194
  -3098937.84847  -2404277.31945  22149060.3364                   22149058.2304
  -7524387.79748  -5848297.55446  21225145.5634                   21225142.6844
   5456094.24248   4250075.56146  21233300.5234                   21233297.0594
   8228409.36347   6404815.69745  22894955.1334                   22894952.5354
  -3505728.05548  -2721124.63447  20158303.4144                   20158298.6334
  -4951734.37547  -3833655.96845  23067029.0944                   23067025.9964
  10095675.98447   7856360.55644  23805490.2034                   23805489.4694
  -2346885.25047  -1813938.50844  23787637.0944                   23787635.1174
 11  7 27 16 37 30.0000000  0  9G03G06G13G16G20G23G19G32G07
  -6496688.79748  -5046927.61046  21268737.7194                   21268735.8874
  -3147081.02047  -2441791.47945  22139899.1094                   22139897.0744
  -7628216.44148  -5929202.98546  21205387.7974                   21205385.0634
   5486589.77348   4273838.28446  21239103.9064                   21239100.0554
   8276465.00447   6442261.60545  22904100.0314                   22904097.4024
  -3560686.54348  -2763949.43747  20147844.9224                   20147840.2704
  -5076700.10547  -3931031.81945  23043248.4144                   23043246.0164
  10153912.57447   7901739.61344  23816571.9534                   23816571.7814
  -2443002.81246  -1888835.26844  23769345.8444                   23769344.8834
 11  7 27 16 38  0.0000000  0  9G03G06G13G16G20G23G19G32G07
  -6577951.65648  -5110249.31346  21253273.9614                   21253272.2384
  -3194687.35547  -2478887.32745  22130839.9534                   22130837.3984
  -7731744.32448  -6009874.04146  21185686.5864                   21185684.0944
   5517443.16448   4297879.85546  21244974.7894                   21244971.5354
   8324705.77047   6479851.77045  22913279.3674                   22913277.3054
  -3615151.55548  -2806389.71547  20137480.6954                   20137475.9924
  -5201491.60547  -4028271.91445  23019501.3754                   23019498.6994
  10212207.59447   7947164.21044  23827665.2584                   23827664.8674
  -2539084.97347  -1963704.43744  23751061.7894                   23751060.2974
 11  7 27 16 38 30.0000000  0  9G03G06G13G16G20G23G19G32G07
  -6658685.28148  -5173158.60946  21237910.7664                   21237909.0474
  -3241758.12948  -2515565.84945  22121882.4304                   22121880.6954
  -7834970.89848  -6090310.32046  21166043.4614                   21166040.8244
   5548650.07448   4322196.91646  21250913.2814                   21250910.0084
   8373126.48047   6517582.15544  22922492.9694                   22922492.0744
  -3669123.21948  -2848445.56347  20127210.4064                   20127205.6054
  -5326107.98047  -4125375.54545  22995788.0164                   22995785.1804
  10270556.38746   7992630.70143  23838768.9774                   23838768.4774
  -2635134.18446  -2038547.97944  23732784.5004                   23732783.0474
 11  7 27 16 39  0.0000000  0 10G03G06G13G16G20G23G19G32G07G10
  -6738879.87948  -5235647.89946  21222650.4844                   21222648.9574
  -3288284.30547  -2551820.01945  22113028.1254                   22113026.5984
  -7937886.05548  -6170503.95046  21146459.1254                   21146456.6914
   5580215.16448   4346793.08046  21256919.7894                   21256916.7274
   8421731.59046   6555456.19544  22931742.5084                   22931741.1134
  -3722592.89148  -2890110.25247  20117035.4924                   20117030.7734
  -5450538.63347  -4222334.44845  22972109.8054                   22972106.8954
  10328963.43047   8038142.59344  23849882.9694                   23849883.3794
  -2731143.27046  -2113360.19244  23714514.3674                   23714512.7274
   4607652.44556   3602742.13753  24402787.0704                   24402786.5274
 11  7 27 16 39 30.0000000  0 10G03G06G13G16G20G23G19G32G07G10
  -6818550.85548  -5297729.15846  21207489.3444                   21207487.8014
  -3334283.33248  -2587663.40245  22104275.5704                   22104274.1294
  -8040505.51248  -6250467.13246  21126931.3984                   21126928.7934
   5612117.54748   4371652.04646  21262990.7814                   21262987.4264
   8470499.84047   6593457.34145  22941023.0944                   22941021.3794
  -3775576.89548  -2931396.49447  20106952.9304                   20106947.8364
  -5574798.28147  -4319160.10545  22948463.8754                   22948460.6804
  10387408.30147   8083683.92744  23861005.1804                   23861005.0744
  -2827130.60546  -2188155.51444  23696248.5234                   23696246.4694
   4521840.04746   3535875.38743  24386457.2424                   24386456.3554
 11  7 27 16 40  0.0000000  0 10G03G06G13G16G20G23G19G32G07G10
  -6897693.62148  -5359398.82846  21192428.6484                   21192427.4264
  -3379751.44547  -2623093.08945  22095623.2974                   22095621.8714
  -8142824.09048  -6330195.88046  21107460.7814                   21107457.6994
   5644357.60948   4396774.15646  21269125.9534                   21269122.5594
   8519430.87947   6631585.37545  22950334.8754                   22950332.8284
  -3828070.62948  -2972300.70747  20096963.6804                   20096958.7894
  -5698880.98447  -4415847.88245  22924851.5634                   22924848.7544
  10445890.76247   8129254.54544  23872134.4844                   23872134.1174
  -2923093.74247  -2262931.98544  23677987.1484                   23677985.3794
   4436494.93446   3469372.73243  24370217.5704                   24370215.7234
 11  7 27 16 40 30.0000000  0 10G03G06G13G16G20G23G19G32G07G10
  -6976307.07448  -5420656.05246  21177469.1334                   21177467.6054
  -3424688.73047  -2658109.15745  22087072.1254                   22087070.6844
  -8244840.35948  -6409689.06846  21088047.7814                   21088045.1524
   5676931.00848   4422156.00646  21275324.2664                   21275321.1994
   8568520.66447   6669837.09945  22959676.9774                   22959674.4304
  -3880074.03948  -3012822.86247  20087067.8054                   20087062.8324
  -5822784.67647  -4512396.17045  22901273.1414                   22901270.1764
  10504407.00047   8174851.51344  23883269.0004                   23883269.4064
  -3019034.00447  -2337690.60444  23659730.3134                   23659728.5354
   4351616.99246   3403234.13143  24354065.2424                   24354064.6414
 11  7 27 16 41  0.0000000  0 10G03G06G13G16G20G23G19G32G07G10
  -7054377.89548  -5481490.43746  21162612.8524                   21162611.3524
  -3469083.46147  -2692702.43045  22078623.8364                   22078622.6334
  -8346540.99248  -6488936.30646  21068694.9304                   21068692.2074
   5709846.13748   4447804.13546  21281587.8674                   21281584.6884
   8617777.00447   6708218.62445  22969049.5634                   22969047.4344
  -3931574.48448  -3052953.07447  20077267.5314                   20077262.8594
  -5946495.05947  -4608793.83145  22877731.9384                   22877728.8594
  10562965.52047   8220481.45243  23894412.7974                   23894413.3324
  -3114941.49247  -2412423.69944  23641479.8524                   23641477.8954
   4267218.06646   3337468.77943  24338004.9304                   24338003.8134
 11  7 27 16 41 30.0000000  0 10G03G06G13G16G20G23G19G32G07G10
  -7131905.59848  -5541901.62546  21147859.8914                   21147857.8164
  -3512936.41047  -2726873.56645  22070279.0164                   22070277.3554
  -8447925.07448  -6567936.88146  21049401.6414                   21049399.1214
   5743098.59048   4473715.11846  21287915.4304                   21287912.4534
   8667195.27047   6746726.30445  22978453.2584                   22978451.3324
  -3982572.10548  -3092691.48447  20067562.7114                   20067557.9964
  -6070010.74247  -4705039.78145  22854227.9924                   22854225.0394
  10621561.64147   8266140.63244  23905563.8754                   23905563.4344
  -3210817.73047  -2487132.43144  23623235.3134                   23623233.3834
   4183298.02046   3272076.56043  24322034.7974                   24322034.2034
 11  7 27 16 42  0.0000000  0 10G03G06G13G16G20G23G19G32G07G10
  -7208889.18048  -5601888.82146  21133210.1334                   21133208.4064
  -3556247.72747  -2760622.62045  22062037.1254                   22062035.1804
  -8548991.18748  -6646689.67646  21030169.6804                   21030166.9024
   5776684.68048   4499886.07046  21294307.0944                   21294303.6684
   8716771.24247   6785356.87545  22987887.9144                   22987886.0164
  -4033066.45348  -3132037.73547  20057954.1094                   20057949.1884
  -6193329.37147  -4801132.18445  22830761.0164                   22830757.8054
  10680191.75047   8311826.30944  23916720.4304                   23916720.7074
  -3306663.92247  -2561817.73744  23604996.6804                   23604994.8444
   4099857.17646   3207057.78443  24306156.7734                   24306156.5234
 11  7 27 16 42 30.0000000  0 10G03G06G13G16G20G23G19G32G07G10
  -7285322.20748  -5661447.01446  21118665.6724                   21118663.9344
  -3599011.99247  -2793945.41445  22053899.1334                   22053897.3244
  -8649732.28948  -6725189.24146  21010999.3914                   21010996.7074
   5810606.09448   4526318.30746  21300762.0784                   21300758.6524
   8766506.03947   6824111.19545  22997351.8984                   22997349.7384
  -4083051.31248  -3170986.97747  20048442.5164                   20048437.6024
  -6316443.48847  -4897065.21645  22807333.0944                   22807329.9844
  10738857.60547   8357539.85844  23927884.6644                   23927884.4574
  -3402476.07047  -2636476.52344  23586763.9384                   23586762.6374
   4016900.87546   3142416.55243  24290370.3674                   24290369.7074
 11  7 27 16 43  0.0000000  0 10G03G06G13G16G20G23G19G32G07G10
  -7361204.95748  -5720576.41646  21104225.7194                   21104223.9064
  -3641231.09847  -2826843.41245  22045865.0004                   22045863.3444
  -8750148.06648  -6803435.29846  20991890.7814                   20991888.1914
   5844857.78148   4553007.90646  21307279.8444                   21307276.6844
   8816394.48447   6862985.27344  23006845.2974                   23006843.0984
  -4132527.79748  -3209540.09647  20039027.3204                   20039022.7304
  -6439351.93047  -4992838.00245  22783944.6644                   22783941.0314
  10797554.09847   8403277.22444  23939054.0234                   23939054.3984
  -3498256.90247  -2711110.93144  23568537.1644                   23568535.8794
   3934428.00846   3078152.02543  24274676.1414                   24274675.5864
 11  7 27 16 43 30.0000000  0 10G03G06G13G16G20G23G19G32G07G10
  -7436537.59848  -5779277.14846  21089890.0864                   21089888.2194
  -3682906.12947  -2859317.45845  22037934.5234                   22037933.4064
  -8850238.57048  -6881427.88046  20972844.1174                   20972841.4264
   5879434.85248   4579951.06746  21313859.1094                   21313856.6484
   8866431.37547   6901974.99644  23016366.6094                   23016364.8874
  -4181496.50848  -3247697.53247  20029709.2894                   20029704.3984
  -6562053.66447  -5088449.70345  22760594.7664                   22760592.1884
  10856276.41446   8449034.77244  23950228.2584                   23950228.9304
  -3594008.87547  -2785722.80744  23550316.9844                   23550314.8204
   3852437.63746   3014263.43143  24259074.0784                   24259073.2234
 11  7 27 16 44  0.0000000  0 10G03G06G13G16G20G23G19G32G07G10
  -7511313.82848  -5837544.32546  21075660.9774                   21075659.3284
  -3724032.68747  -2891364.10945  22030108.6724                   22030107.5354
  -8949997.52048  -6959162.11946  20953860.6024                   20953857.9454
   5914338.33248   4607148.55546  21320501.4224                   21320498.2704
   8916617.48847   6941080.97844  23025917.4144                   23025914.8954
  -4229952.17248  -3285455.20147  20020488.1254                   20020483.3984
  -6684541.77047  -5183894.93745  22737286.1414                   22737282.9964
  10915025.85946   8494813.43243  23961408.3984                   23961408.4924
  -3689728.40246  -2860309.43744  23532101.5164                   23532099.5354
   3770934.47746   2950754.52443  24243564.7194                   24243563.8554
 11  7 27 16 44 30.0000000  0 10G03G06G13G16G20G23G19G32G07G10
  -7585524.60248  -5895370.88946  21061539.0394                   21061537.3634
  -3764602.52347  -2922976.95145  22022387.9384                   22022387.0234
  -9049414.92648  -7036630.22946  20934942.3674                   20934939.6914
   5949572.98848   4634604.10546  21327206.4144                   21327203.0124
   8966957.20747   6980306.67044  23035496.5164                   23035494.4384
  -4277885.86748  -3322806.13647  20011366.5474                   20011361.9734
  -6806805.55947  -5279165.38745  22714020.4844                   22714016.9494
  10973807.04746   8540616.80843  23972593.7814                   23972594.3364
  -3785408.60247  -2934865.38144  23513894.2424                   23513892.2584
   3689927.23846   2887632.02843  24228149.4924                   24228148.4804
 11  7 27 16 45  0.0000000  0 10G03G06G13G16G20G23G19G32G07G10
  -7659174.77748  -5952760.61946  21047523.7734                   21047522.0594
  -3804622.22347  -2954161.11845  22014772.6484                   22014771.6644
  -9148495.52048  -7113835.87846  20916087.6644                   20916084.7464
   5985128.62548   4662309.76946  21333972.3914                   21333969.6484
   9017439.93047   7019643.78644  23045103.2664                   23045100.8714
  -4325303.59848  -3359755.02947  20002343.4694                   20002338.7424
  -6928848.91047  -5374264.05445  22690795.6954                   22690792.7974
  11032609.83246   8586437.04543  23983784.0084                   23983784.5204
  -3881057.02047  -3009396.58244  23495692.9454                   23495691.2584
   3609409.66846   2824891.12043  24212827.1024                   24212826.8054
 11  7 27 16 45 30.0000000  0 10G03G06G13G16G20G23G19G32G07G10
  -7732266.45748  -6009715.16246  21033615.4224                   21033613.2384
  -3844095.02747  -2984919.13045  22007261.5864                   22007259.9454
  -9247240.62548  -7190780.10146  20897297.1334                   20897294.2704
   6020998.78948   4690260.52146  21340798.6094                   21340795.2814
   9068058.97747   7059087.14144  23054736.0554                   23054734.4494
  -4372207.88748  -3396303.83147  19993417.7114                   19993412.8284
  -7050672.66447  -5469191.62545  22667614.0474                   22667610.9534
  11091427.68446   8632269.07043  23994976.7274                   23994976.4264
  -3976677.61347  -3083906.09944  23477496.8284                   23477495.1764
   3529378.84046   2762529.49743  24197598.0554                   24197597.6954
 11  7 27 16 46  0.0000000  0 10G03G06G13G16G20G23G19G32G07G10
  -7804792.48448  -6066228.93646  21019814.0704                   21019811.8754
  -3883015.03147  -3015246.39645  21999855.1804                   21999853.5354
  -9345642.68748  -7267457.02346  20878571.7664                   20878569.1524
   6057185.98448   4718458.32146  21347684.7664                   21347681.4104
   9118816.57047   7098638.46544  23064394.7344                   23064392.4144
  -4418591.70748  -3432447.06047  19984591.3134                   19984586.5514
  -7172268.09847  -5563941.26645  22644474.8204                   22644471.7934
  11150263.46547   8678114.94543  24006173.0944                   24006173.2344
  -4072265.74647  -3158390.31944  23459307.4774                   23459305.4614
   3449841.14846   2700552.08643  24182462.4064                   24182462.0744
 11  7 27 16 46 30.0000000  0 10G03G06G13G16G20G23G19G32G07G10
  -7876753.82048  -6122302.69346  21006120.2344                   21006118.1094
  -3921384.46947  -3045144.66145  21992553.9614                   21992552.3134
  -9443702.29748  -7343867.10646  20859911.6414                   20859908.9534
   6093684.41848   4746898.63046  21354630.1024                   21354626.9064
   9169706.40247   7138292.83444  23074079.0314                   23074077.1804
  -4464456.95748  -3468186.22647  19975863.4144                   19975858.7934
  -7293635.21147  -5658513.03145  22621379.3524                   22621376.0474
  11209111.50847   8723970.44143  24017371.8204                   24017371.0824
  -4167824.44147  -3232851.61444  23441122.5234                   23441120.9144
   3370794.53946   2638957.31343  24167420.4614                   24167419.5434
 11  7 27 16 47  0.0000000  0 10G03G06G13G16G20G23G19G32G07G10
  -7948146.48448  -6177933.32746  20992534.3754                   20992532.6804
  -3959200.42647  -3074611.65345  21985357.3524                   21985356.0234
  -9541414.33648  -7420006.35646  20841317.9844                   20841315.2894
   6130493.57848   4775581.07246  21361634.5944                   21361631.3524
   9220727.75846   7178049.65444  23083787.8364                   23083785.7974
  -4509800.16048  -3503518.60047  19967234.9144                   19967230.1054
  -7414768.37147  -5752902.46545  22598328.7814                   22598325.5124
  11267971.16847   8769835.01144  24028572.5474                   24028572.4184
  -4263351.81647  -3307288.47544  23422944.0474                   23422943.1804
   3292242.47747   2577748.03243  24152472.4454                   24152471.7974
 11  7 27 16 47 30.0000000  0 10G03G06G13G16G20G23G19G32G07G10
  -8018970.39147  -6233120.78446  20979056.8914                   20979055.1604
  -3996464.71947  -3103648.75545  21978266.3674                   21978264.8444
  -9638778.74647  -7495874.72046  20822789.9774                   20822787.0124
   6167608.86748   4804502.05746  21368697.2504                   21368694.2774
   9271875.55546   7217905.00044  23093520.8834                   23093519.2194
  -4554621.91048  -3538444.64447  19958705.6884                   19958700.8364
  -7535666.36347  -5847108.64345  22575322.4924                   22575319.9064
  11326837.64547   8815704.88843  24039774.0314                   24039774.3164
  -4358850.14146  -3381702.72745  23404772.0084                   23404770.0044
   3214183.39146   2516922.75643  24137618.2344                   24137616.8244
 11  7 27 16 48  0.0000000  0 10G03G06G13G16G20G23G19G32G07G10
  -8089223.47748  -6287863.43646  20965688.2974                   20965686.5944
  -4033176.56647  -3132255.37645  21971280.3444                   21971278.4384
  -9735792.52048  -7571469.85546  20804328.6484                   20804325.8244
   6205027.58248   4833659.48446  21375817.8134                   21375814.8914
   9323146.91046   7257856.67944  23103276.9454                   23103275.5864
  -4598921.11348  -3572963.51347  19950275.4694                   19950271.1374
  -7656325.91047  -5941129.01945  22552361.6644                   22552358.6564
  11385708.66447   8861578.26544  24050977.0394                   24050977.1454
  -4454319.67647  -3456094.56144  23386604.2424                   23386602.8054
   3136618.74246   2456482.79743  24122858.4144                   24122856.9184
 11  7 27 16 48 30.0000000  0 10G03G06G13G16G20G23G19G32G07G10
  -8158903.82047  -6342159.80046  20952428.5474                   20952426.9414
  -4069334.84447  -3160430.64945  21964399.4384                   21964398.1334
  -9832453.30148  -7646789.95446  20785935.1094                   20785932.0704
   6242747.41848   4863051.54546  21382996.0164                   21382992.9144
   9374539.14047   7297902.53244  23113056.8984                   23113055.5044
  -4642695.48848  -3607073.42147  19941945.8134                   19941940.9104
  -7776743.39547  -6034960.77845  22529447.0474                   22529443.7734
  11444581.93846   8907453.39044  24062180.6174                   24062180.8244
  -4549760.30147  -3530463.85244  23368443.1024                   23368440.9024
   3059549.59846   2396428.90943  24108192.5634                   24108191.2464
 11  7 27 16 49  0.0000000  0 10G03G06G13G16G20G23G19G32G07G10
  -8228008.53948  -6396007.61546  20939278.2584                   20939276.7114
  -4104938.22347  -3188173.54045  21957624.6334                   21957622.6954
  -9928757.55148  -7721832.21846  20767608.8834                   20767606.1334
   6280766.62548   4892676.89046  21390230.4844                   21390227.2114
   9426050.21946   7338040.94744  23122859.7424                   23122857.9104
  -4685942.96148  -3640772.75847  19933716.1254                   19933711.2384
  -7896914.74247  -6128600.74345  22506579.0864                   22506576.0434
  11503455.75046   8953328.96444  24073383.6414                   24073384.0514
  -4645171.59347  -3604810.30544  23350286.5634                   23350284.9024
   2982977.91446   2336762.72643  24093621.2664                   24093620.3204
 11  7 27 16 49 30.0000000  0 10G03G06G13G16G20G23G19G32G07G10
  -8296541.37547  -6449409.83446  20926237.1254                   20926235.5594
  -4139991.64147  -3215487.89445  21950954.0084                   21950952.3834
 -10024707.95347  -7796598.76746  20749350.6484                   20749347.4024
   6319076.70348   4922528.88546  21397520.6484                   21397517.4614
   9477671.68446   7378265.39944  23132682.9144                   23132681.0044
  -4728667.93748  -3674064.94247  19925585.7034                   19925580.8524
  -8016841.94947  -6222050.47345  22483758.0164                   22483754.6334
  11562321.96546   8999198.59143  24084585.9774                   24084586.1294
  -4740558.81247  -3679137.91444  23332135.3524                   23332133.1484
   2906899.29746   2277480.70843  24079144.0944                   24079142.7304
 11  7 27 16 50  0.0000000  0 10G03G06G13G16G20G23G19G32G07G10
  -8364493.79347  -6502359.76546  20913306.0704                   20913304.4494
  -4174487.82447  -3242368.05345  21944389.7734                   21944388.2464
 -10120295.32048  -7871082.42546  20731160.6564                   20731157.7774
   6357681.89148   4952610.83046  21404866.9144                   21404863.6254
   9529407.25446   7418578.75144  23142527.2664                   23142525.6294
  -4770862.09848  -3706943.52047  19917556.5234                   19917551.3404
  -8136515.16447  -6315302.27445  22460984.9064                   22460981.7584
  11621184.88746   9045065.66744  24095787.0314                   24095787.4184
  -4835915.52047  -3753441.79744  23313989.6024                   23313987.3914
   2831321.30946   2218588.74643  24064761.7504                   24064760.8404
 11  7 27 16 50 30.0000000  0 10G03G06G13G16G20G23G19G32G07G10
  -8431863.80547  -6554855.87546  20900486.2194                   20900484.0944
  -4208426.19947  -3268813.53545  21937931.3674                   21937929.7274
 -10215517.20748  -7945281.29646  20713040.1724                   20713037.7114
   6396579.85248   4982920.91846  21412269.3444                   21412266.1524
   9581253.82447   7458978.64444  23152394.0234                   23152391.8164
  -4812524.32848  -3739407.59547  19909628.4144                   19909623.4804
  -8255930.81647  -6408353.38245  22438260.5084                   22438257.4064
  11680041.81646   9090928.04644  24106987.5164                   24106987.9534
  -4931242.02046  -3827722.16044  23295849.1484                   23295847.2304
   2756244.78546   2160087.63943  24050475.0864                   24050473.9384
 11  7 27 16 51  0.0000000  0 10G03G06G13G16G20G23G19G32G07G10
  -8498656.93447  -6606902.46646  20887775.8204                   20887774.0394
  -4241813.92247  -3294829.94045  21931577.9534                   21931576.2274
 -10310378.49647  -8019199.17246  20694988.7974                   20694985.7624
   6435760.35248   5013451.15146  21419725.0784                   21419721.8164
   9633201.09447   7499456.93044  23162279.3134                   23162277.0314
  -4853660.98848  -3771462.13647  19901800.5314                   19901795.5004
  -8375093.26647  -6501207.19345  22415584.8594                   22415581.3874
  11738882.57046   9136777.81944  24118184.3754                   24118185.2384
  -5026545.97347  -3901984.94944  23277713.1954                   23277711.3674
   2681663.37546   2101972.28443  24036283.6334                   24036282.4774
 11  7 27 16 51 30.0000000  0 10G03G06G13G16G20G23G19G32G07G10
  -8564868.00847  -6658495.51346  20875175.8284                   20875174.3364
  -4274646.77347  -3320413.99245  21925330.0784                   21925328.5314
 -10404873.18747  -8092831.40946  20677006.8284                   20677004.4774
   6475224.01248   5044202.03346  21427234.7894                   21427231.7194
   9685249.58247   7540014.15744  23172183.8524                   23172182.0434
  -4894267.13748  -3803103.29147  19894073.1174                   19894068.3954
  -8493995.59047  -6593858.31845  22392958.2894                   22392955.1724
  11797708.48447   9182616.08444  24129378.8674                   24129379.2814
  -5121823.82046  -3976227.39344  23259582.1954                   23259581.0514
   2607581.54346   2044246.18643  24022185.3054                   24022185.2384
 11  7 27 16 52  0.0000000  0 10G03G06G13G16G20G23G19G32G07G10
  -8630497.13347  -6709635.09346  20862687.3914                   20862685.6214
  -4306925.98447  -3345566.62545  21919187.5704                   21919186.2624
 -10499000.13747  -8166177.05246  20659095.2584                   20659092.5904
   6514967.00048   5075170.58046  21434797.6414                   21434794.3954
   9737395.05947   7580646.92244  23182106.4304                   23182104.9844
  -4934343.06248  -3834331.29847  19886447.0474                   19886442.2854
  -8612636.25047  -6686305.53345  22370381.4774                   22370378.4454
  11856515.41846   9228439.47844  24140569.2274                   24140570.3524
  -5217077.51646  -4050451.02244  23241455.7814                   23241454.5514
   2533998.50846   1986908.77843  24008183.3444                   24008182.6684
 11  7 27 16 52 30.0000000  0 10G03G06G13G16G20G23G19G32G07G10
  -8695541.69547  -6760319.17946  20850309.7114                   20850307.6994
  -4338650.64847  -3370287.15245  21913150.6414                   21913148.6884
 -10592756.43448  -8239233.91046  20641253.8984                   20641251.5314
   6554987.09848   5106355.03346  21442413.0784                   21442410.1334
   9789635.09047   7621353.36144  23192047.5004                   23192045.8164
  -4973886.81648  -3865144.61147  19878922.2974                   19878917.2074
  -8731011.27047  -6778545.76245  22347855.4844                   22347852.1564
  11915301.21146   9274246.47844  24151755.9844                   24151756.5044
  -5312306.57046  -4124655.46744  23223334.1334                   23223332.7344
   2460915.68446   1929961.18443  23994275.6414                   23994275.4064
 11  7 27 16 53  0.0000000  0 10G03G06G13G16G20G23G19G32G07G10
  -8759996.15247  -6810543.42346  20838044.2734                   20838042.6994
  -4369816.57447  -3394572.30145  21907219.9144                   21907218.2344
 -10686135.89848  -8311997.11946  20623484.7344                   20623481.6134
   6595285.41448   5137756.29746  21450081.6954                   21450078.4844
   9841970.20746   7662133.93044  23202006.6644                   23202004.9694
  -5012893.76648  -3895539.64147  19871499.4844                   19871494.6524
  -8849113.49647  -6870573.42545  22325381.6254                   22325378.1414
  11974067.27346   9320038.09343  24162939.3204                   24162939.7934
  -5407507.33246  -4198837.83344  23205218.1804                   23205216.8484
   2388337.44946   1873406.74843  23980464.6804                   23980463.9264
 11  7 27 16 53 30.0000000  0 10G03G06G13G16G20G23G19G32G07G10
  -8823860.26247  -6860307.64946  20825891.1954                   20825889.8204
  -4400424.66847  -3418422.76045  21901395.1884                   21901393.3324
 -10779136.99647  -8384465.49146  20605787.2584                   20605784.2854
   6635857.90648   5169371.20846  21457802.6804                   21457799.3054
   9894396.17646   7702985.25044  23211983.1954                   23211981.1334
  -5051363.67248  -3925516.20647  19864178.7504                   19864173.8444
  -8966940.89847  -6962386.94545  22302959.6564                   22302956.1844
  12032809.62947   9365811.18944  24174118.2034                   24174118.2464
  -5502681.07447  -4272999.16344  23187107.9454                   23187106.1134
   2316263.77746   1817245.43543  23966750.0784                   23966748.3204
 11  7 27 16 54  0.0000000  0 10G03G06G13G16G20G23G19G32G07G10
  -8887132.16047  -6909610.43946  20813851.1564                   20813849.6844
  -4430474.35247  -3441838.10245  21895677.1644                   21895675.2274
 -10871757.56648  -8456637.36146  20588161.6804                   20588158.7934
   6676702.26248   5201197.96146  21465575.0314                   21465571.9104
   9946910.28946   7743905.26944  23221976.6024                   23221974.7664
  -5089295.48448  -3955073.46447  19856960.5634                   19856955.9144
  -9084490.19947  -7053983.74745  22280590.7734                   22280587.2934
  12091526.00846   9411564.10043  24185291.0314                   24185291.2504
  -5597827.90646  -4347139.52844  23169001.4924                   23169000.1914
   2244695.35246   1761477.83643  23953130.2734                   23953129.4344
 11  7 27 16 54 30.0000000  0 10G03G06G13G16G20G23G19G32G07G10
  -8949811.03547  -6958451.10546  20801924.0554                   20801922.3554
  -4459966.03547  -3464818.62145  21890064.6804                   21890063.2384
 -10963995.00848  -8528510.68146  20570609.3674                   20570606.6724
   6717815.19148   5233233.99546  21473398.3284                   21473395.4224
   9999509.08046   7784891.24244  23231985.2664                   23231983.9454
  -5126688.75848  -3984211.09547  19849844.9694                   19849840.1804
  -9201758.71547  -7145361.76545  22258275.6254                   22258271.7544
  12150213.35546   9457294.33443  24196458.9774                   24196459.6484
  -5692948.55947  -4421259.47645  23150901.2584                   23150899.3634
   2173632.06646   1706103.86243  23939607.8594                   23939606.6604
 11  7 27 16 55  0.0000000  0 10G03G06G13G16G20G23G19G32G07G10
  -9011896.58247  -7006829.44846  20790109.3204                   20790108.0634
  -4488900.97747  -3487365.32745  21884559.1644                   21884556.9264
 -11055848.79348  -8600085.05346  20553130.4064                   20553127.3404
   6759192.52348   5265476.05646  21481272.1334                   21481269.4264
  10052188.27046   7825939.89244  23242010.1644                   23242008.7974
  -5163543.75448  -4012929.29047  19842831.7424                   19842826.7894
  -9318744.35947  -7236519.36445  22236013.9454                   22236010.0084
  12208867.66446   9502998.81143  24207620.1024                   24207620.5084
  -5788044.74247  -4495360.37545  23132804.7114                   23132802.5824
   2103073.14846   1651122.94843  23926180.4454                   23926180.3594
 11  7 27 16 55 30.0000000  0 10G03G06G13G16G20G23G19G32G07G10
  -9073383.02748  -7054740.95946  20778408.8284                   20778407.3524
  -4517274.41447  -3509474.50745  21879159.4694                   21879157.5474
 -11147311.98048  -8671355.06946  20535725.7034                   20535722.9804
   6800836.08248   5297925.55046  21489196.7274                   21489193.8914
  10104948.87546   7867051.98844  23252050.4304                   23252048.1484
  -5199854.87548  -4041223.69047  19835922.1334                   19835917.3324
  -9435439.91447  -7327450.91045  22213806.9844                   22213803.5594
  12267490.63346   9548678.94743  24218776.1024                   24218777.0124
  -5883112.32046  -4569438.95945  23114714.1094                   23114712.5594
   2033023.85546   1596539.10543  23912850.3834                   23912850.4574
 11  7 27 16 56  0.0000000  0 10G03G06G13G16G20G23G19G32G07G10
  -9134278.64848  -7102192.09246  20766820.7114                   20766819.2774
  -4545096.38747  -3531153.98245  21873864.9924                   21873863.1564
 -11238392.03948  -8742326.52246  20518393.7664                   20518391.0554
   6842733.28148   5330572.69546  21497169.5704                   21497166.6954
  10157778.20346   7908217.62044  23262103.6484                   23262101.7734
  -5235631.32048  -4069101.46147  19829113.7814                   19829109.1564
  -9551852.14147  -7418161.67845  22191654.4844                   22191650.6414
  12326069.59846   9594324.72544  24229923.8914                   24229924.0824
  -5978161.37946  -4643503.13645  23096626.5704                   23096624.6294
   1963474.71546   1542344.96843  23899615.6484                   23899615.7704
 11  7 27 16 56 30.0000000  0 10G03G06G13G16G20G23G19G32G07G10
  -9194571.11748  -7149173.22946  20755347.8284                   20755345.9924
  -4572355.37947  -3552394.74045  21868678.4384                   21868676.3364
 -11329075.23048  -8812988.73046  20501137.1094                   20501134.4734
   6884892.46148   5363423.97846  21505192.3284                   21505189.2854
  10210684.57446   7949443.30644  23272170.8444                   23272169.5904
  -5270860.80548  -4096553.02047  19822409.8914                   19822404.8914
  -9667966.52747  -7508640.35445  22169558.2424                   22169555.3054
  12384613.47746   9639943.12944  24241064.0314                   24241064.5744
  -6073180.70347  -4717544.13644  23078545.2344                   23078542.9454
   1894437.73846   1488549.93843  23886479.2194                   23886477.5044
 11  7 27 16 57  0.0000000  0 10G03G06G13G16G20G23G19G32G07G10
  -9254271.80547  -7195693.24746  20743987.0314                   20743984.9694
  -4599064.02747  -3573206.68945  21863595.9534                   21863593.5234
 -11419372.05948  -8883349.88646  20483954.2734                   20483951.3404
   6927298.02048   5396467.23946  21513261.8524                   21513258.6524
  10263652.15246   7990716.64844  23282250.2734                   23282248.6254
  -5305554.94148  -4123587.42247  19815807.8524                   19815803.2114
  -9783792.66847  -7598894.44445  22147517.4774                   22147514.3324
  12443107.01246   9685522.38143  24252194.6484                   24252196.3594
  -6168183.34446  -4791572.13044  23060466.2194                   23060464.5784
   1825900.70346   1435144.47643  23873437.0004                   23873435.1484
 11  7 27 16 57 30.0000000  0 10G03G06G13G16G20G23G19G32G07G10
  -9313367.54347  -7241741.86046  20732741.4384                   20732739.2894
  -4625210.82047  -3593580.80745  21858619.8754                   21858618.0904
 -11509268.62548  -8953399.15546  20466847.2114                   20466844.7854
   6969958.92648   5429709.47946  21521380.1804                   21521376.7814
  10316689.34447   8032044.25844  23292343.4534                   23292341.4574
  -5339701.63348  -4150195.25547  19809310.0554                   19809304.9884
  -9899315.71547  -7688912.35245  22125534.1334                   22125531.0084
  12501558.71546   9731068.99043  24263318.3134                   24263318.9454
  -6263158.33247  -4865578.58245  23042393.1334                   23042391.7384
   1757875.55546   1382137.91143  23860491.8754                   23860490.2274
 11  7 27 16 58  0.0000000  0 10G03G06G13G16G20G23G19G32G07G10
  -7796433.35947  -6059715.22846  21021404.8364                   21021402.3834
  -3075373.10947  -2385915.05645  22153544.2814                   22153542.2814
 -10023337.79748  -7795530.96946  20749610.8134                   20749607.8134
   8588293.02048   6690749.00746  21829338.5474                   21829335.3404
  11945213.02047   9301023.68244  23602240.8204                   23602239.3714
  -3797876.94548  -2948773.44047  20102709.5234                   20102704.8054
  -8439107.07447  -6551087.39345  22403402.6484                   22403399.6294
  14135386.16846  11004181.14243  24574225.5084                   24574226.1094
  -4782680.66047  -3711959.55445  23324118.7504                   23324116.9534
   3265786.79746   2557133.68843  24147437.2814                   24147436.9064
 11  7 27 16 58 30.0000000  0 10G03G06G13G16G20G23G19G32G07G10
  -7854318.68448  -6104820.67746  21010389.3444                   21010387.0124
  -3100399.10547  -2405415.83245  22148781.9924                   22148779.8524
 -10112429.59448  -7864953.12946  20732656.8134                   20732654.0704
   8631453.82048   6724380.77845  21837552.0004                   21837548.6604
  11998377.23846   9342450.24244  23612357.6804                   23612356.8754
  -3830928.83648  -2974528.17047  20096420.0634                   20096415.1764
  -8554017.94147  -6640628.28945  22381536.1254                   22381532.9224
  14193744.05146  11049654.61743  24585330.7194                   24585331.5474
  -4877603.21547  -3785925.13745  23306055.6954                   23306054.0634
   3198783.79746   2504923.59843  24134687.2424                   24134686.5474
 11  7 27 16 59  0.0000000  0 10G03G06G13G16G20G23G19G32G07G10
  -7911604.11347  -6149458.67546  20999488.2894                   20999486.2304
  -3124872.09447  -2424485.68945  22144125.0474                   22144123.6604
 -10201122.91847  -7934064.80746  20715779.2194                   20715776.4924
   8674853.15248   6758198.40746  21845810.5314                   21845807.5434
  12051593.57046   9383917.41844  23622485.0784                   23622483.5944
  -3863439.37148  -2999861.07647  20090233.1644                   20090228.8054
  -8668625.35547  -6729932.73245  22359726.5394                   22359723.1054
  14252044.00846  11095083.06643  24596425.7034                   24596425.8014
  -4972507.20347  -3859876.23545  23287996.0234                   23287993.8914
   3132285.49646   2453106.74643  24122032.8594                   24122032.6334
 11  7 27 16 59 30.0000000  0 10G03G06G13G16G20G23G19G32G07G10
  -7968284.88348  -6193625.50346  20988702.1254                   20988699.9964
  -3148788.64847  -2443121.98145  22139573.4844                   22139572.3754
 -10289411.94948  -8002861.44946  20698978.3444                   20698975.7894
   8718491.61348   6792202.39045  21854114.6884                   21854111.2154
  12104862.09446   9425425.28744  23632621.5864                   23632619.9024
  -3895404.26648  -3024768.79847  20084150.6484                   20084145.9144
  -8782922.57847  -6818995.45745  22337976.7344                   22337973.3634
  14310286.37946  11140466.54843  24607508.6024                   24607509.1334
  -5067389.39847  -3933810.41745  23269940.8674                   23269938.4614
   3066295.73046   2401686.17143  24109475.5084                   24109474.6484
 11  7 27 17  0  0.0000000  0  9G03G06G13G16G20G23G19G07G10
  -8024360.35247  -6237320.68146  20978031.3054                   20978029.2344
  -3172149.69947  -2461325.39245  22135128.1174                   22135126.4184
 -10377295.00048  -8071341.73446  20682254.8754                   20682252.0274
   8762365.82048   6826390.07345  21862463.4694                   21862460.4264
  12158179.12546   9466970.93144  23642767.6254                   23642765.4804
  -3926823.47348  -3049251.30647  20078171.9614                   20078167.2424
  -8896907.19547  -6907814.61546  22316286.1724                   22316282.8554
  -5162250.83647  -4007728.39545  23251888.8054                   23251886.7544
   3000814.00446   2350661.44143  24097015.5164                   24097014.5004
 11  7 27 17  0 30.0000000  0  9G03G06G13G16G20G23G19G07G10
  -8079828.09848  -6280542.30246  20967476.3834                   20967474.0664
  -3194953.71147  -2479094.76445  22130788.8984                   22130787.2034
 -10464768.34448  -8139502.77546  20665609.1334                   20665606.4104
   8806474.43848   6860760.41945  21870857.2894                   21870853.7624
  12211543.01246   9508553.13344  23652921.8444                   23652920.5474
  -3957694.80148  -3073306.90647  20072297.1564                   20072292.4224
  -9010574.87147  -6996386.79446  22294656.1094                   22294652.5944
  -5257090.17647  -4081629.14345  23233841.7274                   23233839.3674
   2935841.89546   2300033.85743  24084651.4534                   24084650.5354
 11  7 27 17  1  0.0000000  0  9G03G06G13G16G20G23G19G07G10
  -8134676.24648  -6323281.11446  20957038.7194                   20957036.9734
  -3217190.29747  -2496421.96645  22126557.4064                   22126555.7114
 -10551819.18448  -8207334.58446  20649043.8984                   20649041.0704
   8850825.52048   6895319.67846  21879296.7424                   21879293.9064
  12264961.55946   9550177.89843  23663086.9454                   23663085.6094
  -3988007.05948  -3096926.84847  20066528.7734                   20066524.3834
  -9123911.80947  -7084701.24645  22273088.3834                   22273085.2384
  -5351896.89847  -4155504.48145  23215800.3284                   23215798.3834
   2871390.49646   2249811.95143  24072387.5084                   24072385.3594
 11  7 27 17  1 30.0000000  0  9G03G06G13G16G20G23G19G07G10
  -8188905.35947  -6365537.56246  20946719.3204                   20946717.6524
  -3238861.19947  -2513308.40145  22122433.4304                   22122431.9384
 -10638446.40248  -8274836.31246  20632559.2424                   20632556.4844
   8895414.85548   6930064.59645  21887782.2504                   21887779.4494
  12318430.25847   9591841.69044  23673262.4844                   23673260.9024
  -4017760.77348  -3120111.57347  20060866.8914                   20060862.3634
  -9236916.48447  -7172756.80746  22251583.9144                   22251581.2074
  -5446672.74247  -4229355.76445  23197765.0634                   23197763.7504
   2807459.18846   2199995.37443  24060221.1254                   24060219.8954
 11  7 27 17  2  0.0000000  0  9G03G06G13G16G20G23G19G07G10
  -8242515.05548  -6407311.35346  20936517.7424                   20936515.9494
  -3259967.02747  -2529754.50645  22118417.5704                   22118416.1524
 -10724648.49648  -8342006.77346  20616155.8204                   20616152.3954
   8940239.13348   6964992.58846  21896312.1804                   21896309.2154
  12371945.68846   9633541.95244  23683446.2894                   23683444.6644
  -4046955.94148  -3142861.06347  20055311.3914                   20055306.7384
  -9349586.30547  -7260551.43046  22230143.9924                   22230140.5514
  -5541418.36747  -4303183.49245  23179735.5004                   23179733.7934
   2744046.91846   2150583.22343  24048154.0164                   24048152.0744
 11  7 27 17  2 30.0000000  0  9G03G06G13G16G20G23G19G07G10
  -8295505.94148  -6448602.95546  20926433.9384                   20926432.3014
  -3280509.55947  -2545761.68545  22114508.3524                   22114506.3914
 -10810424.77048  -8408845.42546  20599833.0864                   20599830.0704
   8985294.18848   7000100.40545  21904885.6414                   21904882.5354
  12425502.92246   9675274.73744  23693638.0784                   23693636.2814
  -4075593.36348  -3165175.95647  20049861.9454                   20049857.2274
  -9461919.66847  -7348083.90345  22208767.1724                   22208764.5314
  -5636135.58647  -4376989.10245  23161711.5554                   23161710.2194
   2681152.95746   2101574.95143  24036185.6644                   24036184.3244
 11  7 27 17  3  0.0000000  0  9G03G06G13G16G20G23G19G07G10
  -8347878.57048  -6489412.79446  20916467.4384                   20916465.9494
  -3300491.22347  -2561331.81345  22110705.5864                   22110704.2544
 -10895774.97748  -8475352.07546  20583591.1804                   20583588.4384
   9030575.49648   7035384.52146  21913502.4534                   21913499.5514
  12479097.48046   9717036.67344  23703836.9454                   23703834.9344
  -4103674.43048  -3187057.31847  20044518.1414                   20044513.8094
  -9573915.42647  -7435353.29346  22187455.8594                   22187452.0664
  -5730826.59047  -4450774.24045  23143693.1094                   23143691.1994
   2618775.69946   2052969.28843  24024316.0164                   24024314.7504
 11  7 27 17  3 30.0000000  0  9G03G06G13G16G20G23G19G07G10
  -8399636.14148  -6529743.35446  20906618.8754                   20906616.9964
  -3319916.46147  -2576468.36245  22107009.4924                   22107007.6414
 -10980701.21148  -8541528.35946  20567430.4924                   20567427.7504
   9076075.75048   7070839.24645  21922160.7664                   21922157.4454
  12532721.83646   9758821.78344  23714040.5554                   23714039.3094
  -4131202.87948  -3208508.06447  20039279.7194                   20039275.1954
  -9685574.95747  -7522360.70046  22166207.6414                   22166203.9384
  -5825495.75047  -4524542.39945  23125677.5164                   23125675.7814
   2556910.55946   2004762.67743  24012542.8364                   24012542.2304
 11  7 27 17  4  0.0000000  0  9G03G06G13G16G20G23G19G07G10
  -8450779.52048  -6569595.33546  20896886.4534                   20896884.5164
  -3338787.32447  -2591172.95145  22103418.2734                   22103416.3754
 -11065202.57048  -8607373.57446  20551350.5394                   20551347.4144
   9121790.52048   7106461.12145  21930859.9844                   21930856.8244
  12586371.12946   9800626.33744  23724250.0474                   23724248.7344
  -4158179.82048  -3229529.07547  20034146.2734                   20034141.5084
  -9796897.19547  -7609105.28545  22145023.6644                   22145020.2464
  -5920144.96547  -4598295.00045  23107666.2664                   23107664.2854
   2495555.93446   1956953.91443  24000867.7344                   24000866.9804
 11  7 27 17  4 30.0000000  0  9G03G06G13G16G20G23G19G07G10
  -8501302.18448  -6608963.61946  20887272.2664                   20887270.3284
  -3357098.14847  -2605441.13945  22099933.7584                   22099932.2934
 -11149270.69148  -8672881.18746  20535352.6804                   20535349.7704
   9167723.41048   7142252.97045  21939600.9064                   21939597.2854
  12640048.59846   9842452.85344  23734465.1024                   23734463.3444
  -4184598.57848  -3250115.13247  20029118.8914                   20029114.2074
  -9907872.84447  -7695579.79145  22123905.5394                   22123902.0274
  -6014768.43747  -4672027.54545  23089660.5004                   23089657.9224
   2434718.55546   1909548.13243  23989290.1644                   23989289.7854
 11  7 27 17  5  0.0000000  0  9G03G06G13G16G20G23G19G07G10
  -8551201.54748  -6647846.23646  20877776.7584                   20877775.1804
  -3374848.13747  -2619272.30945  22096556.4694                   22096554.9454
 -11232902.56648  -8738048.87946  20519438.0474                   20519435.3284
   9213872.91448   7178213.60345  21948382.6174                   21948379.4804
  12693752.48047   9884299.95344  23744684.3134                   23744682.8874
  -4210457.56248  -3270265.00047  20024198.1724                   20024193.6254
 -10018497.62547  -7781780.89945  22102854.1174                   22102850.8834
  -6109365.09847  -4745739.20045  23071659.0944                   23071656.4964
   2374399.58246   1862546.33443  23977812.7344                   23977810.9614
 11  7 27 17  5 30.0000000  0  9G03G06G13G16G20G23G19G07G10
  -8600477.33248  -6686242.93046  20868399.8754                   20868398.0704
  -3392038.07047  -2632667.07845  22093285.3524                   22093283.6684
 -11316096.34848  -8802875.19446  20503606.7664                   20503603.9224
   9260235.50048   7214340.26645  21957205.0554                   21957201.9574
  12747479.35946   9926164.94944  23754907.5164                   23754907.1484
  -4235756.67648  -3289978.61747  20019383.8204                   20019379.0044
 -10128768.88347  -7867706.53345  22081870.3524                   22081866.7114
  -6203935.03147  -4819430.04745  23053663.0554                   23053660.6054
   2314598.50446   1815948.06743  23966432.3444                   23966431.5784
 11  7 27 17  6  0.0000000  0  9G03G06G13G16G20G23G19G07G10
  -8649133.63748  -6724156.91646  20859140.7424                   20859138.9184
  -3408673.39847  -2645629.68345  22090119.4774                   22090118.1374
 -11398854.73448  -8867362.24246  20487858.5314                   20487855.8714
   9306803.96948   7250627.35645  21966066.8674                   21966063.9884
  12801221.00046   9968041.42044  23765135.2114                   23765133.7934
  -4260500.63348  -3309259.62947  20014675.3134                   20014670.8484
 -10238689.02347  -7953358.57745  22060953.2274                   22060949.8364
  -6298484.40247  -4893104.84045  23035670.6094                   23035668.4414
   2255310.59446   1769749.73743  23955150.1804                   23955149.3914
 11  7 27 17  6 30.0000000  0  9G03G06G13G16G20G23G19G07G10
  -8697165.09448  -6761584.01246  20850000.9534                   20849998.7344
  -3424749.73047  -2658156.69945  22087059.8984                   22087058.7424
 -11481170.97748  -8931504.75846  20472194.2274                   20472191.3554
   9353580.09048   7287076.24945  21974968.2894                   21974965.3324
  12854979.43847  10009931.00044  23775365.4064                   23775363.8164
  -4284683.90248  -3328103.75047  20010073.2114                   20010068.4844
 -10348250.10547  -8038730.83846  22040104.5554                   22040100.9804
  -6393008.02047  -4966759.58245  23017683.4534                   23017681.3324
   2196540.52346   1723954.91943  23943966.6334                   23943965.4414
 11  7 27 17  7  0.0000000  0  9G03G06G13G16G20G23G19G07G10
  -8744565.46147  -6798519.34746  20840980.6484                   20840978.6764
  -3440261.98847  -2670244.19645  22084108.2344                   22084106.1804
 -11563037.14148  -8995296.58146  20456615.6804                   20456612.5044
   9400566.90647   7323689.31245  21983909.8444                   21983906.4884
  12908757.04846  10051835.55344  23785599.2584                   23785597.2074
  -4308300.68748  -3346506.46047  20005579.0164                   20005574.8134
 -10457443.43447  -8123816.53845  22019325.5864                   22019321.6294
  -6487500.55147  -5040390.12945  22999702.1484                   22999700.0474
   2138293.95346   1678567.97343  23932882.2274                   23932881.7544
 11  7 27 17  7 30.0000000  0  9G03G06G13G16G20G23G19G07G10
  -8791334.78548  -6834962.95146  20832080.7894                   20832079.0434
  -3455212.07047  -2681893.61845  22081263.6024                   22081261.9614
 -11644452.28548  -9058736.94646  20441122.7664                   20441119.6724
   9447760.48447   7360463.49545  21992890.3914                   21992887.5594
  12962549.87546  10093751.92043  23795834.4384                   23795833.8594
  -4331351.54348  -3364468.18047  20001192.6954                   20001188.1524
 -10566267.44547  -8208614.47445  21998617.0314                   21998613.1994
  -6581963.39847  -5113997.52245  22981726.1884                   22981724.5124
   2080569.62146   1633587.97243  23921897.7584                   23921897.2304
 11  7 27 17  8  0.0000000  0  9G03G06G13G16G20G23G19G07G10
  -8837473.70348  -6870915.34446  20823300.6954                   20823298.7704
  -3469601.37547  -2693106.04445  22078524.8284                   22078524.2504
 -11725415.32047  -9121825.02646  20425715.9534                   20425713.2344
   9495157.10548   7397395.90745  22001909.5634                   22001906.3094
  13016353.88746  10135677.04143  23806073.6954                   23806072.0634
  -4353837.31648  -3381989.58247  19996913.8834                   19996909.5864
 -10674720.28548  -8293123.15746  21977979.1644                   21977975.3364
  -6676397.54747  -5187582.51745  22963755.9304                   22963754.6604
   2023366.63746   1589014.19243  23911012.7274                   23911011.7814
 11  7 27 17  8 30.0000000  0  9G03G06G13G16G20G23G19G07G10
  -8882982.44148  -6906376.68446  20814640.5864                   20814638.5634
  -3483431.21947  -2703882.55245  22075893.2974                   22075891.8404
 -11805924.67248  -9184559.58646  20410395.3204                   20410392.7624
   9542753.46947   7434483.95245  22010967.2894                   22010963.8984
  13070165.35546  10177607.87143  23816314.5004                   23816312.5274
  -4375758.56648  -3399071.09047  19992742.4774                   19992737.7424
 -10782799.61347  -8377340.80845  21957412.6414                   21957408.7774
  -6770804.03947  -5261145.99345  22945790.9614                   22945789.0514
   1966684.15246   1544846.01643  23900226.7114                   23900226.0784
 11  7 27 17  9  0.0000000  0  9G03G06G13G16G20G23G19G07G10
  -8927857.30548  -6941344.09646  20806101.5084                   20806099.5234
  -3496699.69147  -2714221.62045  22073368.6094                   22073366.9494
 -11885976.04347  -9246937.27346  20395162.2584                   20395159.6054
   9590549.52747   7471727.58945  22020062.0314                   22020059.1724
  13123983.67646  10219544.13443  23826555.7504                   23826554.4144
  -4397112.19548  -3415710.30447  19988678.9924                   19988674.5234
 -10890499.94147  -8461263.12645  21936917.7664                   21936913.5314
  -6865180.53947  -5334686.09145  22927831.9614                   22927829.5084
   1910524.62946   1501085.37643  23889539.9924                   23889538.9144
 11  7 27 17  9 30.0000000  0  9G03G06G13G16G20G23G19G07G10
  -8972094.43748  -6975814.56846  20797683.4224                   20797681.3164
  -3509403.75847  -2724120.87445  22070951.0164                   22070949.5514
 -11965563.39147  -9308953.37946  20380017.4144                   20380014.2664
   9638545.98447   7509127.38845  22029195.6174                   22029192.6994
  13177809.58647  10261486.31944  23836798.6564                   23836797.4534
  -4417894.38348  -3431904.22747  19984724.2194                   19984719.7034
 -10997814.84047  -8544885.10345  21916496.3914                   21916492.7344
  -6959523.54347  -5408200.09345  22909878.7194                   22909876.5904
   1854891.44147   1457734.80843  23878953.0314                   23878952.4774
 11  7 27 17 10  0.0000000  0  9G03G06G13G16G20G23G19G07G10
  -9015696.95747  -7009790.53946  20789385.8134                   20789384.1334
  -3521547.44947  -2733583.49545  22068640.3364                   22068638.1564
 -12044688.00048  -9370608.91646  20364960.6334                   20364957.7584
   9686736.85947   7546678.70345  22038366.1024                   22038363.2544
  13231636.81346  10303429.52443  23847041.0394                   23847040.4804
  -4438108.38348  -3447655.41947  19980877.3594                   19980872.9614
 -11104744.68048  -8628207.04246  21896148.0554                   21896144.6454
  -7053836.24647  -5481690.46545  22891932.0314                   22891929.8094
   1799781.15646   1414791.77043  23868465.5394                   23868464.9384
 11  7 27 17 10 30.0000000  0  9G03G06G13G16G20G23G19G07G10
  -9058663.03947  -7043270.59646  20781209.7344                   20781207.8674
  -3533130.68047  -2742609.37345  22066435.8834                   22066434.5664
 -12123347.30147  -9431901.86746  20349992.3524                   20349989.4654
   9735120.31347   7584380.08945  22047573.1564                   22047570.4384
  13285463.71946  10345372.42143  23857283.9844                   23857283.6804
  -4457752.71948  -3462962.70947  19977139.3914                   19977134.8634
 -11211286.10947  -8711226.32446  21875874.1254                   21875870.4264
  -7148118.20347  -5555156.89045  22873990.7034                   22873988.3014
   1745194.51246   1372256.70743  23858078.4144                   23858077.5124
 11  7 27 17 11  0.0000000  0  9G03G06G13G16G20G23G19G07G10
  -9100986.17647  -7076249.66746  20773155.6954                   20773153.9144
  -3544148.18047  -2751194.44545  22064339.1024                   22064337.8444
 -12201533.27048  -9492825.98746  20335113.6334                   20335110.7894
   9783699.65247   7622234.07445  22056817.0634                   22056814.4534
  13339292.49246  10387316.78243  23867527.4064                   23867526.9454
  -4476821.46148  -3477821.48347  19973510.9224                   19973505.9734
 -11317429.93447  -8793935.76945  21855675.5394                   21855672.1054
  -7242363.41847  -5628594.69845  22856055.9924                   22856053.8204
   1691137.33646   1330134.26443  23847791.6884                   23847790.7774
 11  7 27 17 11 30.0000000  0  9G03G06G13G16G20G23G19G07G10
  -9142674.10547  -7108733.74546  20765222.8054                   20765221.2774
  -3554608.78547  -2759345.54445  22062348.7734                   22062347.1374
 -12279251.51648  -9553385.65946  20320324.7424                   20320321.7304
   9832464.26647   7660232.45645  22066097.0314                   22066093.8594
  13393112.44146  10429254.31344  23877769.4614                   23877767.9344
  -4495322.55948  -3492237.94147  19969990.1174                   19969985.4614
 -11423181.17247  -8876339.32246  21835551.9844                   21835548.3754
  -7336580.06647  -5702010.23245  22838127.2664                   22838125.7274
   1637601.34847   1288417.86743  23837603.8674                   23837602.9614
 11  7 27 17 12  0.0000000  0  9G03G06G13G16G20G23G19G07G10
  -9183723.23448  -7140720.07646  20757411.7734                   20757409.5124
  -3564510.00847  -2767060.77945  22060464.7734                   22060462.7934
 -12356497.07048  -9613576.99346  20305625.0234                   20305622.0904
   9881415.07047   7698375.91545  22075412.1954                   22075409.0274
  13446923.94146  10471185.26043  23888009.5704                   23888008.2344
  -4513252.68748  -3506209.49047  19966578.1954                   19966573.7034
 -11528534.34847  -8958432.67546  21815503.5704                   21815500.3204
  -7430765.11747  -5775401.14745  22820204.4844                   22820202.7034
   1584589.44946   1247109.86543  23827516.3594                   23827515.4844
 11  7 27 17 12 30.0000000  0  9G03G06G13G16G20G23G19G07G10
  -9224130.48847  -7172206.25146  20749722.3524                   20749720.5084
  -3573850.08247  -2774338.75845  22058687.4064                   22058685.5514
 -12433265.57448  -9673396.61046  20291016.6414                   20291013.6484
   9930551.04347   7736663.64445  22084762.5554                   22084759.3954
  13500726.31646  10513109.03044  23898247.9614                   23898246.2074
  -4530609.10548  -3519733.98647  19963275.3284                   19963270.7154
 -11633483.72747  -9040211.39346  21795532.5944                   21795529.1724
  -7524916.45347  -5848765.81545  22802287.9064                   22802286.2704
   1532103.90247   1206212.04044  23817528.3524                   23817527.4454
 11  7 27 17 13  0.0000000  0  9G03G06G13G16G20G23G19G07G10
  -9263896.10547  -7203192.44146  20742155.2584                   20742153.3204
  -3582630.35947  -2781180.54045  22057016.6334                   22057014.4734
 -12509555.15647  -9732843.03546  20276499.2344                   20276496.2424
   9979869.60547   7775093.68445  22094147.3914                   22094145.0274
  13554516.25846  10555023.15644  23908483.8054                   23908482.5824
  -4547392.14848  -3532811.70247  19960081.6884                   19960077.0354
 -11738027.24647  -9121673.85346  21775638.4924                   21775635.1334
  -7619034.63347  -5922104.62545  22784377.6564                   22784375.8714
   1480144.14146   1165723.90544  23807640.8984                   23807639.8634
 11  7 27 17 13 30.0000000  0  9G03G06G13G16G20G23G19G07G10
  -9303022.84448  -7233680.81246  20734709.9534                   20734707.8554
  -3590854.66847  -2787589.10045  22055451.7274                   22055449.8094
 -12585366.92648  -9791917.13446  20262072.5944                   20262070.0354
  10029365.00447   7813661.51945  22103566.0634                   22103563.6564
  13608287.83246  10596922.96644  23918716.0314                   23918715.6644
  -4563605.00848  -3545445.10747  19956996.3914                   19956991.8834
 -11842165.09847  -9202820.20346  21755821.4064                   21755817.9064
  -7713122.71547  -5995419.99245  22766473.3364                   22766471.5474
   1428706.73447   1125642.82144  23797852.7814                   23797852.1804
 11  7 27 17 14  0.0000000  0  9G03G06G13G16G20G23G19G07G10
  -9341516.11348  -7263675.56446  20727384.8594                   20727382.6994
  -3598529.79347  -2793569.71645  22053990.5004                   22053989.2734
 -12660704.78147  -9850621.96446  20247736.0864                   20247733.5234
  10079028.62147   7852360.41145  22113017.2344                   22113013.9534
  13662032.57446  10638801.86643  23928942.8594                   23928942.2734
  -4579253.11748  -3557638.45847  19954018.6804                   19954014.2194
 -11945900.14147  -9283652.68446  21736081.9144                   21736077.9964
  -7807186.38347  -6068716.33745  22748573.6804                   22748572.0514
   1377785.43847   1085963.84844  23788163.2664                   23788162.1374
 11  7 27 17 14 30.0000000  0  9G03G06G13G16G20G23G19G07G10
  -9379368.20748  -7293170.70746  20720181.7894                   20720179.5044
  -3605648.89147  -2799117.07445  22052636.1484                   22052634.3284
 -12735559.08248  -9908949.99046  20233492.0164                   20233489.0274
  10128865.82847   7891194.57345  22122500.4224                   22122497.7034
  13715754.77746  10680663.20644  23939166.3134                   23939165.7854
  -4594329.06248  -3569385.97147  19951150.0394                   19951145.4184
 -12049221.94147  -9364163.16046  21716419.7274                   21716416.7384
  -7901217.85947  -6141987.63245  22730680.3674                   22730678.1094
   1327387.45347   1046692.68844  23778572.6024                   23778571.6174
 11  7 27 17 15  0.0000000  0  9G03G06G13G16G20G23G19G07G10
  -9416579.77048  -7322166.73646  20713100.6094                   20713098.6254
  -3612214.05147  -2804232.79045  22051387.0084                   22051385.3714
 -12809928.99647  -9966900.56846  20219340.0084                   20219337.3594
  10178872.75847   7930160.98145  22132016.8284                   22132013.3484
  13769450.46546  10722503.91743  23949384.3134                   23949384.1954
  -4608833.95748  -3580688.50547  19948389.6644                   19948385.3094
 -12152128.99247  -9444350.44346  21696837.2584                   21696834.2034
  -7995218.86747  -6215235.13645  22712792.5474                   22712790.5274
   1277511.23447   1007828.10944  23769081.7894                   23769080.5824
 11  7 27 17 15 30.0000000  0  9G03G06G13G16G20G23G19G07G10
  -9453152.29747  -7350664.81146  20706140.9224                   20706139.2114
  -3618227.86347  -2808918.89345  22050242.6564                   22050241.4574
 -12883814.07848 -10024473.36346  20205280.0164                   20205277.1134
  10229045.16447   7969256.32545  22141564.2344                   22141561.3054
  13823115.18846  10764320.40543  23959596.1414                   23959595.9884
  -4622769.39548  -3591547.30847  19945737.9534                   19945733.4384
 -12254620.26247  -9524213.75246  21677334.0554                   21677330.7584
  -8089190.88347  -6288460.05045  22694910.3984                   22694908.0704
   1228154.84447    969368.56443  23759689.6414                   23759688.4574
 11  7 27 17 16  0.0000000  0  9G03G06G13G16G20G23G19G07G10
  -9489081.58248  -7378661.66546  20699304.0234                   20699301.9574
  -3623687.30147  -2813172.99845  22049203.8524                   22049202.2344
 -12957208.85248 -10081664.08646  20191313.2194                   20191310.6174
  10279384.12147   8008481.44545  22151143.5164                   22151140.2034
  13876749.96546  10806113.63843  23969802.8364                   23969802.0044
  -4636131.63348  -3601959.46547  19943195.2424                   19943190.4534
 -12356689.05547  -9603747.84846  21657910.6334                   21657907.4804
  -8183130.28147  -6361659.55545  22677034.2344                   22677031.9144
   1179321.78147    931316.80444  23750396.7504                   23750395.7464
 11  7 27 17 16 30.0000000  0  9G03G06G13G16G20G23G19G07G10
  -9524368.68447  -7406158.10346  20692588.7504                   20692586.6174
  -3628594.82047  -2816997.04145  22048269.8524                   22048268.1374
 -13030112.55547 -10138472.16546  20177440.2664                   20177437.4024
  10329885.89547   8047833.42945  22160753.5394                   22160750.7704
  13930350.64146  10847880.26843  23980002.6954                   23980002.4534
  -4648922.01248  -3611926.00347  19940761.3674                   19940756.6174
 -12458333.80547  -9682951.53546  21638568.5944                   21638565.1024
  -8277038.20347  -6434834.52545  22659163.8444                   22659161.7194
   1131010.37947    893671.55743  23741203.3674                   23741202.8834
 11  7 27 17 17  0.0000000  0  9G03G06G13G16G20G23G19G07G10
  -9559015.55947  -7433155.67046  20685995.8674                   20685993.7234
  -3632953.10947  -2820393.10845  22047440.3204                   22047438.7974
 -13102525.33648 -10194897.70246  20163660.6174                   20163658.0274
  10380546.27347   8087309.02945  22170393.3984                   22170391.0554
  13983912.21146  10889616.47943  23990195.8674                   23990195.4414
  -4661142.60948  -3621448.56347  19938435.8754                   19938431.3754
 -12559553.93747  -9761824.33646  21619307.0474                   21619303.6724
  -8370916.51647  -6507986.42345  22641299.4774                   22641296.9694
   1083218.20746    856430.90443  23732108.5314                   23732108.3204
 11  7 27 17 17 30.0000000  0  9G03G06G13G16G20G23G19G07G10
  -9593022.53947  -7459654.61446  20679524.6644                   20679522.5434
  -3636763.67247  -2823362.38645  22046715.2424                   22046713.8674
 -13174445.44547 -10250939.34446  20149974.8524                   20149971.8954
  10431361.78147   8126905.48145  22180063.5004                   22180060.9654
  14037431.51246  10931319.63143  24000380.3204                   24000379.9964
  -4672793.50048  -3630527.20347  19936218.6884                   19936213.9734
 -12660346.81247  -9840364.22246  21600126.5704                   21600123.3324
  -8464765.99247  -6581115.87145  22623440.2974                   22623438.2344
   1035944.23447    819594.05544  23723112.3834                   23723111.9414
 11  7 27 17 18  0.0000000  0  9G03G06G13G16G20G23G19G07G10
  -9626391.55148  -7485656.43146  20673174.7194                   20673172.4844
  -3640029.38747  -2825907.10345  22046093.3674                   22046092.1294
 -13245872.92648 -10306597.11546  20136382.2814                   20136379.9224
  10482328.36347   8166619.68345  22189762.5784                   22189759.5634
  14090903.82846  10972986.28643  24010556.1804                   24010555.5474
  -4683876.78548  -3639163.55747  19934109.6724                   19934104.8874
 -12760711.65647  -9918570.56146  21581028.2034                   21581024.3054
  -8558588.36347  -6654224.17145  22605587.0164                   22605584.7074
    989186.30946    783159.28343  23714215.1884                   23714214.6414
 11  7 27 17 18 30.0000000  0  9G03G06G13G16G20G23G19G07G10
  -9659125.03548  -7511163.04146  20666945.7034                   20666943.6094
  -3642753.95747  -2828030.16545  22045575.3054                   22045573.7544
 -13316808.60948 -10361871.67746  20122884.2194                   20122881.0984
  10533440.74647   8206447.45845  22199488.6024                   22199485.4224
  14144323.69146  11014611.99943  24020721.1334                   24020720.5904
  -4694395.80148  -3647360.21047  19932107.8054                   19932103.2774
 -12860648.66847  -9996443.52746  21562010.5784                   21562006.8484
  -8652386.07847  -6727313.30145  22587737.7504                   22587735.2424
    942941.19146    747124.09043  23705414.6254                   23705413.6644
 11  7 27 17 19  0.0000000  0  9G03G06G13G16G20G23G19G07G10
  -9691220.37948  -7536172.40046  20660838.0314                   20660835.7774
  -3644936.25847  -2829730.66945  22045159.8674                   22045158.2344
 -13387248.16447 -10416759.65446  20109479.7664                   20109476.9494
  10584698.59047   8246388.60445  22209242.6724                   22209240.2464
  14197690.77346  11056196.58143  24030876.0944                   24030876.9414
  -4704348.18048  -3655115.32947  19930214.2424                   19930209.8054
 -12960152.58647 -10073979.02546  21543075.2114                   21543071.6804
  -8746156.92647  -6800381.47245  22569893.7584                   22569890.9064
    897210.96546    711490.16843  23696712.0784                   23696711.9534
 11  7 27 17 19 30.0000000  0  9G03G06G13G16G20G23G19G07G10
  -9722675.64147  -7560683.00146  20654852.5394                   20654850.0864
  -3646575.00447  -2831007.62945  22044848.3364                   22044846.1024
 -13457187.54347 -10471257.87146  20096170.5944                   20096167.8674
  10636101.71147   8286442.95045  22219024.7504                   22219022.1134
  14251004.25046  11097739.44443  24041022.2664                   24041021.5474
  -4713731.56648  -3662427.08947  19928428.2814                   19928423.9184
 -13059218.71147 -10151173.37846  21524223.7034                   21524219.9494
  -8839898.82047  -6873427.09045  22552055.1884                   22552052.9104
    851996.85946    676258.40043  23688109.3284                   23688107.9064
 11  7 27 17 20  0.0000000  0  9G03G06G13G16G20G23G19G07G10
  -8178076.11348  -6357098.93646  20948779.7344                   20948778.1764
  -2072257.60547  -1604266.79145  22344430.8674                   22344429.1884
 -11951209.03547  -9297768.12746  20382748.9064                   20382746.2974
  12263059.60247   9554202.31545  22528624.5314                   22528622.0784
  15879673.71546  12366832.38243  24350948.5314                   24350948.0434
  -3147132.28948  -2441700.39946  20226542.6094                   20226537.8794
 -11582427.32847  -9000426.81946  21805247.5004                   21805244.2544
  -7358194.87947  -5718852.58345  22834014.0004                   22834011.7384
   2382713.62946   1869024.65743  23979393.9384                   23979393.0904
 11  7 27 17 20 30.0000000  0  9G03G06G13G16G20G23G19G07G10
  -8208259.46948  -6380618.44846  20943035.9614                   20943033.7934
  -2072821.05547  -1604705.86945  22344324.0234                   22344322.4184
 -12020151.11347  -9351489.22646  20369629.3524                   20369626.8404
  12314737.50847   9594470.76945  22538458.0474                   22538455.8594
  15932863.57446  12408278.90643  24361069.5864                   24361069.2624
  -3155386.96148  -2448132.62647  20224971.5784                   20224967.2344
 -11680618.17647  -9076939.13446  21786562.6254                   21786559.1884
  -7451886.81647  -5791859.26345  22816184.9614                   22816182.6994
   2338522.12146   1834589.69743  23970985.3364                   23970983.5234
 11  7 27 17 21  0.0000000  0  9G03G06G13G16G20G23G19G07G10
  -8237812.43748  -6403646.74046  20937412.3594                   20937410.3754
  -2072853.91847  -1604731.46545  22344317.6414                   22344316.3794
 -12088597.08647  -9404823.76246  20356604.9144                   20356602.4024
  12366543.89847   9634839.34545  22548316.5164                   22548314.2384
  15985981.93445  12449669.64843  24371177.9144                   24371177.0744
  -3163083.05148  -2454129.59947  20223507.2034                   20223502.6914
 -11778372.42647  -9153111.26146  21767960.6564                   21767957.3634
  -7545559.08647  -5864850.63445  22798359.6484                   22798357.0314
   2294835.29346   1800547.98943  23962671.9064                   23962670.3634
 11  7 27 17 21 30.0000000  0  9G03G06G13G16G20G23G19G07G10
  -8266730.26248  -6426180.11946  20931909.4064                   20931907.2424
  -2072352.47747  -1604340.77245  22344412.9454                   22344411.6994
 -12156540.36347  -9457766.57546  20343675.4454                   20343672.6294
  12418480.89847   9675309.69345  22558200.2734                   22558197.5904
  16039030.70746  12491006.19443  24381272.2504                   24381271.5234
  -3170216.14148  -2459687.87647  20222149.8134                   20222145.5314
 -11875682.89847  -9228937.56946  21749442.8754                   21749439.6174
  -7639206.95747  -5937822.98145  22780539.4614                   22780537.0274
   2251657.35546   1766902.85743  23954454.9534                   23954454.1174
 11  7 27 17 22  0.0000000  0  9G03G06G13G16G20G23G19G07G10
  -8295013.05948  -6448218.65646  20926527.4924                   20926524.9654
  -2071318.14547  -1603534.80945  22344609.8594                   22344608.1524
 -12223979.11747  -9510316.25446  20330842.3594                   20330839.8324
  12470546.05547   9715879.88945  22568108.4924                   22568105.3444
  16092007.08645  12532286.39943  24391353.4694                   24391353.4574
  -3176786.57848  -2464807.70947  20220899.3134                   20220894.6254
 -11972547.30147  -9304416.29546  21731010.3524                   21731006.7734
  -7732830.25847  -6010776.19845  22762723.0234                   22762720.6564
   2208987.75446   1733653.81943  23946335.5704                   23946334.4454
 11  7 27 17 22 30.0000000  0  9G03G06G13G16G20G23G19G07G10
  -8322659.17248  -6469761.09146  20921266.6414                   20921264.0744
  -2069750.49647  -1602313.29145  22344908.7734                   22344906.6414
 -12290910.14547  -9562470.30946  20318106.4774                   20318103.0234
  12522738.40247   9756549.22545  22578039.8754                   22578036.6994
  16144910.01645  12573509.29243  24401420.8834                   24401420.6094
  -3182793.08247  -2469488.12547  20219756.5164                   20219751.9454
 -12068961.45347  -9379544.17446  21712663.0704                   21712660.2234
  -7826427.40247  -6083708.99645  22744911.9924                   22744910.1724
   2166827.64846   1700801.80243  23938312.7584                   23938312.1054
 11  7 27 17 23  0.0000000  0  9G03G06G13G16G20G23G19G07G10
  -8349671.81248  -6490809.91146  20916126.3054                   20916124.0164
  -2067653.68447  -1600679.41045  22345307.4224                   22345305.3984
 -12357334.56247  -9614229.59846  20305465.7194                   20305463.0904
  12575052.48447   9797313.41045  22587994.8914                   22587991.8674
  16197733.99246  12614670.69243  24411472.9304                   24411473.3444
  -3188238.65248  -2473731.44447  20218720.2504                   20218715.9064
 -12164925.05947  -9454320.97146  21694402.2664                   21694398.4384
  -7920001.10547  -6156623.55245  22727105.4144                   22727103.9104
   2125173.04347   1668343.63644  23930386.1884                   23930385.7424
 11  7 27 17 23 30.0000000  0  9G03G06G13G16G20G23G19G07G10
  -8376049.85948  -6511364.25046  20911106.8594                   20911104.2624
  -2065027.11747  -1598632.75745  22345806.9304                   22345805.1484
 -12423248.64147  -9665591.21546  20292923.0004                   20292919.9964
  12627487.64547   9838171.94145  22597972.6094                   22597969.9104
  16250477.55946  12655769.40943  24421510.8984                   24421510.0234
  -3193122.50447  -2477537.06446  20217791.1254                   20217786.5744
 -12260434.27047  -9528743.70046  21676227.1564                   21676223.4384
  -8013549.63347  -6229518.48245  22709303.9924                   22709301.8954
   2084025.06646   1636280.29344  23922556.3204                   23922555.6254
 11  7 27 17 24  0.0000000  0  9G03G06G13G16G20G23G19G07G10
  -8401798.16448  -6531427.88346  20906206.8134                   20906204.9804
  -2061877.11747  -1596178.22745  22346406.2814                   22346405.1454
 -12488655.61747  -9716557.69746  20280476.2034                   20280473.4884
  12680037.06347   9879119.50345  22607972.9144                   22607970.1334
  16303133.79346  12696800.04443  24431530.0474                   24431529.9494
  -3197449.27347  -2480908.60547  20216967.5084                   20216962.6524
 -12355491.23047  -9602814.02746  21658138.4454                   21658134.6804
  -8107077.65247  -6302397.43245  22691506.2114                   22691504.0704
   2043378.48446   1604607.57744  23914821.4774                   23914820.6684
 11  7 27 17 24 30.0000000  0  9G03G06G13G16G20G23G19G07G10
  -8426908.58648  -6550994.45546  20901428.8914                   20901426.7774
  -2058196.48047  -1593310.22245  22347107.1094                   22347105.5004
 -12553545.82447  -9767121.49546  20268128.1644                   20268124.7274
  12732706.23047   9920160.35845  22617995.2424                   22617992.8284
  16355707.58246  12737766.47543  24441534.6724                   24441535.2734
  -3201211.51648  -2483840.24746  20216251.2034                   20216247.4144
 -12450085.29747  -9676523.66546  21640137.8284                   21640133.9384
  -8200577.18047  -6375254.21245  22673713.4224                   22673711.7304
   2003240.33647   1573331.10344  23907183.1334                   23907182.3014
 11  7 27 17 25  0.0000000  0  9G03G06G13G16G20G23G19G07G10
  -8451387.06648  -6570068.61346  20896770.6884                   20896768.6454
  -2053992.01647  -1590034.02745  22347906.5394                   22347905.6334
 -12617922.71547  -9817285.29746  20255877.5784                   20255874.9144
  12785487.25847   9961288.40245  22628039.0314                   22628036.4534
  16408191.04346  12778662.51043  24451521.9064                   24451522.8404
  -3204414.66447  -2486336.22647  20215642.3284                   20215637.5274
 -12544219.07047  -9749874.61446  21622224.5944                   21622221.2384
  -8294052.88347  -6448092.38345  22655926.0634                   22655924.1254
   1963604.76646   1542446.22244  23899640.6804                   23899639.9844
 11  7 27 17 25 30.0000000  0  9G03G06G13G16G20G23G19G07G10
  -8475230.59448  -6588648.00046  20892233.4064                   20892231.2894
  -2049261.94947  -1586348.29045  22348806.4064                   22348805.6604
 -12681781.19947  -9867045.15846  20243725.6484                   20243722.7774
  12838381.20747  10002504.42445  22638104.6564                   22638102.2774
  16460584.77746  12819488.56143  24461492.6334                   24461493.0354
  -3207056.26247  -2488394.64846  20215139.4844                   20215134.8834
 -12637886.85547  -9822862.48246  21604400.1644                   21604396.2544
  -8387501.68747  -6520909.60545  22638143.5004                   22638140.6994
   1924473.89146   1511954.61844  23892194.5084                   23892194.0354
 11  7 27 17 26  0.0000000  0  9G03G06G13G16G20G23G19G07G10
  -8498438.93748  -6606732.44046  20887816.9924                   20887815.2344
  -2044006.87547  -1582253.42545  22349806.6024                   22349806.0474
 -12745119.41847  -9916399.60846  20231672.7894                   20231669.6804
  12891386.12547  10043806.91745  22648191.4614                   22648188.6484
  16512886.73846  12860243.14143  24471445.7974                   24471445.8794
  -3209136.21948  -2490015.41147  20214743.5234                   20214739.2504
 -12731085.84047  -9895485.03046  21586665.2114                   21586661.5944
  -8480922.92247  -6593705.36345  22620365.3834                   22620363.4804
   1885847.39546   1481856.05844  23884843.9384                   23884843.2464
 11  7 27 17 26 30.0000000  0 10G03G06G13G16G20G23G19G08G07G10
  -8521011.59048  -6624321.54046  20883521.5394                   20883519.6174
  -2038227.44147  -1577749.99445  22350906.8754                   22350905.8444
 -12807934.75447  -9965346.61946  20219719.5944                   20219716.6644
  12944500.63347  10085194.83945  22658298.6024                   22658296.2154
  16565095.01246  12900924.75043  24481380.9064                   24481379.9344
  -3210654.00047  -2491198.12346  20214454.9454                   20214450.1524
 -12823812.51247  -9967739.55146  21569020.0554                   21569016.2734
   7737281.59856   6048966.84953  24703933.5864                   24703933.5474
  -8574315.68747  -6666478.92445  22602593.9614                   22602591.8014
   1847725.56346   1452150.71744  23877589.6644                   23877588.8284
 11  7 27 17 27  0.0000000  0 10G03G06G13G16G20G23G19G08G07G10
  -8542962.51248  -6641426.16446  20879344.5474                   20879342.5824
  -2031938.43447  -1572849.49145  22352103.2034                   22352102.4654
 -12870238.77047 -10013895.19846  20207863.1804                   20207860.3834
  12997708.63747  10126655.58345  22668423.8364                   22668421.0634
  16617193.23846  12941520.53843  24491295.4144                   24491294.3714
  -3211623.86748  -2491953.89046  20214270.2894                   20214266.0984
 -12916077.88747 -10039634.61846  21551462.4144                   21551458.5824
   7635116.78146   5969357.93943  24684492.7504                   24684492.2624
  -8667693.09447  -6739240.52245  22584824.3834                   22584822.4534
   1810093.89846   1422827.34844  23870429.2974                   23870427.7624
 11  7 27 17 27 30.0000000  0 10G03G06G13G16G20G23G19G08G07G10
  -8564292.60248  -6658047.03846  20875285.7274                   20875283.6214
  -2025141.74247  -1567553.37745  22353396.6954                   22353396.0594
 -12932030.48447 -10062044.58946  20196104.9694                   20196101.9694
  13051007.57847  10168187.21545  22678566.0554                   22678563.4774
  16669178.73046  12982028.55243  24501187.5004                   24501187.6644
  -3212046.61748  -2492283.32346  20214190.1414                   20214185.3244
 -13007879.93047 -10111168.64046  21533992.8914                   21533989.3014
   7532888.15246   5889699.34143  24665039.1024                   24665038.5864
  -8761055.29747  -6811990.27145  22567057.9694                   22567056.6374
   1772951.01646   1393884.79344  23863360.2194                   23863359.6134
 11  7 27 17 28  0.0000000  0  9G03G06G13G16G23G19G08G07G10
  -8585005.37948  -6674186.87546  20871344.2034                   20871342.0864
  -2017842.00847  -1561865.31345  22354785.9224                   22354785.0314
 -12993311.26247 -10109795.84446  20184443.4224                   20184440.6024
  13104391.93847  10209785.36645  22688725.0784                   22688722.2464
  -3211926.07048  -2492189.41746  20214212.8914                   20214208.1954
 -13099219.29347 -10182342.13946  21516611.6804                   21516607.9104
   7430592.62946   5809988.67043  24645572.3524                   24645572.6024
  -8854405.54747  -6884730.72445  22549293.6644                   22549292.2234
   1736292.84846   1365319.98644  23856384.6724                   23856384.0944
 11  7 27 17 28 30.0000000  0  9G03G06G13G16G23G19G08G07G10
  -8605092.49248  -6689839.19246  20867521.5164                   20867519.7664
  -2010031.46547  -1555779.17845  22356271.8984                   22356271.2734
 -13054070.47747 -10157140.69646  20172881.6094                   20172878.5944
  13157868.47747  10251455.34845  22698901.3594                   22698898.3364
  -3211253.55148  -2491665.40946  20214340.9144                   20214336.2504
 -13190084.44147 -10253146.13546  21499320.5944                   21499317.1484
   7328238.98846   5730232.59843  24626094.5634                   24626095.4064
  -8947734.47347  -6957454.52745  22531534.3914                   22531532.1374
   1700127.61746   1337139.24943  23849502.8674                   23849502.2734
 11  7 27 17 29  0.0000000  0  9G03G06G13G16G23G19G08G07G10
  -8624540.49648  -6704993.48746  20863820.6564                   20863818.8054
  -2001697.69547  -1549285.35345  22357858.2504                   22357856.9184
 -13114292.73847 -10204067.14046  20161421.5004                   20161418.5474
  13211448.78147  10293206.20145  22709097.2974                   22709094.2074
  -3210016.27348  -2490701.30946  20214576.4694                   20214571.4534
 -13280459.01247 -10323567.85346  21482122.8284                   21482119.1564
   7225840.66846   5650441.76343  24606609.0944                   24606609.2894
  -9041027.75447  -7030150.57045  22513781.2504                   22513779.2034
   1664468.20346   1309352.70844  23842716.7814                   23842716.2704
 11  7 27 17 29 30.0000000  0  9G03G06G13G16G23G19G08G07G10
  -8643345.00048  -6719646.37646  20860242.3674                   20860240.4304
  -1992837.58247  -1542381.39845  22359543.8674                   22359543.0824
 -13173971.92647 -10250570.39546  20150064.8204                   20150062.2774
  13265135.33247  10335039.83545  22719313.2114                   22719310.8524
  -3208209.79348  -2489293.68246  20214920.0634                   20214915.5394
 -13370336.06647 -10393601.88746  21465019.3984                   21465016.1254
   7123401.64546   5570619.21343  24587116.3834                   24587115.7814
  -9134280.67647  -7102815.16145  22496035.6094                   22496033.3134
   1629318.48046   1281963.30744  23836028.2424                   23836027.0594
 11  7 27 17 30  0.0000000  0  9G03G06G13G16G23G19G08G07G10
  -8661504.03948  -6733796.28546  20856786.7274                   20856785.1024
  -1983449.72347  -1535066.20245  22361330.4694                   22361329.3594
 -13233103.46547 -10296646.93046  20138812.6564                   20138809.4694
  13318928.48047  10376956.53045  22729550.0554                   22729547.1884
  -3205831.90248  -2487440.80846  20215372.4454                   20215367.9104
 -13459710.56247 -10463244.34146  21448012.2344                   21448008.5744
   7020924.25446   5490766.74343  24567615.5864                   24567614.9224
  -9227490.23447  -7175445.97045  22478298.3204                   22478296.0474
   1594680.10246   1254972.36243  23829436.8984                   23829436.0944
 11  7 27 17 30 30.0000000  0  9G03G06G13G16G23G19G08G07G10
  -8679024.93748  -6747448.93346  20853452.7034                   20853451.2274
  -1973542.53147  -1527346.34745  22363215.9384                   22363215.1954
 -13291692.70347 -10342300.89546  20127663.3984                   20127660.3714
  13372819.11747  10418949.21745  22739805.3134                   22739802.5664
  -3202890.64848  -2485148.94546  20215932.4144                   20215928.0784
 -13548586.68047 -10532498.42546  21431099.6024                   21431096.1724
   6918401.53146   5410878.98143  24548105.6564                   24548105.3594
  -9320663.16047  -7248048.23245  22460567.7194                   22460565.8054
   1560545.34846   1228373.78244  23822941.2814                   23822940.0594
 11  7 27 17 31  0.0000000  0  9G03G06G13G16G23G19G08G07G10
  -8695917.03148  -6760611.63146  20850238.3674                   20850236.3794
  -1963126.30947  -1519229.82945  22365198.3364                   22365196.9964
 -13349746.42247 -10387537.56946  20116616.1644                   20116613.3874
  13426796.37947  10461009.39345  22750076.7424                   22750074.3754
  -3199394.83648  -2482424.96146  20216597.3674                   20216592.8204
 -13636970.70347 -10601369.08046  21414280.8204                   21414277.1994
   6815824.56346   5330948.87443  24528586.0944                   24528584.9184
  -9413807.34447  -7320628.11045  22442843.5394                   22442840.9844
   1526904.62946   1202160.20444  23816539.2894                   23816538.5904
 11  7 27 17 31 30.0000000  0  9G03G06G13G16G23G19G08G07G10
  -8712176.27348  -6773281.16946  20847144.3754                   20847142.2034
  -1952197.65647  -1510714.02045  22367278.0164                   22367277.0124
 -13407259.04348 -10432352.60646  20105671.8054                   20105668.6724
  13480862.82047  10503139.05645  22760365.1484                   22760363.1564
  -3195340.37548  -2479265.66446  20217369.0004                   20217364.8484
 -13724855.63347 -10669850.81346  21397556.6484                   21397553.1644
   6713197.62146   5250979.88843  24509056.3054                   24509056.3914
  -9506918.37547  -7393182.13345  22425124.7734                   22425122.9694
   1493761.41046   1176334.33543  23810232.7734                   23810231.9304
 11  7 27 17 32  0.0000000  0  9G03G06G13G16G23G19G08G07G10
  -8727813.10548  -6785465.71846  20844168.5784                   20844166.9454
  -1940768.36747  -1501808.10745  22369452.9614                   22369451.6884
 -13464238.79347 -10476752.40746  20094829.0784                   20094826.3244
  13535006.05547  10545328.55945  22770668.4844                   22770665.5394
  -3190738.49648  -2475679.81046  20218244.5394                   20218240.3364
 -13812249.54747 -10737949.94746  21380926.3754                   21380922.8754
   6610510.21946   5170963.77743  24489515.5944                   24489515.1954
  -9600005.82447  -7465717.81245  22407411.0234                   22407408.8324
   1461104.58646   1150887.42744  23804018.5704                   23804017.3984
 11  7 27 17 32 30.0000000  0  9G03G06G13G16G23G19G08G07G10
  -8742826.35948  -6797164.36946  20841311.3984                   20841310.2194
  -1928837.97347  -1492511.71445  22371723.0394                   22371722.9104
 -13520682.24648 -10520734.32446  20084088.0234                   20084084.9264
  13589225.88747  10587577.72445  22780986.1174                   22780982.7304
  -3185587.79348  -2471666.31146  20219225.2974                   20219220.5204
 -13899147.65247 -10805662.75146  21364390.1954                   21364386.5314
   6507764.25046   5090901.98043  24469963.6954                   24469963.2074
  -9693067.39547  -7538233.30945  22389702.0084                   22389699.6804
   1428935.23046   1125820.39343  23797896.1564                   23797895.6454
 11  7 27 17 33  0.0000000  0  9G03G06G13G16G23G19G08G07G10
  -8757214.73048  -6808376.10446  20838573.6724                   20838572.1604
  -1916405.79747  -1482824.33645  22374088.5084                   22374087.4804
 -13576585.96947 -10564295.67446  20073449.5864                   20073447.3094
  13643522.50847  10629886.74044  22791318.3284                   22791315.2624
  -3179886.81248  -2467224.00746  20220309.9774                   20220305.6954
 -13985545.55547 -10872985.76846  21347948.6724                   21347945.8634
   6404961.55146   5010796.01043  24450401.1724                   24450400.5704
  -9786100.48447  -7610726.61745  22371998.3444                   22371996.2384
   1397254.13746   1101133.83243  23791867.7974                   23791867.0434
 11  7 27 17 33 30.0000000  0  9G03G06G13G16G23G19G08G07G10
  -8770983.90648  -6819105.33146  20835953.4384                   20835952.1374
  -1903478.65647  -1472751.24945  22376548.5944                   22376547.8404
 -13631953.21147 -10607438.99346  20062913.9694                   20062911.2274
  13697888.32447  10672249.63944  22801663.7974                   22801661.1884
  -3173641.53148  -2462357.60146  20221498.3134                   20221493.8634
 -14071446.12947 -10939921.25346  21331602.8444                   21331599.2664
   6302096.65246   4930641.59143  24430826.5554                   24430825.6054
  -9879110.05147  -7683201.59845  22354299.1334                   22354296.8244
   1366055.25446   1076822.98943  23785930.7734                   23785930.3444
 11  7 27 17 34  0.0000000  0  9G03G06G13G16G23G19G08G07G10
  -8784133.62148  -6829351.87946  20833451.1254                   20833449.7074
  -1890057.05547  -1462292.88745  22379102.7814                   22379101.5514
 -13686781.76647 -10650162.54246  20052480.5864                   20052477.9304
  13752322.44947  10714665.80444  22812022.5004                   22812019.5594
  -3166851.91848  -2457067.02046  20222790.3364                   20222785.8984
 -14156846.28147 -11006466.81546  21315351.3984                   21315348.2234
   6199170.17646   4850439.15043  24411240.3984                   24411238.7774
  -9972094.55147  -7755657.03345  22336604.8444                   22336602.6214
   1335338.43446   1052887.77043  23780085.5784                   23780084.8794
 11  7 27 17 34 30.0000000  0  9G03G06G13G16G23G19G08G07G10
  -8796655.19548  -6839108.95746  20831068.3984                   20831066.5474
  -1876132.95747  -1451442.95845  22381752.3444                   22381751.8554
 -13741060.36348 -10692457.56546  20042151.4534                   20042148.3364
  13806832.32447  10757140.98444  22822395.4144                   22822392.6334
  -3159508.77048  -2451345.11446  20224187.9614                   20224183.4184
 -14241733.75447 -11072612.89146  21299198.1644                   21299194.1414
   6096191.89546   4770196.40443  24391643.6804                   24391642.9614
 -10065043.94547  -7828085.13545  22318917.5944                   22318915.1254
   1305112.20746   1029334.85343  23774333.9064                   23774333.2384
 11  7 27 17 35  0.0000000  0  9G03G06G13G16G23G19G08G07G10
  -8808557.71148  -6848383.65946  20828803.0314                   20828801.6094
  -1861716.32047  -1440209.24045  22384495.9614                   22384494.8054
 -13794796.19148 -10734329.64746  20031925.7584                   20031923.4774
  13861407.14547  10799666.79244  22832780.7664                   22832777.9574
  -3151621.55148  -2445199.26246  20225688.6414                   20225684.6764
 -14326114.84848 -11138364.38846  21283140.6564                   21283136.9924
   5993153.19946   4689906.55743  24372036.2584                   24372035.8014
 -10157966.36747  -7900492.20245  22301234.8364                   22301232.6054
   1275366.96946   1006156.66643  23768673.4694                   23768673.2074
 11  7 27 17 35 30.0000000  0  9G03G06G13G16G23G19G08G07G10
  -8819842.40248  -6857176.93546  20826655.8284                   20826654.3714
  -1846809.45747  -1428593.50545  22387332.7584                   22387331.6174
 -13847988.48447 -10775778.20046  20021804.0004                   20021801.0474
  13916044.48847  10842241.32745  22843178.0474                   22843175.4224
  -3143191.46148  -2438630.40546  20227292.7664                   20227288.7664
 -14409987.78148 -11203719.90646  21267180.1804                   21267176.6764
   5890052.83646   4609568.62043  24352417.2814                   24352417.0744
 -10250862.02047  -7972878.41845  22283556.8914                   22283555.0824
   1246101.18046    983352.17043  23763104.3054                   23763104.0594
 11  7 27 17 36  0.0000000  0  9G03G06G13G16G23G19G08G07G10
  -8830512.77748  -6865491.52846  20824625.3444                   20824623.7344
  -1831416.53947  -1416599.04445  22390261.8984                   22390261.0594
 -13900638.06247 -10816803.85046  20011784.9454                   20011782.0824
  13970739.74247  10884860.95045  22853586.2584                   22853584.0784
  -3134222.22748  -2431641.41146  20228999.6094                   20228995.3954
 -14493353.00448 -11268679.80846  21251316.2894                   21251312.5554
   5786888.05546   4529180.51643  24332785.3284                   24332784.6724
 -10343733.14147  -8045245.52045  22265884.1254                   22265882.2664
   1217310.94546    960918.18443  23757626.0554                   23757625.4414
 11  7 27 17 36 30.0000000  0  9G03G06G13G16G23G19G08G07G10
  -8840570.37948  -6873328.62746  20822711.4694                   20822709.8444
  -1815539.84047  -1404227.63545  22393283.2664                   22393281.4654
 -13952744.10548 -10857405.97446  20001869.5704                   20001866.7704
  14025490.29747  10927523.64744  22864004.7584                   22864002.9534
  -3124715.27348  -2424233.43246  20230808.7734                   20230804.4144
 -14576208.85548 -11333242.78846  21235549.5234                   21235545.6454
   5683658.33646   4448741.83443  24313141.8364                   24313141.3444
 -10436579.86747  -8117593.58445  22248216.0164                   22248213.9384
   1188995.00047    938853.79243  23752237.9304                   23752237.0084
 11  7 27 17 37  0.0000000  0  9G03G06G13G16G23G19G08G07G10
  -8850012.38348  -6880686.05246  20820914.8914                   20820912.9384
  -1799177.38347  -1391477.68145  22396396.7664                   22396396.0274
 -14004302.00047 -10897580.97146  19992058.4384                   19992055.5164
  14080297.56347  10970230.56744  22874434.2584                   22874431.5204
  -3114667.85548  -2416404.30446  20232720.6564                   20232716.4224
 -14658549.41448 -11397404.25746  21219880.6954                   21219877.2464
   5580366.93446   4368255.07343  24293485.6884                   24293484.6174
 -10529397.93447  -8189919.34445  22230553.6644                   22230551.6644
   1161155.00047    917160.26444  23746940.1094                   23746938.9804
 11  7 27 17 37 30.0000000  0  9G03G06G13G16G23G19G08G07G10
  -8858844.00848  -6887567.84246  20819234.2734                   20819232.2384
  -1782335.24647  -1378353.95745  22399601.8134                   22399600.2034
 -14055314.43747 -10937330.93146  19982351.3284                   19982348.0434
  14135155.25047  11012976.77044  22884873.4304                   22884870.7034
  -3104085.24248  -2408158.14946  20234734.6174                   20234730.2114
 -14740377.02047 -11461166.02046  21204309.4384                   21204305.3754
   5477009.69946   4287717.00943  24273817.9064                   24273816.7424
 -10622191.31647  -8262225.87645  22212895.7974                   22212893.6294
   1133785.93046    895833.69744  23741731.8054                   23741731.5664
 11  7 27 17 38  0.0000000  0  9G03G06G13G16G23G19G08G07G10
  -8867064.07048  -6893973.10646  20817669.8754                   20817668.2734
  -1765013.20347  -1364856.28345  22402897.8674                   22402897.3094
 -14105778.40247 -10976653.49846  19972747.9454                   19972745.3204
  14190063.32047  11055762.22144  22895321.9774                   22895319.0784
  -3092966.25448  -2399494.02646  20236850.6254                   20236846.3484
 -14821687.20347 -11524524.58846  21188836.7814                   21188833.1094
   5373588.35546   4207128.96243  24254136.6484                   24254136.7544
 -10714957.44147  -8334511.14145  22195242.6094                   22195240.5474
   1106888.12147    874874.37144  23736613.5554                   23736612.9024
 11  7 27 17 38 30.0000000  0  9G03G06G13G16G23G19G08G07G10
  -8874677.65248  -6899905.78146  20816221.4064                   20816219.4964
  -1747216.77747  -1350988.97645  22406284.6024                   22406283.5554
 -14155696.27347 -11015550.54546  19963248.9304                   19963246.1484
  14245015.91047  11098582.39844  22905779.0634                   22905777.0124
  -3081315.87548  -2390415.84246  20239067.6254                   20239063.2584
 -14902482.00848 -11587481.56446  21173461.7424                   21173457.9104
   5270098.78946   4126487.83443  24234442.6884                   24234443.2894
 -10807700.00047  -8406778.05546  22177594.4064                   22177592.7464
   1080456.55147    854278.24444  23731583.6094                   23731582.9104
 11  7 27 17 39  0.0000000  0  9G03G06G13G16G23G19G08G07G10
  -8881676.17248  -6905359.18546  20814889.5084                   20814887.9104
  -1728938.25047  -1336745.98845  22409762.8674                   22409761.5634
 -14205057.80148 -11054014.09246  19953856.1484                   19953852.9414
  14300020.07447  11141442.72945  22916246.4224                   22916244.0434
  -3069126.03148  -2380917.29546  20241387.0944                   20241382.7664
 -14982749.86748 -11650027.93946  21158187.2114                   21158183.3794
   5166549.99646   4045800.52143  24214738.3134                   24214738.7114
 -10900409.05947  -8479018.86245  22159952.3984                   22159950.5204
   1054499.19147    834051.72244  23726644.1564                   23726643.5084
 11  7 27 17 39 30.0000000  0  9G03G06G13G16G23G19G08G07G10
  -8888065.97748  -6910338.27446  20813673.7504                   20813671.6604
  -1710184.47347  -1322132.68645  22413331.9224                   22413330.3524
 -14253866.43047 -11092046.79346  19944568.0234                   19944564.8404
  14355069.10547  11184338.01144  22926721.9924                   22926719.4344
  -3056402.32848  -2371002.74446  20243808.7584                   20243804.2704
 -15062493.51248 -11712165.82646  21143012.2194                   21143008.6644
   5062937.02746   3965063.20943  24195021.3054                   24195021.3244
 -10993088.93047  -8551236.93545  22142315.7584                   22142313.7464
   1029010.09846    814190.07044  23721793.2734                   23721793.0634
 11  7 27 17 40  0.0000000  0  9G03G06G13G16G23G19G08G07G10
  -8893845.63347  -6914841.89746  20812573.8914                   20812572.0634
  -1690954.69147  -1307148.45845  22416990.9924                   22416990.1374
 -14302118.16847 -11129645.54846  19935385.7814                   19935382.9734
  14410163.61347  11227268.76644  22937206.4144                   22937204.0984
  -3043143.19948  -2360670.97846  20246331.6644                   20246327.4534
 -15141708.59048 -11773891.84346  21127938.2894                   21127934.6604
   4959262.25046   3884277.69143  24175292.8914                   24175293.0434
 -11085736.88747  -8623430.11645  22124685.9384                   22124683.5204
   1003990.48047    794694.25343  23717032.5474                   23717032.7704
 11  7 27 17 40 30.0000000  0  9G03G06G13G16G23G19G08G07G10
  -8899016.25047  -6918870.96846  20811589.6954                   20811588.2664
  -1671251.02347  -1291794.98245  22420740.9454                   22420739.8404
 -14349812.09847 -11166809.64546  19926310.1564                   19926307.0824
  14465301.64546  11270233.42645  22947698.4304                   22947696.5204
  -3029350.30148  -2349923.30046  20248956.4224                   20248951.9574
 -15220393.18747 -11835204.48846  21112965.3054                   21112961.8134
   4855525.09046   3803443.61843  24155552.5554                   24155552.9414
 -11178352.54747  -8695598.16345  22107061.7504                   22107059.1884
    979438.54747    775562.82044  23712360.5704                   23712360.3914
 11  7 27 17 41  0.0000000  0  9G03G06G13G16G23G19G08G07G10
  -8903580.64148  -6922427.65646  20810721.3134                   20810719.5164
  -1651076.64147  -1276074.70045  22424579.4924                   22424578.6844
 -14396948.62947 -11203539.42446  19917340.3834                   19917337.4774
  14520478.82447  11313228.57144  22958198.1884                   22958196.0784
  -3015025.98047  -2338761.51846  20251682.4844                   20251677.6644
 -15298546.80147 -11896103.40546  21098092.9844                   21098089.1764
   4751724.37946   3722559.95444  24135799.8054                   24135799.7114
 -11270937.05947  -8767741.92145  22089443.3754                   22089440.9654
    955351.19546    756793.43544  23707776.6644                   23707776.6374
 11  7 27 17 41 30.0000000  0  9G03G06G13G16G23G19G08G07G10
  -8907537.91847  -6925511.26246  20809968.2734                   20809966.7074
  -1630431.98047  -1259987.98045  22428508.4924                   22428507.0984
 -14443525.25447 -11239832.88946  19908477.2584                   19908474.1024
  14575695.10246  11356254.21644  22968705.3284                   22968702.9614
  -3000170.09048  -2327185.53346  20254509.5394                   20254505.0004
 -15376165.84048 -11956585.74946  21083323.0084                   21083318.7894
   4647861.34446   3641627.78144  24116035.5234                   24116035.4734
 -11363488.03147  -8839859.55645  22071831.0314                   22071829.0314
    931728.82047    738386.38144  23703282.1954                   23703281.5904
 11  7 27 17 42  0.0000000  0  9G03G06G13G16G23G19G08G07G10
  -8910888.70748  -6928122.27446  20809330.8834                   20809329.0744
  -1609317.75447  -1243535.36945  22432526.2114                   22432524.9694
 -14489539.80547 -11275688.39446  19899720.8984                   19899717.9304
  14630949.65247  11399309.63844  22979220.1334                   22979218.0164
  -2984782.77748  -2315195.44646  20257437.5634                   20257433.2194
 -15453247.25847 -12016649.18346  21068654.7034                   21068650.6684
   4543936.38346   3560647.34443  24096259.8284                   24096258.8634
 -11456004.27047  -8911950.10845  22054226.0944                   22054223.8674
    908570.86347    720341.18644  23698875.1484                   23698874.9654
 11  7 27 17 42 30.0000000  0  9G03G06G13G16G23G19G08G07G10
  -7338211.76648  -5702659.75946  21108601.2034                   21108599.4734
    -12314.23847       882.92845  22736425.8284                   22736424.3444
 -12959567.17247 -10083501.93846  20190864.5704                   20190861.8834
  16261661.01647  12669993.76544  23289534.4614                   23289531.7114
  -1393443.15648  -1075190.57446  20560259.3444                   20560254.9574
 -13954364.25447 -10848688.38046  21353882.5474                   21353878.4654
   6015375.64546   4707223.46644  24376263.6564                   24376264.8054
  -9973059.54747  -7756408.75445  22336420.9534                   22336418.7344
   2461299.10247   1930259.25744  23994348.9454                   23994349.0164
 11  7 27 17 43  0.0000000  0  9G03G06G13G16G23G19G08G07G10
  -7340349.15248  -5704325.27346  21108194.7274                   21108192.8244
      9737.23047     18065.84645  22740622.1804                   22740620.7734
 -13004450.19147 -10118475.71746  20182323.8914                   20182321.0864
  16316989.97747  12713107.21144  23300063.1024                   23300060.7664
  -1376992.08248  -1062371.58146  20563389.7504                   20563385.9104
 -14030360.66047 -10907906.32746  21339420.6094                   21339417.0904
   5911331.03946   4626149.78643  24356465.4384                   24356465.0354
 -10065500.52047  -7828440.66645  22318830.2114                   22318828.1134
   2439069.58247   1912937.49744  23990119.5004                   23990119.4264
 11  7 27 17 43 30.0000000  0  9G03G06G13G16G23G19G08G07G10
  -7341883.40647  -5705520.81646  21107903.0474                   21107900.7734
     32252.58247     35610.26845  22744906.6024                   22744904.6024
 -13048767.32447 -10153008.55546  20173890.6484                   20173887.7234
  16372351.63347  12756246.08844  23310598.4774                   23310596.1724
  -1360013.18048  -1049141.29546  20566621.1094                   20566616.6334
 -14105813.93747 -10966701.07246  21325062.4924                   21325058.7584
   5807224.91446   4545028.09644  24336654.5394                   24336654.0824
 -10157904.82047  -7900444.02746  22301246.0864                   22301243.9064
   2417300.27347   1895974.35944  23985976.6644                   23985976.4694
 11  7 27 17 44  0.0000000  0  9G03G06G13G16G23G19G08G07G10
  -7342808.79748  -5706241.91546  21107726.7814                   21107724.6644
     55237.13747     53520.28045  22749280.6484                   22749279.1994
 -13092510.78547 -10187094.37247  20165566.7504                   20165563.6724
  16427751.09447  12799414.45644  23321140.2194                   23321138.1764
  -1342500.27748  -1035494.92746  20569953.7114                   20569948.9264
 -14180714.48448 -11025065.11846  21310809.5864                   21310805.6414
   5703064.11346   4463863.91944  24316833.2344                   24316833.0904
 -10250264.60247  -7972412.65945  22283670.1954                   22283667.9844
   2395997.00847   1879374.38544  23981922.6644                   23981922.0784
 11  7 27 17 44 30.0000000  0  9G03G06G13G16G23G19G08G07G10
  -7343136.62148  -5706497.37346  21107664.3284                   21107662.3404
     78678.67647     71786.36745  22753741.6174                   22753739.5474
 -13135689.75847 -10220740.32747  20157350.0164                   20157347.0204
  16483176.07846  12842602.73344  23331687.1484                   23331684.9414
  -1324464.99648  -1021441.48446  20573385.9534                   20573380.9414
 -14255071.06248 -11083005.28846  21296659.6334                   21296656.2544
   5598838.18846   4382648.98243  24296999.8134                   24296999.2664
 -10342589.99247  -8044354.51745  22266101.8834                   22266099.5554
   2375147.68047   1863128.15444  23977955.5084                   23977954.7234
 11  7 27 17 45  0.0000000  0  9G03G06G13G16G23G19G08G07G10
  -7342861.48048  -5706282.99746  21107716.6804                   21107714.5514
    102582.15647     90412.43045  22758290.3284                   22758288.7074
 -13178296.32847 -10253940.27146  20149241.9614                   20149239.4924
  16538631.79347  12885814.94344  23342239.8674                   23342237.7584
  -1305901.42248  -1006976.38946  20576917.9534                   20576913.6134
 -14328874.79748 -11140514.67646  21282615.3204                   21282611.7464
   5494553.92646   4301388.54543  24277155.6334                   24277154.9964
 -10434873.29347  -8116263.55645  22248541.1254                   22248538.2544
   2354757.83247   1847239.89744  23974075.5234                   23974075.2774
 11  7 27 17 45 30.0000000  0  9G03G06G13G16G23G19G08G07G10
  -7341988.65248  -5705602.89446  21107882.8594                   21107880.6604
    126941.55947    109393.74545  22762925.9064                   22762924.6214
 -13220333.60947 -10286696.59846  20141242.5164                   20141239.9304
  16594112.14547  12929046.30044  23352798.1254                   23352795.7664
  -1286815.40648   -992104.20946  20580550.0004                   20580545.5554
 -14402128.07848 -11197595.14546  21268675.8524                   21268671.9104
   5390207.41046   4220079.55543  24257298.8054                   24257298.3984
 -10527117.94947  -8188142.50845  22230987.3284                   22230984.7274
   2334821.69947   1831705.22644  23970281.7424                   23970281.2504
 11  7 27 17 46  0.0000000  0  9G03G06G13G16G23G19G08G07G10
  -7340518.71948  -5704457.49546  21108162.1884                   21108160.4414
    151755.77047    128729.46845  22767647.3204                   22767646.0124
 -13261799.54747 -10319007.72946  20133352.0164                   20133349.2464
  16649616.30547  12972296.28044  23363359.8444                   23363357.6414
  -1267207.03947   -976825.00746  20584281.5784                   20584277.4144
 -14474827.92247 -11254244.36046  21254841.1414                   21254837.6804
   5285799.50046   4138722.78744  24237430.5164                   24237430.2544
 -10619322.41847  -8259990.12645  22213441.2424                   22213439.0944
   2315338.60546   1816523.52844  23966573.2814                   23966574.1214
 11  7 27 17 46 30.0000000  0  9G03G06G13G16G23G19G08G07G10
  -7338452.12148  -5702847.15946  21108555.3674                   21108553.5904
    177023.73847    148418.76145  22772455.3444                   22772455.0704
 -13302692.55947 -10350872.43146  20125570.6254                   20125567.5984
  16705142.95747  13015563.73844  23373926.7814                   23373923.9264
  -1247076.87548   -961139.20346  20588112.1644                   20588107.9384
 -14546971.91447 -11310460.44546  21241112.7734                   21241109.4184
   5181330.79347   4057318.66244  24217551.2894                   24217550.9104
 -10711485.46547  -8331805.47845  22195903.6484                   22195901.1524
   2296307.98446   1801694.45643  23962952.9694                   23962952.6564
 11  7 27 17 47  0.0000000  0  9G03G06G13G16G23G19G08G07G10
  -7335790.22348  -5700772.98346  21109062.3364                   21109060.4614
    202743.76647    168460.29845  22777350.3834                   22777349.1994
 -13343011.52047 -10382289.82246  20117898.0234                   20117895.3134
  16760690.75047  13058847.66444  23384496.7504                   23384494.4384
  -1226426.01648   -945047.65846  20592041.8284                   20592037.4574
 -14618557.95747 -11366241.77546  21227490.5784                   21227486.7544
   5076801.77347   3975867.53043  24197659.8834                   24197659.1414
 -10803605.86347  -8403587.59145  22178373.5704                   22178370.9064
   2277728.68046   1787217.03043  23959417.2424                   23959417.2344
 11  7 27 17 47 30.0000000  0  9G03G06G13G16G23G19G08G07G10
  -7332535.35948  -5698236.73446  21109681.4924                   21109679.6684
    228912.93847    188851.83344  22782330.1884                   22782328.2114
 -13382756.01247 -10413259.56946  20110334.9224                   20110332.0044
  16816257.13747  13102146.10244  23395070.9384                   23395068.6564
  -1205256.67648   -928552.09646  20596070.1884                   20596065.9454
 -14689585.01648 -11421587.51446  21213974.3134                   21213971.0124
   4972211.30147   3894368.46443  24177756.5944                   24177755.7544
 -10895684.05147  -8475336.81345  22160851.4224                   22160849.0394
   2259597.91046   1773089.12644  23955965.7584                   23955967.2194
 11  7 27 17 48  0.0000000  0  9G03G06G13G16G23G19G08G07G10
  -7328688.14848  -5695238.92446  21110413.3834                   21110411.8524
    255529.87547    209592.26645  22787395.3984                   22787393.7624
 -13421924.79747 -10443780.71246  20102881.1724                   20102878.6564
  16871840.69146  13145457.93044  23405647.6804                   23405645.9734
  -1183569.69548   -911653.18746  20600197.3834                   20600192.9304
 -14760050.81647 -11476495.93246  21200565.2504                   21200561.6054
   4867559.90247   3812821.95844  24157842.2584                   24157841.4344
 -10987718.65647  -8547052.06746  22143337.7584                   22143335.4454
   2241914.75046   1759310.02944  23952601.6804                   23952601.1994
 11  7 27 17 48 30.0000000  0  9G03G06G13G16G23G19G08G07G10
  -7324249.98448  -5691780.62146  21111258.3204                   21111256.4654
    282592.63747    230680.11944  22792544.7194                   22792543.3714
 -13460516.95747 -10473852.53847  20095537.4384                   20095534.6524
  16927439.85546  13188781.85444  23416228.0084                   23416226.0084
  -1161366.08248   -894351.70346  20604422.5394                   20604418.4694
 -14829953.49247 -11530965.54246  21187263.1884                   21187259.6374
   4762847.71547   3731228.07144  24137916.5784                   24137915.9104
 -11079709.03947  -8618732.85445  22125832.4144                   22125830.1054
   2224677.75046   1745878.55143  23949321.1254                   23949321.9384
 11  7 27 17 49  0.0000000  0  9G03G06G13G16G23G19G08G07G10
  -7319224.74248  -5687864.86346  21112214.3054                   21112212.2304
    310096.80947    252111.93044  22797778.9224                   22797778.0474
 -13498534.00047 -10503476.22546  20088303.0704                   20088300.4574
  16983050.19547  13232114.54644  23426810.5634                   23426808.2194
  -1138649.96148   -876650.87046  20608745.1414                   20608741.1094
 -14899294.07447 -11584997.15346  21174068.2734                   21174064.1484
   4658072.57847   3649585.19044  24117977.8674                   24117977.1054
 -11171656.73047  -8690380.40045  22108335.2504                   22108333.1254
   2207882.49647   1732791.31543  23946125.9064                   23946126.1524
 11  7 27 17 49 30.0000000  0  9G03G06G13G16G23G19G08G07G10
  -7313610.65248  -5683490.26546  21113283.0784                   21113281.0314
    338043.37547    273888.42645  22803096.3134                   22803095.9884
 -13535972.21147 -10532648.86847  20081178.6094                   20081176.3054
  17038673.51646  13275457.34344  23437395.2344                   23437393.6954
  -1115419.66448   -858549.38046  20613165.6804                   20613161.8284
 -14968067.76647 -11638587.03046  21160980.9224                   21160976.9304
   4553237.60947   3567895.61744  24098029.0704                   24098028.5514
 -11263558.16447  -8761991.88345  22090847.2664                   22090845.0234
   2191530.54747   1720049.47944  23943014.5164                   23943014.4884
 11  7 27 17 50  0.0000000  0  9G03G06G13G16G23G19G08G07G10
  -7307411.27048  -5678659.58346  21114462.5234                   21114460.8874
    366428.63747    296006.79045  22808498.6564                   22808497.4654
 -13572832.29747 -10561371.02047  20074164.3984                   20074161.6374
  17094306.09846  13318807.34644  23447981.7344                   23447979.6524
  -1091678.39548   -840049.72346  20617683.5634                   20617679.6094
 -15036274.50847 -11691735.13546  21148001.4304                   21147997.8714
   4448341.03146   3486158.07643  24078067.0394                   24078066.9654
 -11355414.48847  -8833568.21946  22073367.3524                   22073365.3524
   2175618.79347   1707650.64344  23939986.4454                   23939986.2664
 11  7 27 17 50 30.0000000  0  9G03G06G13G16G23G19G08G07G10
  -7300625.52048  -5673372.00146  21115753.5394                   21115751.7974
    395253.13347    318467.39945  22813983.3364                   22813982.9064
 -13609110.93447 -10589640.11046  20067261.0784                   20067257.8754
  17149948.64146  13362165.08444  23458570.7664                   23458568.3094
  -1067425.49247   -821151.39646  20622298.6724                   20622294.7734
 -15103910.15647 -11744438.21946  21135130.9534                   21135127.2734
   4343385.34047   3404374.47944  24058094.6564                   24058094.4694
 -11447221.99647  -8905106.53746  22055897.0314                   22055895.1604
   2160147.86747   1695595.36144  23937042.8134                   23937042.3164
 11  7 27 17 51  0.0000000  0  9G03G06G13G16G23G19G08G07G10
  -7293251.82048  -5667626.27645  21117156.6644                   21117154.7624
    424517.94947    341271.10845  22819552.5234                   22819551.6054
 -13644804.15247 -10617453.01946  20060468.8674                   20060466.1174
  17205602.88346  13405531.97844  23469161.2344                   23469159.1684
  -1042658.77747   -801852.69646  20627011.8524                   20627007.8794
 -15170969.93447 -11796692.57746  21122369.8594                   21122366.3634
   4238373.90647   3322547.47843  24038111.6334                   24038111.4694
 -11538976.88747  -8976603.84045  22038436.4774                   22038434.5704
   2145119.43047   1683884.86944  23934182.1644                   23934182.5944
 11  7 27 17 51 30.0000000  0  9G03G06G13G16G23G19G08G07G10
  -7285295.90648  -5661426.87345  21118670.7734                   21118668.9384
    454216.82047    364413.06544  22825203.7274                   22825203.1294
 -13679915.46548 -10644812.49046  20053787.1884                   20053784.5984
  17261262.68846  13448903.18144  23479753.6954                   23479750.4734
  -1017383.54748   -782157.74146  20631821.5394                   20631817.6914
 -15237456.38347 -11848500.19546  21109718.0394                   21109714.0124
   4133302.64847   3240673.79744  24018117.6334                   24018117.4454
 -11630682.75847  -9048062.94446  22020985.6094                   22020983.2624
   2130527.18046   1672514.23144  23931405.4774                   23931405.6374
 11  7 27 17 52  0.0000000  0  9G03G06G13G16G23G19G08G07G10
  -7276755.85548  -5654772.31546  21120296.3054                   21120294.0944
    484351.05547    387894.25145  22830938.1804                   22830936.9344
 -13714440.68748 -10671715.27446  20047217.1884                   20047214.8634
  17316929.97746  13492280.21144  23490346.5084                   23490344.2344
   -991598.23847   -762065.33946  20636728.3054                   20636724.5514
 -15303364.59847 -11899857.25246  21097176.1884                   21097172.2234
   4028174.94146   3158756.19044  23998112.5944                   23998112.0274
 -11722335.24247  -9119480.44245  22003544.8284                   22003542.4694
   2116373.03147   1661484.95444  23928712.9534                   23928712.2544
 11  7 27 17 52 30.0000000  0  9G03G06G13G16G23G19G08G07G10
  -7267638.56248  -5647667.94945  21122030.8204                   21122029.3524
    514913.41847    411709.07544  22836754.3204                   22836753.6564
 -13748384.18747 -10698164.76647  20040757.7974                   20040755.6484
  17372597.79546  13535657.74544  23500939.3134                   23500936.6954
   -965309.66848   -741580.77646  20641730.8594                   20641726.9614
 -15368698.07047 -11950766.43846  21084743.8134                   21084739.9184
   3922985.97746   3076790.82543  23978095.4614                   23978094.3674
 -11813938.80947  -9190859.84145  21986112.7814                   21986111.0664
   2102650.09446   1650791.69643  23926101.5704                   23926100.2544
 11  7 27 17 53  0.0000000  0  9G03G06G13G16G23G19G08G07G10
  -7257942.66448  -5640112.71445  21123875.6644                   21123874.0784
    545904.93047    435858.26644  22842651.8134                   22842650.4104
 -13781742.12547 -10724157.96846  20034410.2814                   20034407.8404
  17428267.95746  13579036.97044  23511532.5944                   23511530.8444
   -938515.93048   -720702.57346  20646829.6024                   20646825.2814
 -15433452.21147 -12001224.19246  21072421.1884                   21072417.5944
   3817739.09047   2994780.25243  23958067.6024                   23958066.3554
 -11905489.19147  -9262197.80246  21968691.8444                   21968689.3634
   2089359.58247   1640435.40643  23923571.7814                   23923571.2344
 11  7 27 17 53 30.0000000  0  9G03G06G13G16G23G19G08G07G10
  -7247670.80148  -5632108.67945  21125831.0634                   21125829.0824
    577322.27047    460339.27845  22848630.4304                   22848628.9454
 -13814515.22348 -10749695.45646  20028173.4144                   20028171.2304
  17483937.10546  13622415.47344  23522126.0944                   23522124.5904
   -911220.46548   -699433.41746  20652024.3134                   20652019.1954
 -15497626.90647 -12051230.43546  21060209.1724                   21060205.5944
   3712432.73047   2912723.38244  23938028.3594                   23938027.4224
 -11996987.34847  -9333495.03946  21951280.3284                   21951277.9654
   2076498.65246   1630413.87143  23921124.7974                   23921123.7894
 11  7 27 17 54  0.0000000  0  9G03G06G13G16G23G19G08G07G10
  -7236824.54348  -5623657.07746  21127894.6804                   21127892.4454
    609163.50847    485150.60045  22854689.4694                   22854688.4844
 -13846702.76647 -10774776.67346  20022048.5004                   20022046.2504
  17539603.86346  13665792.08844  23532720.0234                   23532717.5904
   -883424.59048   -677774.33546  20657313.0784                   20657309.0704
 -15561220.59447 -12100783.94446  21048107.9534                   21048104.0744
   3607067.16047   2830620.35644  23917977.7814                   23917977.2074
 -12088432.23447  -9404750.77846  21933878.9384                   21933876.7854
   2064065.66046   1620725.79243  23918759.1884                   23918758.5864
 11  7 27 17 54 30.0000000  0  9G03G06G13G16G23G19G08G07G10
  -7225400.05548  -5614754.90045  21130068.7034                   21130066.7194
    641432.29747    510295.08045  22860830.7734                   22860829.4694
 -13878298.03147 -10799396.36546  20016036.3524                   20016033.6684
  17595272.72746  13709170.33144  23543313.6334                   23543310.6454
   -855123.76248   -655721.77646  20662698.4774                   20662694.8444
 -15624225.55147 -12149878.71246  21036118.3284                   21036114.6414
   3501648.91447   2748476.26344  23897917.0634                   23897916.7154
 -12179816.84447  -9475959.55346  21916488.8364                   21916486.5234
   2052064.68046   1611374.36243  23916475.0394                   23916475.1054
 11  7 27 17 55  0.0000000  0  9G03G06G13G16G23G19G08G07G10
  -7213403.82048  -5605407.20146  21132351.8284                   21132349.7624
    674121.52347    535767.17244  22867050.6024                   22867049.7934
 -13909305.60547 -10823558.12746  20010135.8444                   20010133.3524
  17650937.05946  13752545.09444  23553906.3284                   23553903.7584
   -826324.59448   -633280.90246  20668178.6804                   20668175.0234
 -15686645.73447 -12198517.79446  21024240.2344                   21024236.4694
   3396172.62147   2666287.03444  23877845.7274                   23877845.5944
 -12271145.77747  -9547124.93646  21899109.4064                   21899107.0824
   2040488.46547   1602353.86543  23914272.1094                   23914271.9534
 11  7 27 17 55 30.0000000  0  9G03G06G13G16G23G19G08G07G10
  -7200840.85548  -5595617.88246  21134742.5164                   21134740.6954
    707225.82047    561562.69144  22873349.8914                   22873349.5274
 -13939728.17647 -10847264.03347  20004346.6954                   20004344.0354
  17706591.88346  13795912.43744  23564496.3284                   23564494.2154
   -797031.80948   -610455.39046  20673753.1024                   20673749.0634
 -15748482.90247 -12246702.58146  21012472.9614                   21012468.7854
   3290635.67247   2584050.45844  23857763.2344                   23857762.2274
 -12362421.03147  -9618248.50546  21881740.6724                   21881738.2274
   2029332.11746   1593660.59243  23912149.3364                   23912149.1414
 11  7 27 17 56  0.0000000  0  9G03G06G13G16G23G19G08G07G10
  -7187704.87548  -5585382.07446  21137242.0864                   21137240.2894
    740751.10247    587686.25744  22879729.8834                   22879728.4064
 -13969557.04347 -10870507.31846  19998670.3754                   19998667.8054
  17762243.91447  13839277.60244  23575087.0864                   23575084.3984
   -767239.41847   -587240.57446  20679422.6724                   20679418.2704
 -15809727.48847 -12294425.61946  21000818.1954                   21000814.7424
   3185046.11347   2501772.88844  23837669.8284                   23837669.0744
 -12453633.68047  -9689323.26946  21864383.3284                   21864381.0824
   2018602.19146   1585299.51943  23910108.0394                   23910107.4454
 11  7 27 17 56 30.0000000  0  9G03G06G13G16G23G19G08G07G10
  -7174003.25848  -5574705.50946  21139849.4924                   21139847.7774
    774689.76647    614131.92945  22886188.5084                   22886187.1954
 -13998797.37947 -10893292.01147  19993106.0234                   19993103.8364
  17817885.82046  13882634.91644  23585675.3594                   23585672.9184
   -736954.76247   -563642.18146  20685185.4694                   20685181.5164
 -15870383.84047 -12341690.29646  20989275.7194                   20989271.8364
   3079398.32846   2419450.01143  23817565.4844                   23817565.5044
 -12544788.68047  -9760353.13946  21847037.0784                   21847034.5864
   2008291.27346   1577264.94744  23908145.1094                   23908145.4454
 11  7 27 17 57  0.0000000  0  9G03G06G13G16G23G19G08G07G10
  -7159736.50848  -5563588.57845  21142564.3674                   21142562.7934
    809040.82847    640898.95545  22892725.2974                   22892723.9224
 -14027447.22347 -10915616.58646  19987654.1884                   19987651.6954
  17873517.53546  13925984.19243  23596261.0634                   23596259.1174
   -706177.73448   -539660.12546  20691042.2274                   20691038.3204
 -15930449.25047 -12388494.50746  20977845.7344                   20977841.7774
   2973694.12546   2337083.12844  23797451.2424                   23797450.6024
 -12635883.56247  -9831336.14446  21829702.2974                   21829699.8204
   1998398.45346   1569556.23644  23906263.0394                   23906263.2814
 11  7 27 17 57 30.0000000  0  9G03G06G13G16G23G19G08G07G10
  -7144905.66448  -5552032.09145  21145386.3754                   21145384.6804
    843802.72747    667986.10745  22899339.9614                   22899339.3834
 -14055505.71547 -10937480.35946  19982315.1884                   19982312.3794
  17929137.74246  13969324.57743  23606845.2584                   23606843.3134
   -674909.83248   -515295.57246  20696992.6334                   20696988.3554
 -15989921.84047 -12434836.77546  20966528.7584                   20966524.7894
   2867934.00446   2254672.65244  23777325.1644                   23777324.7774
 -12726917.14547  -9902271.39446  21812379.0314                   21812376.8834
   1988922.26246   1562172.12944  23904459.8984                   23904459.8554
 11  7 27 17 58  0.0000000  0  9G03G06G13G16G23G19G08G07G10
  -7129510.94948  -5540036.22045  21148315.8524                   21148314.4534
    878975.02747    695393.05145  22906033.2664                   22906032.0274
 -14082970.55947 -10958881.55146  19977088.5084                   19977085.8674
  17984747.14146  14012656.50043  23617427.9304                   23617426.0434
   -643150.87948   -490548.36946  20703035.9304                   20703032.0354
 -16048798.78147 -12480714.89846  20955324.6804                   20955320.6414
   2762120.57446   2172220.67844  23757189.4774                   23757188.8674
 -12817886.42247  -9973156.53646  21795068.1414                   21795065.9654
   1979862.92246   1555112.88444  23902736.2664                   23902735.7734
 11  7 27 17 58 30.0000000  0  9G03G06G13G16G23G19G08G07G10
  -7113557.50448  -5527604.98945  21151351.9614                   21151350.5394
    914551.91847    723115.27944  22912803.0944                   22912802.0354
 -14109844.66047 -10979822.41946  19971974.5234                   19971972.2194
  18040340.75446  14055976.18343  23628007.0474                   23628004.5234
   -610905.99648   -465422.53246  20709172.0474                   20709167.7194
 -16107082.05947 -12526130.42346  20944233.7344                   20944229.3914
   2656250.27346   2089724.37844  23737043.0944                   23737042.8324
 -12908794.05947 -10043993.64246  21777769.1024                   21777766.6844
   1971215.10247   1548374.25943  23901090.9224                   23901090.2544
 11  7 27 17 59  0.0000000  0  9G03G06G13G16G23G19G08G07G10
  -7097047.77348  -5514740.28145  21154493.1024                   21154491.5434
    950531.19547    751151.02744  22919650.3984                   22919649.0904
 -14136127.82047 -11000302.80846  19966973.0164                   19966970.2704
  18095916.78146  14099282.06443  23638582.6804                   23638580.6994
   -578177.49248   -439919.83246  20715400.1024                   20715396.3914
 -16164770.68447 -12571082.59546  20933255.8674                   20933251.8594
   2550322.94547   2007183.64144  23716885.9144                   23716885.4064
 -12999639.60247 -10114782.35746  21760481.8594                   21760479.4344
   1962976.47346   1541954.48744  23899522.6094                   23899522.8404
 11  7 27 17 59 30.0000000  0  9G03G06G13G16G23G19G08G07G10
  -7079986.26248  -5501445.62045  21157739.8284                   21157738.4654
    986907.76647    779496.36545  22926572.3914                   22926571.4064
 -14161822.74247 -11020324.84947  19962083.2974                   19962081.1844
  18151471.38346  14142571.58043  23649154.1954                   23649152.5944
   -544969.77348   -414043.74546  20721719.4304                   20721715.5864
 -16221866.34047 -12615572.71446  20922391.1094                   20922386.7274
   2444336.26247   1924596.64144  23696717.5554                   23696717.0514
 -13090424.39148 -10185523.73946  21743206.3914                   21743203.5514
   1955142.25046   1535849.84244  23898031.9614                   23898031.9804
 11  7 27 18  0  0.0000000  0 10G03G06G13G16G28G23G19G08G07G10
  -7062375.92247  -5487723.29246  21161091.1174                   21161089.7894
   1023678.59447    808148.91744  22933569.2034                   22933568.6024
 -14186929.68447 -11039888.70446  19957306.0704                   19957303.3134
  18207000.89146  14185841.21943  23659721.5864                   23659718.7234
   9306187.28156   7269618.58353  24314213.8754                   24314213.2384
   -511285.12948   -387795.99646  20728129.1414                   20728125.2894
 -16278368.75048 -12659600.54546  20911638.8914                   20911635.1804
   2338289.49247   1841962.85144  23676536.9844                   23676536.9184
 -13181148.75448 -10256218.03146  21725941.8204                   21725939.1414
   1947709.70746   1530058.20143  23896617.5394                   23896618.0164
 11  7 27 18  0 30.0000000  0 10G03G06G13G16G28G23G19G08G07G10
  -7044229.05148  -5473582.89445  21164544.6724                   21164543.4304
   1060830.70747    837098.56044  22940639.5704                   22940638.8014
 -14211459.17247 -11059002.61446  19952638.2734                   19952635.5164
  18262494.13346  14229082.61943  23670281.8834                   23670278.6914
   9199622.15247   7186580.86343  24293935.0234                   24293934.6724
   -477136.41048   -361186.65646  20734627.7114                   20734623.8594
 -16334287.40247 -12703173.53146  20900997.3594                   20900993.6484
   2232172.03947   1759273.96144  23656344.0864                   23656342.9414
 -13271822.12548 -10326872.60746  21708686.9924                   21708684.6374
   1940665.85246   1524569.44443  23895277.0554                   23895277.5984
 11  7 27 18  1  0.0000000  0 10G03G06G13G16G28G23G19G08G07G10
  -7025550.52748  -5459028.22245  21168098.8444                   21168097.9024
   1098358.84847    866341.20244  22947781.0164                   22947780.1374
 -14235413.52347 -11077668.35747  19948079.7424                   19948077.4024
  18317946.66446  14272292.37843  23680834.1254                   23680831.1524
   9093249.20346   7103692.94443  24273692.9844                   24273692.9964
   -442528.37948   -334219.41146  20741213.3054                   20741209.1024
 -16389623.78948 -12746292.78846  20890467.7664                   20890463.9304
   2125981.61347   1676528.19844  23636136.0784                   23636135.7624
 -13362446.58648 -10397489.06346  21691441.7274                   21691439.2424
   1934005.93446   1519379.80043  23894010.3834                   23894009.9614
 11  7 27 18  1 30.0000000  0 10G03G06G13G16G28G23G19G08G07G10
  -7006337.82448  -5444057.29545  21171754.7814                   21171754.0474
   1136265.80147    895879.06844  22954993.9924                   22954993.5274
 -14258787.81247 -11095882.10746  19943631.7504                   19943629.2074
  18373362.00846  14315473.05844  23691378.8754                   23691377.2114
   8987073.58246   7020958.78243  24253488.2734                   24253487.4024
   -407458.00048   -306891.87746  20747887.2114                   20747883.2894
 -16444372.19548 -12788953.87346  20880049.1334                   20880045.3404
   2019723.41847   1593729.66643  23615916.2814                   23615914.8484
 -13453016.20348 -10468062.76146  21674207.0864                   21674204.7464
   1927732.65646   1514491.49844  23892816.2734                   23892816.4694
 11  7 27 18  2  0.0000000  0 10G03G06G13G16G28G23G19G08G07G10
  -6986592.38748  -5428671.26945  21175512.5004                   21175511.3134
   1174549.63747    925710.60744  22962279.3594                   22962278.5394
 -14281581.57047 -11113643.48846  19939294.2894                   19939291.5164
  18428739.00846  14358623.91143  23701917.2734                   23701914.9454
   8881096.18046   6938379.10343  24233320.9064                   24233320.1054
   -371926.76648   -279205.26046  20754648.3364                   20754644.4224
 -16498531.56648 -12831155.97046  20869743.5004                   20869739.3914
   1913398.00447   1510878.74044  23595683.2664                   23595682.1954
 -13543529.87148 -10538592.88446  21656982.7814                   21656980.3094
   1921844.79346   1509903.45844  23891696.2194                   23891695.3244
 11  7 27 18  2 30.0000000  0 10G03G06G13G16G28G23G19G08G07G10
  -6966309.12948  -5412866.15245  21179372.2034                   21179370.8984
   1213214.82446    955839.28344  22969637.4454                   22969636.2154
 -14303787.64547 -11130946.94546  19935068.7584                   19935066.1214
  18484083.20346  14401749.18044  23712448.3444                   23712447.3324
   8775323.98846   6855959.27643  24213193.1804                   24213193.8054
   -335929.69548   -251155.63646  20761498.5704                   20761494.5984
 -16552093.73847 -12872892.72246  20859550.3754                   20859546.7154
   1807012.57847   1427981.00843  23575438.8914                   23575437.6254
 -13633979.45748 -10609073.08246  21639770.6254                   21639768.9494
   1916346.91846   1505619.38044  23890649.9384                   23890649.8984
 11  7 27 18  3  0.0000000  0 10G03G06G13G16G28G23G19G08G07G10
  -6945484.55548  -5396639.23645  21183335.3444                   21183333.5274
   1252265.03147    986267.94644  22977068.1884                   22977067.6804
 -14325399.84048 -11147787.63446  19930956.1954                   19930953.3634
  18539398.75446  14444852.10544  23722974.7034                   23722973.9964
   8669763.27746   6773704.25643  24193105.0314                   24193105.8054
   -299462.85548   -222739.97246  20768438.1024                   20768434.0084
 -16605051.67247 -12914158.64746  20849472.6954                   20849469.5044
   1700573.54347   1345041.57044  23555184.2424                   23555182.9844
 -13724358.28948 -10679498.12946  21622572.3444                   21622570.1564
   1911242.80146   1501642.09844  23889678.2424                   23889678.3594
 11  7 27 18  3 30.0000000  0 10G03G06G13G16G28G23G19G08G07G10
  -6924127.53547  -5379997.43645  21187399.1254                   21187397.6644
   1291691.06646   1016989.52344  22984570.7664                   22984569.9344
 -14346425.05947 -11164170.95846  19926955.3284                   19926952.6604
  18594677.30146  14487926.27544  23733493.9224                   23733492.4734
   8564407.36746   6691608.77343  24173057.8524                   24173056.8404
   -262535.25047   -193965.26646  20775465.0394                   20775461.3524
 -16657411.69147 -12954958.65046  20839509.3754                   20839505.3484
   1594073.79347   1262054.81243  23534917.3834                   23534917.1024
 -13814672.13348 -10749872.55946  21605386.1414                   21605384.0394
   1906523.30547   1497964.52343  23888780.8364                   23888780.6914
 11  7 27 18  4  0.0000000  0 10G03G06G13G16G28G23G19G08G07G10
  -6902238.55147  -5362941.10145  21191564.3524                   21191563.0164
   1331492.61346   1048003.66444  22992144.9924                   22992144.2344
 -14366861.18748 -11180095.22946  19923066.2814                   19923063.5594
  18649920.00047  14530972.47444  23744007.0314                   23744005.1484
   8459258.50846   6609674.71443  24153047.7504                   24153046.8674
   -225146.73048   -164831.40646  20782579.6644                   20782576.2464
 -16709170.64147 -12995290.29546  20829659.8674                   20829656.0084
   1487515.64847   1179022.52544  23514639.9844                   23514639.4144
 -13904917.94148 -10820193.95246  21588212.7814                   21588210.8164
   1902188.51646   1494586.64643  23887955.8444                   23887954.9694
 11  7 27 18  4 30.0000000  0 10G03G06G13G16G28G23G19G08G07G10
  -5304396.83247  -4117869.65945  21495623.7424                   21495622.5784
   2947088.92246   2306909.87044  23299582.4304                   23299581.7074
 -12811284.30547  -9967957.41946  20219082.4924                   20219080.0944
  20280546.37946  15801590.33644  24054305.1884                   24054303.0514
   9929743.72746   7755507.34343  24432871.6484                   24432871.4654
   1388122.74647   1092261.63946  21089575.0784                   21089571.4774
 -15184902.84847 -11807549.16046  21119718.1414                   21119714.8014
   2956326.22747   2323550.29844  23794145.2814                   23794144.5274
 -12419668.86747  -9662857.01546  21870846.6174                   21870843.9534
   3473659.55146   2719109.50643  24186996.9924                   24186996.5164
 11  7 27 18  5  0.0000000  0 10G03G06G13G16G28G23G19G08G07G10
  -5281444.52047  -4099984.77045  21499991.5314                   21499990.2974
   2987639.21946   2338507.47444  23307298.9304                   23307298.2344
 -12830537.07847  -9982959.60546  20215419.0864                   20215416.0864
  20335717.25046  15844580.55244  24064803.1884                   24064800.9844
   9825014.73847   7673900.47843  24412942.6334                   24412943.3364
   1426432.14848   1122113.06746  21096864.9144                   21096861.3014
 -15235452.12547 -11846938.20346  21110099.0084                   21110095.2544
   2849657.38347   2240431.75544  23773847.0784                   23773846.3594
 -12509771.17248  -9733066.57346  21853700.7974                   21853697.7704
   3470092.59046   2716330.01343  24186318.6954                   24186317.5234
 11  7 27 18  5 30.0000000  0 10G03G06G13G16G28G23G19G08G07G10
  -5257963.62947  -4081688.00945  21504459.7274                   21504458.5354
   3028560.35546   2370394.02744  23315086.3284                   23315084.7544
 -12849197.96147  -9997500.56446  20211867.7584                   20211865.2734
  20390850.46946  15887541.42843  24075294.8284                   24075292.6644
   9720496.16046   7592457.45743  24393053.7734                   24393053.5434
   1465199.09048   1152321.02746  21104242.1724                   21104238.3404
 -15285395.33247 -11885854.97946  21100595.0314                   21100591.3484
   2742933.78946   2157270.53544  23753538.1954                   23753537.2154
 -12599799.60948  -9803218.60546  21836568.5004                   21836566.2384
   3466906.35946   2713847.15543  24185711.8284                   24185710.9534
 11  7 27 18  6  0.0000000  0 10G03G06G13G16G28G23G19G08G07G10
  -5233955.01647  -4062980.03045  21509028.4844                   21509026.9264
   3069851.43046   2402568.83944  23322943.7894                   23322942.9774
 -12867265.59047 -10011579.26646  20208429.7344                   20208426.8404
  20445946.02346  15930472.94844  24085779.0784                   24085777.3714
   9616189.46947   7511179.57243  24373204.0234                   24373203.5514
   1504422.77748   1182884.89746  21111706.1724                   21111702.0744
 -15334730.15647 -11924297.69446  21091207.2274                   21091203.4964
   2636157.57447   2074068.34944  23733219.7114                   23733218.3754
 -12689752.15648  -9873311.48846  21819451.0944                   21819448.9804
   3464099.94147   2711660.27643  24185177.3594                   24185177.6764
 11  7 27 18  6 30.0000000  0 10G03G06G13G16G28G23G19G08G07G10
  -5209421.16447  -4043862.77345  21513697.6094                   21513695.7504
   3111510.13347   2435030.12944  23330870.9454                   23330870.2774
 -12884739.95747 -10025195.68046  20205104.3754                   20205101.6294
  20501002.24646  15973373.86544  24096256.1254                   24096254.7814
   9512094.82847   7430066.89243  24353395.7974                   24353394.8554
   1544100.93848   1213802.88146  21119256.5314                   21119252.8094
 -15383455.87947 -11962265.79046  21081935.3914                   21081931.2384
   2529328.87946   1990825.22144  23712890.6724                   23712889.9264
 -12779627.86748  -9943344.53246  21802348.2194                   21802346.0124
   3461671.27347   2709767.79843  24184715.5554                   24184714.8094
 11  7 27 18  7  0.0000000  0 10G03G06G13G16G28G23G19G08G07G10
  -5184359.32847  -4024334.10345  21518466.2814                   21518465.0784
   3153538.76646   2467779.66244  23338868.6254                   23338868.0864
 -12901616.55147 -10038346.29546  20201892.9694                   20201890.3954
  20556022.79346  16016246.98744  24106726.2344                   24106724.3834
   9408217.37947   7349123.51743  24333628.8054                   24333628.8954
   1584236.49248   1245077.29146  21126894.3754                   21126890.4414
 -15431567.25047 -11999755.17246  21072779.5864                   21072775.8594
   2422452.73046   1907545.10144  23692552.7584                   23692551.6954
 -12869420.89548 -10013313.12746  21785261.2114                   21785258.6764
   3459622.97746   2708171.66643  24184325.6254                   24184325.1884
 11  7 27 18  7 30.0000000  0 11G03G06G13G16G28G23G19G08G07G10G11
  -5158784.21947  -4004405.46045  21523332.9064                   21523331.4964
   3195922.50047   2500805.91144  23346933.4454                   23346933.0274
 -12917907.88347 -10051040.86146  20198792.8754                   20198790.2934
  20610993.89546  16059081.53744  24117187.3204                   24117185.1764
   9304544.81347   7268339.75643  24313900.6484                   24313899.6644
   1624815.11748   1276696.95446  21134616.1954                   21134612.1764
 -15479075.79747 -12036774.81946  21063739.0944                   21063735.3164
   2315516.96146   1824218.59844  23672203.2894                   23672202.0514
 -12959142.48848 -10083226.05346  21768187.8284                   21768185.4734
   3457939.97346   2706860.18143  24184005.5474                   24184005.1994
  10870621.92656   8488330.76853  24499953.3914                   24499954.0164
 11  7 27 18  8  0.0000000  0 11G03G06G13G16G28G23G19G08G07G10G11
  -5132700.75047  -3984080.71645  21528296.4224                   21528295.2504
   3238656.74247   2534105.31844  23355066.1804                   23355065.1374
 -12933616.05547 -10063281.02546  20195803.7034                   20195800.8284
  20665911.98846  16101874.77944  24127637.6954                   24127636.0084
   9201074.94146   7187713.92943  24294210.4924                   24294209.3674
   1665831.93448   1308658.04846  21142421.6334                   21142417.6724
 -15525983.03947 -12073325.91346  21054813.0554                   21054808.8954
   2208519.50046   1740843.99744  23651842.2664                   23651841.6954
 -13048793.76248 -10153084.18146  21751127.3834                   21751125.4384
   3456617.86346   2705829.85343  24183753.7664                   24183753.6724
  10755958.80146   8398983.02543  24478133.6564                   24478134.1374
 11  7 27 18  8 30.0000000  0 11G03G06G13G16G28G23G19G08G07G10G11
  -5106121.13747  -3963369.34845  21533354.4774                   21533353.0474
   3281728.67247   2567667.78444  23363262.8834                   23363262.0474
 -12948751.81248 -10075075.14946  20192923.9384                   20192920.7934
  20720765.19546  16144617.45844  24138076.2424                   24138075.0234
   9097797.69146   7107238.24343  24274557.5554                   24274557.7034
   1707274.91048   1340951.22946  21150307.8754                   21150303.8914
 -15572298.69947 -12109416.03146  21045999.2974                   21045995.1524
   2101450.69547   1657413.80044  23631467.8674                   23631466.9304
 -13138384.30548 -10222894.99146  21734079.2734                   21734076.8634
   3455644.25846   2705071.13644  24183568.9384                   24183569.0744
  10641193.19947   8309555.32743  24456294.1804                   24456295.4964
 11  7 27 18  9  0.0000000  0 11G03G06G13G16G28G23G19G08G07G10G11
  -5079042.05947  -3942268.81945  21538507.6644                   21538506.1524
   3325141.45346   2601495.91844  23371524.0084                   23371522.7464
 -12963309.62948 -10086418.92246  20190153.2344                   20190150.4924
  20775557.87346  16187312.99443  24148502.6174                   24148500.4964
   8994718.74246   7026917.06044  24254942.1954                   24254942.4774
   1749147.30548   1373579.00846  21158275.9384                   21158271.9574
 -15618016.41847 -12145040.20946  21037299.6484                   21037295.5394
   1994316.40246   1573932.55244  23611081.4534                   23611079.8794
 -13227907.04348 -10292652.96446  21717044.0474                   21717041.2544
   3455022.34446   2704586.49244  24183450.2664                   24183450.6094
  10526333.53546   8220054.44143  24434437.2814                   24434438.3914
 11  7 27 18  9 30.0000000  0 11G03G06G13G16G28G23G19G08G07G10G11
  -5051461.17647  -3920777.24245  21543755.6484                   21543754.4414
   3368897.25047   2635591.28444  23379850.5554                   23379849.7194
 -12977285.13748 -10097308.95746  20187493.9844                   20187491.0554
  20830293.34846  16229963.88343  24158918.5784                   24158916.2894
   8891842.62546   6946753.96743  24235364.8834                   24235365.0124
   1791451.36348   1406543.16446  21166326.2114                   21166322.5234
 -15663131.46948 -12180194.78346  21028714.5234                   21028710.7234
   1887121.39146   1490404.01644  23590682.4454                   23590681.7034
 -13317356.42248 -10362353.76246  21700021.8134                   21700019.7974
   3454754.31646   2704377.57644  24183399.7584                   24183399.7344
  10411386.64847   8130485.56743  24412563.7504                   24412564.0204
 11  7 27 18 10  0.0000000  0 11G03G06G13G16G28G23G19G08G07G10G11
  -5023374.55547  -3898891.59845  21549100.4774                   21549099.3484
   3413000.01646   2669957.01644  23388242.4144                   23388242.8164
 -12990672.25847 -10107740.50846  20184946.5634                   20184943.8014
  20884976.95746  16272574.50743  24169324.0944                   24169322.7344
   8789176.01246   6866754.10943  24215829.4144                   24215828.1994
   1834191.54748   1439847.14546  21174459.4224                   21174455.8444
 -15707636.75447 -12214874.22446  21020245.5634                   21020241.6954
   1779873.02746   1406833.91044  23570273.5394                   23570272.7074
 -13406725.41848 -10431991.92846  21683015.7114                   21683013.3244
   3454844.64846   2704447.86944  24183416.9614                   24183417.2894
  10296361.39546   8040855.62443  24390675.0234                   24390674.8444
 11  7 27 18 10 30.0000000  0 11G03G06G13G16G28G23G19G08G07G10G11
  -4994778.77747  -3876609.20345  21554542.5394                   21554540.9654
   3457453.22347   2704595.86244  23396702.1484                   23396701.3594
 -13003465.04347 -10117708.93546  20182512.2034                   20182509.5434
  20939614.06346  16315149.01443  24179721.6484                   24179720.1684
   8686724.98446   6786922.20043  24196333.1954                   24196332.0124
   1877371.55948   1473493.85746  21182676.3444                   21182672.8634
 -15751525.52347 -12249073.26446  21011893.8134                   21011890.0434
   1672577.47346   1323227.00944  23549855.9144                   23549854.4224
 -13496006.32447 -10501561.45346  21666025.9454                   21666023.4804
   3455296.80146   2704800.14444  24183503.4454                   24183503.4654
  10181266.51646   7951171.42242  24368773.1174                   24368772.7234
 11  7 27 18 11  0.0000000  0 11G03G06G13G16G28G23G19G08G07G10G11
  -4965678.02347  -3853933.31045  21560079.8444                   21560078.7974
   3502252.26247   2739504.14544  23405227.2194                   23405226.5824
 -13015666.16448 -10127216.31946  20180190.2034                   20180187.7154
  20994199.25046  16357682.87043  24190108.5084                   24190107.2034
   8584487.47346   6707256.64443  24176877.7664                   24176876.9534
   1920986.89548   1507479.77346  21190976.0944                   21190972.9104
 -15794799.48848 -12282793.23146  21003658.8364                   21003655.0554
   1565232.99247   1239581.99444  23529429.1254                   23529427.8714
 -13585200.68447 -10571063.54646  21649052.8524                   21649050.8054
   3456106.12946   2705430.69244  24183656.6414                   24183658.2504
  10066102.40646   7861433.23843  24346858.0314                   24346857.7114
 11  7 27 18 11 30.0000000  0 11G03G06G13G16G28G23G19G08G07G10G11
  -4936074.28947  -3830865.50345  21565713.5554                   21565711.9304
   3547395.33647   2774680.51744  23413817.4224                   23413816.6844
 -13027275.18047 -10136262.33346  20177981.1804                   20177978.5274
  21048733.05146  16400176.65643  24200486.0704                   24200484.7734
   8482464.28146   6627758.14743  24157462.6334                   24157463.0634
   1965036.01248   1541803.70846  21199358.5784                   21199354.7934
 -15837457.90647 -12316033.56146  20995541.3594                   20995537.4344
   1457840.36346   1155899.44944  23508992.7894                   23508991.3834
 -13674306.52347 -10640496.65446  21632096.5474                   21632094.2544
   3457270.96546   2706338.31244  24183878.4924                   24183879.7114
   9950872.10946   7771643.51642  24324929.6094                   24324929.4844
 11  7 27 18 12  0.0000000  0 11G03G06G13G16G28G23G19G08G07G10G11
  -4905967.10947  -3807405.38045  21571442.6644                   21571440.8324
   3592882.91847   2810125.36144  23422472.5704                   23422472.0044
 -13038289.50448 -10144844.96246  20175885.2274                   20175882.7304
  21103216.91846  16442631.56543  24210854.2114                   24210852.2734
   8380658.27746   6548428.85944  24138090.0084                   24138089.6134
   2009519.61748   1576466.19946  21207823.3364                   21207819.6764
 -15879497.13748 -12348791.40246  20987541.5234                   20987537.6214
   1350403.27347   1072182.25044  23488548.1884                   23488547.0394
 -13763319.94947 -10709857.76546  21615158.0704                   21615155.8014
   3458791.68446   2707523.19244  24184168.1174                   24184168.3164
   9835581.28146   7681806.59443  24302990.6804                   24302991.1884
 11  7 27 18 12 30.0000000  0 11G03G06G13G16G28G23G19G08G07G10G11
  -4875360.78547  -3783556.32145  21577266.7424                   21577265.1844
   3638710.40246   2845835.02844  23431194.3834                   23431193.7034
 -13048711.76248 -10152966.21746  20173901.8594                   20173898.8714
  21157647.60246  16485045.05943  24221211.7814                   24221209.9414
   8279067.41846   6469267.20843  24118757.8914                   24118758.0044
   2054433.31648   1611463.82046  21216370.3054                   21216366.5084
 -15920919.03548 -12381068.20746  20979659.0634                   20979655.1254
   1242919.87147    988428.99444  23468094.4224                   23468093.4494
 -13852241.64848 -10779147.38946  21598236.9224                   21598234.4494
   3460664.10546   2708982.15344  24184524.2034                   24184524.8204
   9720230.67646   7591923.13343  24281040.5944                   24281039.9964
 11  7 27 18 13  0.0000000  0 11G03G06G13G16G28G23G19G08G07G10G11
  -4844259.59847  -3759321.66445  21583185.3914                   21583183.6374
   3684873.60946   2881806.33744  23439978.8204                   23439978.9184
 -13058544.09848 -10160627.80146  20172030.7974                   20172028.3054
  21212022.37546  16527414.90243  24231558.9384                   24231556.3984
   8177690.18446   6390271.99543  24099467.2664                   24099466.4654
   2099773.12548   1646793.49146  21224998.3834                   21224994.4494
 -15961724.87548 -12412864.97346  20971893.6954                   20971890.2234
   1135388.95347    904638.70444  23447632.1484                   23447630.9924
 -13941072.10548 -10848365.91946  21581333.2734                   21581330.4414
   3462884.24646   2710712.01944  24184946.2504                   24184947.7734
   9604820.63746   7501993.31543  24259078.5004                   24259078.4454
 11  7 27 18 13 30.0000000  0 11G03G06G13G16G28G23G19G08G07G10G11
  -4812663.19147  -3734701.11045  21589197.8594                   21589196.4774
   3731372.37146   2918039.10544  23448827.0234                   23448826.4804
 -13067784.55948 -10167828.18346  20170272.3444                   20170269.3014
  21266342.22346  16569741.96143  24241895.8524                   24241894.3094
   8076528.73846   6311444.92744  24080216.4224                   24080216.4884
   2145538.86348   1682455.03846  21233707.2734                   21233703.4454
 -16001911.94947 -12444179.56846  20964246.5394                   20964242.6294
   1027813.27747    820813.55544  23427160.7894                   23427160.0314
 -14029808.31648 -10917511.01146  21564446.8914                   21564444.6134
   3465451.75846   2712712.57744  24185435.7664                   24185436.6564
   9489356.39546   7412021.35543  24237105.8444                   24237106.3874
 11  7 27 18 14  0.0000000  0 11G03G06G13G16G28G23G19G08G07G10G11
  -4780573.53947  -3709696.22345  21595304.5944                   21595302.7074
   3778205.16847   2954532.15244  23457739.3364                   23457738.4104
 -13076432.66047 -10174566.98946  20168626.7504                   20168624.1374
  21320606.80546  16612025.97843  24252221.9224                   24252220.7114
   7975584.25046   6232786.91244  24061006.7344                   24061006.6804
   2191729.47748   1718447.66846  21242496.9614                   21242493.3284
 -16041478.97747 -12475011.02246  20956717.1804                   20956713.5514
    920194.45747    736954.77644  23406681.9694                   23406680.6134
 -14118448.00447 -10986580.89146  21547579.1254                   21547577.0824
   3468365.48846   2714982.98143  24185990.6564                   24185991.2774
   9373841.71146   7322010.02243  24215124.2114                   24215125.0434
 11  7 27 18 14 30.0000000  0 11G03G06G13G16G28G23G19G08G07G10G11
  -4747995.65247  -3684310.89445  21601503.8134                   21601502.4804
   3825366.85246   2991281.45444  23466713.1954                   23466713.3634
 -13084491.07847 -10180846.29446  20167093.5784                   20167090.6844
  21374812.32846  16654264.05143  24262537.5084                   24262536.0354
   7874854.11346   6154295.94043  24041838.4694                   24041838.3364
   2238340.05948   1754767.53846  21251366.5944                   21251362.9804
 -16080428.40647 -12505361.23246  20949305.5314                   20949301.5434
    812530.07847    653060.47744  23386193.6884                   23386192.9414
 -14206992.47347 -11055576.57246  21530730.0004                   21530727.2544
   3471620.03546   2717518.91844  24186609.8914                   24186610.1994
   9258276.13346   7231959.07343  24193133.1094                   24193133.5824
 11  7 27 18 15  0.0000000  0 11G03G06G13G16G28G23G19G08G07G10G11
  -4714930.55547  -3658545.91045  21607796.1024                   21607794.6564
   3872856.61746   3028286.41844  23475750.8984                   23475749.8094
 -13091959.05547 -10186665.51846  20165672.5554                   20165669.8634
  21428959.25846  16696456.39143  24272841.6254                   24272839.7194
   7774340.16846   6075973.42243  24022711.2274                   24022711.3014
   2285369.54348   1791413.82546  21260316.0474                   21260312.6214
 -16118758.16047 -12535228.57746  20942011.4534                   20942007.6174
    704822.14547    569132.28344  23365697.8914                   23365697.1454
 -14295439.02047 -11124495.94646  21513898.8054                   21513896.4654
   3475214.75046   2720319.92443  24187293.2894                   24187294.5234
   9142664.09446   7141871.86043  24171132.0704                   24171133.1134
 11  7 27 18 15 30.0000000  0 11G03G06G13G16G28G23G19G08G07G10G11
  -4681385.59847  -3632407.02845  21614179.7664                   21614177.3164
   3920667.02046   3065541.22944  23484848.7974                   23484848.3364
 -13098841.98847 -10192028.87446  20164362.5394                   20164359.9654
  21483041.49246  16738598.32543  24283132.7194                   24283131.0124
   7674037.23447   5997815.33543  24003623.9304                   24003623.9104
   2332810.93048   1828381.07146  21269344.4224                   21269340.4384
 -16156473.06247 -12564616.81246  20934834.8444                   20934830.9694
    597066.57047    485166.92044  23345192.7734                   23345191.3754
 -14383791.29348 -11193341.86646  21497086.0704                   21497083.6334
   3479142.12546   2723380.15743  24188040.5004                   24188042.0554
   9027003.50446   7051746.79243  24149123.0164                   24149123.3874
 11  7 27 18 16  0.0000000  0 11G03G06G13G16G28G23G19G08G07G10G11
  -4647360.44147  -3605893.93845  21620654.0234                   21620652.6174
   3968798.35946   3103046.14644  23494008.3054                   23494007.8594
 -13105137.61348 -10196934.59246  20163164.6024                   20163162.1684
  21537060.71946  16780691.17943  24293410.7814                   24293410.6134
   7573948.06346   5919823.86343  23984577.8364                   23984577.0664
   2380664.57848   1865669.57846  21278450.4064                   21278446.5944
 -16193570.16847 -12593523.65546  20927775.1414                   20927771.1214
    489266.73847    401167.08444  23324679.1254                   23324677.6094
 -14472045.17248 -11262111.12346  21480291.7734                   21480289.6684
   3483402.85946   2726700.04743  24188851.7584                   24188852.5164
   8911299.71947   6961588.10043  24127105.7114                   24127106.1994
 11  7 27 18 16 30.0000000  0 11G03G06G13G16G28G23G19G08G07G10G11
  -4612862.68747  -3579012.60045  21627218.9454                   21627217.0944
   4017242.79746   3140794.97944  23503227.0634                   23503226.0314
 -13110851.75847 -10201387.18846  20162076.9694                   20162074.6454
  21591010.46546  16822729.86343  24303678.6804                   24303677.0234
   7474067.56346   5841994.96643  23965571.8364                   23965570.2664
   2428922.73848   1903273.26246  21287633.6254                   21287629.7234
 -16230054.44147 -12621952.96546  20920832.4844                   20920828.5634
    381417.54747    317128.77144  23304155.6564                   23304154.7854
 -14560205.00448 -11330807.08846  21463515.6094                   21463513.3754
   3487988.84446   2730273.48743  24189724.4454                   24189725.0944
   8795550.14846   6871393.77543  24105079.3674                   24105079.9964
 11  7 27 18 17  0.0000000  0 11G03G06G13G16G28G23G19G08G07G10G11
  -4577896.44147  -3551766.20745  21633872.7814                   21633871.3954
   4065996.27746   3178784.67144  23512504.4224                   23512504.0704
 -13115986.48848 -10205388.30746  20161099.9774                   20161097.9964
  21644887.94146  16864712.23743  24313930.9924                   24313930.2624
   7374394.03146   5764327.33443  23946603.8594                   23946603.5204
   2477581.45748   1941189.08046  21296893.2114                   21296889.4264
 -16265927.35947 -12649905.89546  20914006.1334                   20914002.2074
    273518.52347    233051.64744  23283623.6334                   23283622.7234
 -14648270.93748 -11399429.86846  21446757.0784                   21446754.8014
   3492896.20746   2734097.31143  24190658.5864                   24190659.4774
   8679755.82046   6781164.54244  24083043.4694                   24083045.0784
 11  7 27 18 17 30.0000000  0 11G03G06G13G16G28G23G19G08G07G10G11
  -4542460.83648  -3524154.08745  21640615.7194                   21640614.5744
   4115060.03946   3217016.12344  23521841.0634                   23521840.4264
 -13120538.78948 -10208935.58646  20160233.7664                   20160231.1954
  21698695.89846  16906640.47144  24324171.3284                   24324168.6684
   7274931.23846   5686823.92043  23927676.3594                   23927676.2704
   2526642.36348   1979418.29846  21306229.2114                   21306225.6844
 -16301185.02047 -12677379.41246  20907296.8984                   20907292.9964
    165573.80147    148938.91244  23263081.9614                   23263081.2504
 -14736238.00848 -11467975.62946  21430017.4304                   21430015.0744
   3498126.17646   2738172.54143  24191653.0784                   24191654.3054
   8563923.42646   6690905.57243  24061001.6484                   24061001.8714
 11  7 27 18 18  0.0000000  0 11G03G06G13G16G28G23G19G08G07G10G11
  -4506558.30147  -3496178.13445  21647447.6024                   21647446.6054
   4164431.46546   3255487.31844  23531236.1644                   23531234.8794
 -13124509.53548 -10212029.69746  20159478.3134                   20159475.8364
  21752433.14846  16948513.54744  24334397.0634                   24334395.3404
   7175678.88746   5609484.53443  23908789.6724                   23908788.5554
   2576102.60548   2017958.67046  21315640.8054                   21315637.4844
 -16335827.66048 -12704373.69546  20900704.7424                   20900700.4384
     57583.12947     64790.35444  23242532.8134                   23242532.0164
 -14824105.40248 -11536443.71446  21413297.2734                   21413294.5944
   3503676.42646   2742497.31243  24192710.4224                   24192710.9184
   8448054.94547   6600618.51644  24038952.7504                   24038952.6564
 11  7 27 18 18 30.0000000  0 11G03G06G13G16G28G23G19G08G07G10G11
  -4470189.25847  -3467838.65645  21654368.8364                   21654367.6844
   4214109.85946   3294197.71244  23540689.2274                   23540689.1414
 -13127897.35948 -10214669.58846  20158833.5704                   20158831.0984
  21806100.57846  16990332.24543  24344609.3914                   24344607.9654
   7076639.18046   5532310.80343  23889942.3054                   23889941.7464
   2625961.95748   2056810.04246  21325129.1414                   21325125.6134
 -16369853.18748 -12730887.10446  20894229.9064                   20894225.5634
    -50450.69547    -19391.83344  23221974.7194                   23221973.6024
 -14911869.46948 -11604831.30746  21396596.0634                   21396593.8284
   3509545.85546   2747070.83343  24193826.9614                   24193827.2894
   8332155.61747   6510307.40943  24016897.1724                   24016898.0784
 11  7 27 18 19  0.0000000  0 11G03G06G13G16G28G23G19G08G07G10G11
  -4433358.05547  -3439139.05745  21661377.5634                   21661376.1564
   4264091.28946   3333144.23444  23550200.3984                   23550199.9104
 -13130704.37548 -10216856.89146  20158299.4774                   20158296.8054
  21859695.57046  17032094.52343  24354807.4064                   24354806.4694
   6977810.39146   5455301.42043  23871136.6094                   23871135.3524
   2676216.42648   2095969.29246  21334692.1724                   21334689.0124
 -16403262.89148 -12756920.65246  20887872.0234                   20887868.1454
   -158528.18747   -103608.02744  23201408.0084                   23201406.5784
 -14999530.87148 -11673138.85546  21379914.6024                   21379912.0944
   3515730.82846   2751890.16843  24195003.7424                   24195004.5594
   8216226.56647   6419973.08243  23994836.9694                   23994836.9844
 11  7 27 18 19 30.0000000  0 11G03G06G13G16G28G23G19G08G07G10G11
  -4396064.27047  -3410078.99945  21668474.0084                   21668472.6524
   4314377.27356   3372328.26954  23559770.3204                   23559768.5354
 -13132928.54348 -10218590.03846  20157876.2664                   20157873.8284
  21913219.96256  17073801.73353  24364993.2114                   24364991.5274
   6879195.46546   5378458.69043  23852370.2274                   23852369.3204
   2726866.56348   2135436.86646  21344330.6724                   21344327.2504
 -16436054.01248 -12782472.18646  20881632.3054                   20881627.8914
   -266645.59047   -187855.31244  23180833.3594                   23180832.0904
 -15087085.16448 -11741362.96746  21363253.5004                   21363251.5164
   3522231.47746   2756955.56943  24196241.1954                   24196241.4614
   8100273.25846   6329619.98743  23972771.6174                   23972771.9264
 11  7 27 18 20  0.0000000  0 11G03G06G13G16G28G23G19G08G07G10G11
  -4358308.78147  -3380659.16345  21675658.9774                   21675657.2194
   4364964.96146   3411747.20744  23569396.0944                   23569395.5164
 -13134568.65248 -10219868.07846  20157564.0474                   20157561.3794
  21966674.28946  17115454.40643  24375164.7504                   24375163.7584
   6780796.03146   5301783.87843  23833645.6884                   23833645.0004
   2777911.64548   2175212.18046  21354044.4614                   21354040.9884
 -16468224.13747 -12807539.81646  20875510.4304                   20875506.5664
   -374800.70347   -272131.99844  23160252.4304                   23160251.1374
 -15174529.30148 -11809501.24946  21346613.4454                   21346611.4614
   3529047.57446   2762266.66843  24197538.1254                   24197539.0314
   7984300.08247   6239251.32744  23950702.6644                   23950703.0514
 11  7 27 18 20 30.0000000  0 11G03G06G13G16G28G23G19G08G07G10G11
  -4320098.35247  -3350884.84745  21682930.2974                   21682928.7704
   4415848.50046   3451396.69844  23579079.3984                   23579078.6134
 -13135629.87948 -10220695.03346  20157361.8984                   20157360.1764
  11073499.37946  17152898.47553  24385323.2894                   24385322.2584
   6682607.78546   5225273.61544  23814960.6804                   23814960.0984
   2829344.98848   2215290.05046  21363831.9224                   21363828.8714
 -16499778.52348 -12832127.65746  20869505.7814                   20869501.6374
   -482997.05147   -356440.79744  23139663.2974                   23139662.2304
 -15261866.19948 -11877555.95746  21329993.9064                   21329992.0204
   3536172.39146   2767818.44043  24198894.2814                   24198895.0594
   7868305.69946   6148866.10044  23928629.9534                   23928629.8874
 11  7 27 18 21  0.0000000  0 11G03G06G13G16G28G23G19G08G07G10G11
  -4281431.22747  -3320754.63845  21690288.4144                   21690287.1524
   4467029.75046   3491278.12544  23588818.6024                   23588817.3794
 -13136108.50848 -10221068.02946  20157271.0554                   20157268.8054
  11126806.62546  17194436.45043  24395466.7274                   24395465.8404
   6584635.06346   5148931.29844  23796317.2734                   23796316.9304
   2881168.13748   2255671.64946  21373693.6484                   21373690.0824
 -16530712.61748 -12856232.15646  20863619.1884                   20863615.2424
   -591229.75847   -440777.94344  23119067.2424                   23119066.3754
 -15349090.13348 -11945522.65646  21313395.7814                   21313393.5784
   3543607.09846   2773611.62643  24200308.9844                   24200309.8324
   7752297.22346   6058469.96144  23906553.8754                   23906554.6804
 11  7 27 18 21 30.0000000  0 11G03G06G13G16G28G23G19G08G07G10G11
  -4242310.93747  -3290271.34845  21697732.6954                   21697731.7734
   4518505.41846   3531388.99143  23598613.5634                   23598613.8674
 -13136006.10548 -10220988.26446  20157290.4224                   20157288.4454
  11180040.00055  17235916.94453  24405597.0474                   24405595.6374
   6486876.88346   5072756.14244  23777715.5004                   23777713.9534
   2933377.93847   2296354.52946  21383628.6024                   21383625.2074
 -16561027.05548 -12879853.81046  20857850.6334                   20857846.8714
   -699499.37547   -525143.84544  23098464.0704                   23098463.4104
 -15436200.75848 -12013401.08346  21296818.9454                   21296816.9964
   3551348.37546   2779643.73043  24201781.9924                   24201783.1174
   7636276.62547   5968064.32543  23884476.2424                   23884476.3324
 11  7 27 18 22  0.0000000  0 11G03G06G13G16G28G23G19G08G07G10G11
  -4202739.55547  -3259436.56145  21705263.1884                   21705261.6134
   4570273.76646   3571727.86044  23608464.8364                   23608464.4264
 -13135323.30948 -10220456.24646  20157420.7424                   20157418.2734
  11233199.41845  17277339.75543  24415711.8754                   24415711.7584
   6389333.94946   4996748.67444  23759153.1334                   23759151.9384
   2985972.73047   2337337.41446  21393637.3204                   21393634.2034
 -16590721.45348 -12902992.30146  20852199.8914                   20852195.8524
   -807804.19547   -609537.16244  23077853.8364                   23077853.2584
 -15523195.97747 -12081189.53746  21280264.5394                   21280262.4184
   3559394.72346   2785913.48443  24203314.2734                   24203313.7854
   7520247.38346   5877651.97643  23862396.3674                   23862396.0204
 11  7 27 18 22 30.0000000  0 11G03G06G13G16G28G23G19G08G07G10G11
  -4162717.68447  -3228250.71545  21712879.2504                   21712877.7114
   4622333.94546   3612294.24943  23618371.5004                   23618371.0704
 -13134058.69548 -10219470.85846  20157661.6024                   20157659.2304
  11286285.63345  17318705.62643  24425813.8984                   24425813.4774
   6292007.89146   4920910.25744  23740632.1334                   23740631.2664
   3038951.87948   2378619.80346  21403718.9924                   21403715.7894
 -16619794.21148 -12925646.42046  20846667.5784                   20846663.6604
   -916141.77747   -693956.04144  23057238.7664                   23057238.0124
 -15610072.66847 -12148885.65346  21263732.3444                   21263730.3874
   3567745.27046   2792420.37643  24204902.2974                   24204902.6254
   7404213.99646   5787236.40343  23840316.4454                   23840316.1174
 11  7 27 18 23  0.0000000  0 11G03G06G13G16G28G23G19G08G07G10G11
  -4122251.91847  -3196718.97745  21720579.4304                   21720577.9964
   4674679.33246   3653082.82443  23628333.3054                   23628332.8984
 -13132217.26248 -10218036.01446  20158011.7034                   20158009.5474
  11339293.57845  17360010.46743  24435901.1484                   24435901.1174
   6194894.75846   4845237.73144  23722152.1724                   23722152.2664
   3092308.46547   2420196.28446  21413872.3674                   21413869.4304
 -16648249.66847 -12947819.50446  20841252.8594                   20841248.7034
  -1024515.42247   -778403.00844  23036615.7274                   23036614.5044
 -15696833.51247 -12216491.49146  21247222.3984                   21247220.1334
   3576393.42646   2799159.15943  24206548.5474                   24206548.4494
   7288175.18046   5696816.54943  23818234.0634                   23818234.5394
 11  7 27 18 23 30.0000000  0 11G03G06G13G16G28G23G19G08G07G10G11
  -4081343.55147  -3164842.37945  21728363.9144                   21728362.7704
   4727309.38346   3694093.21544  23638347.5704                   23638348.1024
 -13129798.16448 -10216151.02946  20158471.9534                   20158469.4414
  11392224.16845  17401255.10743  24445974.7274                   24445973.4144
   6097996.12946   4769732.35244  23703712.4454                   23703712.9494
   3146042.28548   2462066.72046  21424097.6334                   21424094.7544
 -16676085.84447 -12969510.03046  20835955.6484                   20835951.6454
  -1132922.52347   -862876.04944  23015986.5944                   23015985.4224
 -15783475.48447 -12284004.72046  21230734.5634                   21230732.5984
   3585338.33646   2806129.12043  24208250.8134                   24208250.6604
   7172135.48846   5606396.15643  23796153.2194                   23796153.4924
 11  7 27 18 24  0.0000000  0 10G03G06G13G28G23G19G08G07G10G11
  -4039992.30147  -3132620.65645  21736232.8054                   21736231.9734
   4780224.25046   3735325.54643  23648417.4144                   23648417.5744
 -13126799.55548 -10213814.48146  20159042.6024                   20159040.4104
   6001314.39146   4694395.97944  23685314.3984                   23685314.5314
   3200153.30148   2504231.07546  21434394.7894                   21434391.8754
 -16703300.21948 -12990716.04646  20830776.9304                   20830773.2304
  -1241359.77747   -947372.58644  22995351.2894                   22995349.9304
 -15869994.41047 -12351422.05246  21214271.1644                   21214268.5704
   3594580.28146   2813330.58343  24210009.5004                   24210009.6054
   7056101.18046   5515979.85543  23774072.3754                   23774071.9344
 11  7 27 18 24 30.0000000  0 10G03G06G13G28G23G19G08G07G10G11
  -3998206.81647  -3100060.56645  21744184.7504                   21744183.6804
   4833415.23846   3776772.98044  23658539.6024                   23658539.4384
 -13123228.41848 -10211031.80946  20159722.1254                   20159719.7854
   5904843.58246   4619224.01244  23666957.1334                   23666955.6764
   3254632.86348   2546682.61546  21444762.2814                   21444758.9064
 -16729899.43748 -13011442.70746  20825715.3444                   20825711.5704
  -1349832.49647  -1031896.73344  22974710.0474                   22974709.0704
 -15956394.81248 -12418747.02846  21197829.4924                   21197827.6214
   3604110.68047   2820756.82843  24211822.9064                   24211823.7384
   6940068.18446   5425564.70243  23751991.5004                   23751991.6914
 11  7 27 18 25  0.0000000  0 10G03G06G13G28G23G19G08G07G10G11
  -3955974.49647  -3067152.32145  21752221.1254                   21752219.9024
   4886894.87546   3818445.41344  23668715.7664                   23668716.3014
 -13119070.75448 -10207792.10146  20160513.3984                   20160511.0274
   5808598.96946   4544228.20543  23648642.4064                   23648641.1174
   3309493.62948   2589431.18646  21455201.6334                   21455198.4734
 -16755868.68048 -13031678.48646  20820773.2344                   20820769.3524
  -1458324.95347  -1116436.30544  22954064.3364                   22954063.2194
 -16042660.16447 -12485966.76446  21181413.8914                   21181411.8984
   3613941.85947   2828417.36943  24213694.0004                   24213694.4694
   6824054.69546   5335164.69143  23729914.3594                   23729915.0274
 11  7 27 18 25 30.0000000  0 10G03G06G13G28G23G19G08G07G10G11
  -3913287.38347  -3033889.67245  21760343.9384                   21760342.9264
   4940671.87146   3860349.49544  23678949.7974                   23678949.1564
 -13114316.62547 -10204087.62646  20161418.3054                   20161415.8324
   5712590.78146   4469416.67443  23630372.3834                   23630371.9304
   3364744.12548   2632483.45946  21465715.6414                   21465712.3244
 -16781197.08648 -13051414.90646  20815953.3754                   20815949.9344
  -1566825.35547  -1200982.04844  22933417.1804                   22933416.0944
 -16128778.30547 -12553071.77846  21165025.7424                   21165023.9064
   3624082.49246   2836319.10043  24215623.7974                   24215625.1724
   6708074.46546   5244790.60843  23707844.1024                   23707844.3444
 11  7 27 18 26  0.0000000  0 10G03G06G13G28G23G19G08G07G10G11
  -3870152.01247  -3000277.71745  21768552.5084                   21768551.5004
   4994739.51246   3902480.06844  23689238.8594                   23689237.8834
 -13108970.66048 -10199921.96746  20162435.5474                   20162433.0204
   5616814.99646   4394786.21243  23612147.4774                   23612146.4924
   3420377.66048   2675834.20345  21476302.3674                   21476298.8914
 -16805889.07448 -13070655.41546  20811254.8674                   20811251.2774
  -1675336.93447  -1285536.51044  22912768.3134                   22912767.2034
 -16214751.96548 -12620064.21646  21148665.6254                   21148663.3364
   3634525.55546   2844456.48243  24217611.3204                   24217611.7584
   6592126.40646   5154441.54343  23685779.9774                   23685779.5004
 11  7 27 18 26 30.0000000  0 10G03G06G13G28G23G19G08G07G10G11
  -2251164.17647  -1738728.79145  22076635.1564                   22076634.2464
   6624501.82846   5172424.66944  23999372.6564                   23999371.0984
 -11527626.23448  -8967705.56546  20463355.4224                   20463353.0274
   7096683.26246   5547930.36644  23893756.6804                   23893755.6054
   5051797.81648   3947070.62945  21786751.4064                   21786748.4414
 -15254535.88348 -11861808.77946  21106467.7424                   21106463.8444
   -208447.05147   -142505.41244  23191907.8674                   23191906.8634
 -14725168.19947 -11459349.58646  21432124.0004                   21432121.8324
   5220676.52047   4080418.23543  24519445.7424                   24519446.3524
   8051625.65646   6291713.81743  23963513.2114                   23963513.0784
 11  7 27 18 27  0.0000000  0 10G03G06G13G28G23G19G08G07G10G11
  -2207158.62547  -1704438.80645  22085009.3134                   22085008.0904
   6679124.87146   5214988.08244  24009766.9774                   24009766.4144
 -11521119.03548  -8962635.04646  20464593.5234                   20464591.1564
   7001353.93446   5473647.81344  23875616.3754                   23875615.2384
   5108171.05548   3990997.75646  21797478.8134                   21797475.0744
 -15277974.50048 -11880072.64346  21102007.4924                   21102003.3524
   -316996.85947   -227089.67744  23171252.2894                   23171250.3914
 -14810866.21948 -11526127.25646  21415816.2974                   21415813.7774
   5231698.64847   4089006.78643  24521543.3834                   24521544.0744
   7935731.79346   6201407.02243  23941459.3674                   23941459.0664
 11  7 27 18 27 30.0000000  0 10G03G06G13G28G23G19G08G07G10G11
  -2162721.91047  -1669812.83545  22093465.5084                   22093464.5004
   6734022.04746   5257765.05144  24020213.6174                   24020213.1914
 -11514032.51648  -8957113.10946  20465942.1884                   20465940.1604
   6906247.83646   5399539.21044  23857517.7424                   23857516.8444
   5164910.82847   4035210.49745  21808276.1024                   21808273.0164
 -15300786.71148 -11897848.39746  21097666.5084                   21097662.4654
   -425564.08247   -311687.47945  23150591.9614                   23150590.6524
 -14896424.32048 -11592795.89446  21399534.9454                   21399532.9964
   5243006.49246   4097818.02943  24523694.5554                   24523694.8754
   7819869.89546   6111125.08143  23919411.9694                   23919411.3594
 11  7 27 18 28  0.0000000  0 10G03G06G13G28G23G19G08G07G10G11
  -2117862.12547  -1634857.19145  22102002.2504                   22102000.7194
   6789185.43846   5300749.45544  24030710.2584                   24030709.6454
 -11506373.14848  -8951144.80146  20467399.7664                   20467396.9534
   6811358.93446   5325599.84343  23839461.2114                   23839459.6134
   5222008.91048   4079702.44645  21819141.4614                   21819138.3164
 -15322978.60248 -11915140.77346  21093443.1954                   21093439.7504
   -534153.73447   -396302.77944  23129928.4224                   23129926.7814
 -14981846.28148 -11659358.45346  21383279.7814                   21383277.2504
   5254592.31646   4106845.92143  24525899.3204                   24525899.4574
   7704037.23846   6020865.96443  23897369.7894                   23897368.9264
 11  7 27 18 28 30.0000000  0 10G03G06G13G28G23G19G08G07G10G11
  -2072588.68047  -1599579.23345  22110617.2424                   22110616.5784
   6844605.69946   5343934.01544  24041257.4224                   24041255.5904
 -11498148.64848  -8944736.12446  20468965.0554                   20468962.6294
   6716680.88747   5251824.78344  23821444.6174                   23821443.4414
   5279455.96548   4124466.29945  21830073.3914                   21830070.1644
 -15344557.33648 -11931955.38646  21089337.3204                   21089333.2424
   -642771.32447   -480939.85944  23109258.7734                   23109257.3054
 -15067137.28548 -11725818.96046  21367049.2424                   21367046.6684
   5266446.82046   4116083.12743  24528155.2664                   24528155.5474
   7588229.91446   5930626.58143  23875331.8594                   23875331.3524
 11  7 27 18 29  0.0000000  0 10G03G06G13G28G23G19G08G07G10G11
  -2026899.87947  -1563977.60545  22119311.7664                   22119310.6214
   6900285.09046   5387320.49644  24051853.1564                   24051851.4534
 -11489355.79748  -8937884.58346  20470638.1024                   20470635.9024
   6622217.94147   5178217.29344  23803468.2424                   23803467.4884
   5337254.05948   4169503.71145  21841072.1334                   21841068.7814
 -15365518.59848 -11948288.83946  21085348.7504                   21085344.7774
   -751411.57447   -565594.56545  23088585.5864                   23088584.4844
 -15152291.00448 -11792172.49846  21350845.6414                   21350842.7504
   5278571.67646   4125530.96343  24530462.6804                   24530462.7424
   7472455.48047   5840412.87643  23853300.8834                   23853300.0084
 11  7 27 18 29 30.0000000  0 10G03G06G13G28G23G19G08G07G10G11
  -1980803.34447  -1528058.27445  22128084.0704                   22128082.7774
   6956215.79346   5430902.82144  24062495.7734                   24062494.0594
 -11480000.77748  -8930594.99546  20472418.4694                   20472415.6954
   6527964.59446   5104773.16344  23785532.6334                   23785531.9884
   5395395.28148   4214808.48245  21852135.7344                   21852133.1994
 -15385868.11348 -11964145.61346  21081475.6884                   21081472.4384
   -860078.59847   -650270.12244  23067907.1644                   23067905.8444
 -15237311.91048 -11858422.54746  21334666.3754                   21334663.7814
   5290959.31346   4135183.65843  24532820.4534                   24532821.2424
   7356711.73847   5750223.02044  23831275.8754                   23831274.5274
 11  7 27 18 30  0.0000000  0 10G03G06G13G28G23G19G08G07G10G11
  -1934297.43747  -1491819.95545  22136933.6644                   22136932.1294
   7012399.86347   5474682.55044  24073187.1724                   24073186.8484
 -11470080.40648  -8922864.86746  20474305.9924                   20474303.9344
   6433925.33247   5031495.87044  23767637.5314                   23767637.3874
   5453881.89148   4260382.39445  21863265.6564                   21863262.5984
 -15405602.06248 -11979522.71546  21077720.8364                   21077717.2544
   -968767.42647   -734962.69944  23047224.0944                   23047222.9534
 -15322193.46148 -11924564.00246  21318513.7894                   21318512.0234
   5303611.46946   4145042.43643  24535227.6024                   24535228.2234
   7241005.96547   5660062.77243  23809257.3284                   23809256.3364
 11  7 27 18 30 30.0000000  0 10G03G06G13G28G23G19G08G07G10G11
  -1887386.56247  -1455266.07145  22145860.6954                   22145859.1054
   7068833.13347   5518656.46444  24083926.5234                   24083925.6254
 -11459597.38348  -8914696.29746  20476300.9454                   20476298.5434
   6340098.58646   4958384.14844  23749783.1024                   23749782.1454
   5512709.30148   4306221.86945  21874459.9064                   21874457.2624
 -15424722.50848 -11994421.77346  21074082.3984                   21074078.5554
  -1077478.28147   -819672.40645  23026536.7344                   23026535.7544
 -15406935.90248 -11990597.07246  21302387.8134                   21302385.4534
   5316523.89846   4155103.99443  24537683.4774                   24537686.0474
   7125339.39147   5569933.11543  23787246.4844                   23787246.0274
 11  7 27 18 31  0.0000000  0 10G03G06G13G28G23G19G08G07G10G11
  -1840070.21547  -1418396.22145  22154864.6954                   22154863.3554
   7125516.21146   5562825.10944  24094712.0474                   24094712.3794
 -11448549.97748  -8906087.96946  20478403.2734                   20478401.1334
   6246486.74247   4885439.88944  23731968.4614                   23731968.5514
   5571878.30948   4352327.50245  21885719.7814                   21885716.3714
 -15443226.88748 -12008840.77746  21070560.8364                   21070557.3794
  -1186207.32847   -904396.33344  23005846.5944                   23005845.2234
 -15491534.44548 -12056518.02246  21286289.4774                   21286287.0234
   5329697.06646   4165368.64643  24540191.5164                   24540192.5394
   7009718.32047   5479838.86143  23765244.4384                   23765244.4694
 11  7 27 18 31 30.0000000  0 10G03G06G13G28G23G19G08G07G10G11
  -1792353.34847  -1381214.28745  22163945.0704                   22163943.7384
   7182444.56346   5607184.77144  24105546.0164                   24105545.7034
 -11436941.45348  -8897042.40646  20480612.3594                   20480610.0704
   6153087.87947   4812661.56844  23714196.0474                   23714194.8324
   5631384.00048   4398695.49445  21897043.4384                   21897040.6604
 -15461117.89148 -12022781.82146  21067156.7894                   21067152.8094
  -1294956.15647   -989135.63345  22985151.8674                   22985150.8984
 -15575989.67248 -12122327.29246  21270218.1414                   21270215.6844
   5343126.16845   4175832.85743  24542746.9064                   24542748.4414
   6894143.71947   5389780.85344  23743251.2274                   23743251.2734
 11  7 27 18 32  0.0000000  0 10G03G06G13G28G23G19G08G07G10G11
  -1744237.69547  -1343721.61745  22173100.7584                   22173100.6254
   7239616.64846   5651734.43444  24116424.8134                   24116425.4774
 -11424772.30548  -8887559.97946  20482927.9144                   20482925.9024
   6059902.34447   4740049.47244  23696462.9454                   23696461.9734
   5691224.50848   4445324.39045  21908430.7584                   21908428.1414
 -15478395.53948 -12036244.92846  21063868.2734                   21063864.9614
  -1403722.59847  -1073888.66445  22964454.6954                   22964453.4574
 -15660299.40248 -12188023.17946  21254174.6724                   21254172.2544
   5356809.57845   4186495.11543  24545350.3524                   24545352.3524
   6778619.19946   5299761.84743  23721267.6484                   23721267.2074
 11  7 27 18 32 30.0000000  0 10G03G06G13G28G23G19G08G07G10G11
  -1695726.38347  -1305920.61145  22182332.0784                   22182331.7584
   7297029.33246   5696471.53543  24127349.2274                   24127350.0164
 -11412044.02748  -8877641.87746  20485349.9924                   20485348.0204
   5966929.47347   4667603.16344  23678771.6644                   23678770.3954
   5751396.69148   4492211.71845  21919881.0944                   21919878.4344
 -15495060.85248 -12049230.89346  21060697.3914                   21060694.0354
  -1512505.95347  -1158654.90245  22943754.0084                   22943752.4924
 -15744462.58648 -12253604.88746  21238158.7814                   21238156.6214
   5370744.00445   4197353.06843  24548003.8134                   24548004.6914
   6663147.28547   5209783.86744  23699294.1414                   23699294.1254
 11  7 27 18 33  0.0000000  0 10G03G06G13G28G23G19G08G07G10G11
  -1646818.59447  -1267810.69045  22191639.2114                   22191638.5004
   7354684.00446   5741397.19244  24138321.5474                   24138321.7854
 -11398754.64148  -8867286.54046  20487879.1954                   20487876.6374
   5874173.04347   4595325.44944  23661120.1094                   23661119.0634
   5811901.56648   4539358.29145  21931394.9694                   21931391.9454
 -15511110.76248 -12061737.32246  21057642.7274                   21057639.9184
  -1621301.97347  -1243431.01045  22923050.7274                   22923049.3634
 -15828473.63748 -12319068.04046  21222171.9924                   21222169.7074
   5384930.47345   4208407.40843  24550701.2114                   24550703.8984
   6547734.50047   5119851.91343  23677331.4844                   23677330.9844
 11  7 27 18 33 30.0000000  0 10G03G06G13G28G23G19G08G07G10G11
  -1597518.64147  -1229395.18145  22201020.4144                   22201019.7974
   7412576.46546   5786508.14043  24149338.4144                   24149338.0864
 -11384906.73448  -8856495.99846  20490514.1724                   20490512.2344
   5781631.20747   4523214.99344  23643510.3834                   23643509.3444
   5872735.30948   4586761.10645  21942971.3364                   21942968.3134
 -15526547.29748 -12073765.80246  21054705.6024                   21054702.0864
  -1730110.69947  -1328216.99945  22902345.2114                   22902343.9774
 -15912332.47348 -12384412.57946  21206213.9614                   21206211.8484
   5399364.93445   4219654.91543  24553449.3914                   24553451.7074
   6432382.42246   5029967.28444  23655380.9304                   23655380.8914
 11  7 27 18 34  0.0000000  0 10G03G06G13G28G23G19G08G07G10G11
  -1547827.25447  -1190674.66445  22210476.6564                   22210476.0124
   7470706.11246   5831803.96443  24160399.4694                   24160400.8984
 -11370499.82848  -8845269.87946  20493255.7664                   20493253.6214
   5689305.85947   4451273.22444  23625940.9844                   23625940.2424
   5933897.19548   4634419.64545  21954609.9454                   21954607.1174
 -15541369.40647 -12085315.50146  21051885.1094                   21051881.2304
  -1838929.62147  -1413010.93645  22881636.8914                   22881635.9024
 -15996035.53148 -12449635.74046  21190285.9924                   21190283.6414
   5414046.90245   4231095.32243  24556243.3204                   24556244.0744
   6317095.97746   4940133.79144  23633441.6334                   23633442.1214
 11  7 27 18 34 30.0000000  0 10G03G06G13G28G23G19G08G07G10G11
  -1497747.16847  -1151651.25345  22220006.3594                   22220006.0824
   7529070.90646   5877282.90743  24171507.0314                   24171506.9024
 -11355535.08248  -8833609.06046  20496103.6724                   20496101.3594
   5597196.51647   4379499.70544  23608413.0314                   23608412.5124
   5995384.66048   4682331.85345  21966310.7584                   21966307.5634
 -15555577.78548 -12096386.97946  21049181.1724                   21049177.5514
  -1947757.39547  -1497811.76645  22860927.9844                   22860927.0434
 -16079581.28548 -12514736.32646  21174387.8754                   21174385.3794
   5428973.80155   4242726.56753  24559085.8984                   24559085.0944
   6201878.56347   4850354.07244  23611517.1644                   23611517.1454
 11  7 27 18 35  0.0000000  0 10G03G06G13G28G23G19G08G07G10G11
  -1447286.25047  -1112331.10344  22229609.2894                   22229608.2734
   7587663.03146   5922939.03243  24182656.0474                   24182655.9924
 -11340019.25048  -8821518.84246  20499056.0704                   20499054.1644
   5505297.75847   4307890.34544  23590925.7424                   23590924.0474
   6057189.79347   4730491.61945  21978071.8054                   21978069.0664
 -15569178.34047 -12106984.82646  21046593.1724                   21046589.8874
  -2056598.00847  -1582622.62245  22840216.3914                   22840215.1024
 -16162973.18048 -12579716.99246  21158518.7584                   21158516.6804
   5444137.50845   4254542.35643  24561968.1564                   24561969.1564
   6086727.84846   4760626.34844  23589604.2584                   23589603.9574
 11  7 27 18 35 30.0000000  0 10G03G06G13G28G23G19G08G07G10G11
  -1396447.09047  -1072716.20045  22239283.1334                   22239282.7734
   7646480.03546   5968770.42443  24193848.6724                   24193848.2854
 -11323953.54748  -8809000.13546  20502113.1334                   20502110.9694
   5413609.62547   4236445.10544  23573477.8054                   23573476.3244
   6119309.67647   4778896.63645  21989892.6804                   21989889.7384
 -15582171.59048 -12117109.43246  21044120.7194                   21044116.9774
  -2165450.53547  -1667442.75544  22819502.3364                   22819500.4144
 -16246209.65248 -12644576.59746  21142679.2894                   21142677.0634
   5459535.74246   4266540.85143  24564900.3754                   24564901.5634
   5971646.82047   4670952.91344  23567705.2974                   23567705.5594
 11  7 27 18 36  0.0000000  0 10G03G06G13G28G23G19G08G07G10G11
  -1345226.71147  -1032804.27145  22249029.9384                   22249029.7274
   7705525.37146   6014779.74543  24205085.3364                   24205083.5594
 -11307333.46947  -8796049.46146  20505276.1564                   20505273.8914
   5322137.63347   4165168.26444  23556070.8284                   23556069.7974
   6181748.06647   4827549.82445  22001774.8834                   22001771.7034
 -15594552.73847 -12126757.09746  21041764.9774                   21041760.8914
  -2274308.12147  -1752266.82444  22798787.3204                   22798785.5704
 -16329283.12148 -12709309.15946  21126871.2194                   21126868.9104
   5475171.29745   4278724.32043  24567875.8594                   24567874.9344
   5856644.18847   4581340.54944  23545821.3134                   23545820.7234
 11  7 27 18 36 30.0000000  0 10G03G06G13G28G23G19G08G07G10G11
  -1293628.09447   -992597.60745  22258849.6564                   22258848.1054
   7764796.02346   6060964.57643  24216363.9384                   24216363.1764
 -11290161.27747  -8782668.56146  20508543.5314                   20508541.5314
   5230881.10547   4094059.32444  23538705.7734                   23538704.2424
   6244501.49248   4876448.52545  22013716.6884                   22013713.5274
 -15606323.28547 -12135928.95746  21039525.0004                   21039520.9574
  -2383170.22347  -1837094.40345  22778071.9384                   22778070.0664
 -16412192.54348 -12773913.89446  21111094.1024                   21111091.2234
   5491040.95746   4291090.21343  24570895.3444                   24570895.7114
   5741722.62547   4491791.38044  23523952.3594                   23523951.5234
 11  7 27 18 37  0.0000000  0 10G03G06G13G28G23G19G08G07G10G11
  -1241660.46147   -952103.38845  22268738.5944                   22268737.1724
   7824283.60246   6107318.50843  24227684.6724                   24227683.1174
 -11272444.43048  -8768863.25846  20511915.3204                   20511913.2114
   5139833.62547   4023113.26644  23521379.0234                   23521378.5864
   6307561.30147   4925585.93245  22025716.1884                   22025713.2894
 -15617489.98048 -12144630.29046  21037399.7664                   21037396.2504
  -2492041.68447  -1921929.26844  22757354.0234                   22757352.9734
 -16494942.25448 -12838394.17746  21095346.9534                   21095344.8914
   5507136.46546   4303632.08444  24573958.2194                   24573959.2194
   5626879.28147   4402303.17744  23502098.2194                   23502097.2774
 11  7 27 18 37 30.0000000  0  9G03G06G13G28G23G19G08G07G11
  -1189323.41847   -911321.33745  22278698.2274                   22278696.4734
   7883988.66046   6153841.88943  24239045.2584                   24239044.8714
 -11254180.82048  -8754631.92046  20515390.6954                   20515388.6174
   5048998.07047   3952332.36544  23504094.1414                   23504092.7814
   6370928.09848   4974962.57945  22037774.7114                   22037771.6724
 -15628050.56248 -12152859.31946  21035390.3834                   21035386.6214
  -2600918.44547  -2006768.29645  22736635.4534                   22736634.3984
 -16577527.27048 -12902746.12346  21079631.8754                   21079629.4804
   5512120.43047   4312880.75044  23480260.1884                   23480259.5514
 11  7 27 18 38  0.0000000  0  9G03G06G13G28G23G19G08G07G11
  -1136620.12947   -870253.87845  22288726.9844                   22288725.5274
   7943907.96146   6200532.20043  24250447.6954                   24250447.0634
 -11235373.34048  -8739976.77646  20518969.8284                   20518967.3834
   4958373.47347   3881715.82144  23486848.8054                   23486848.3484
   6434598.02747   5024575.43645  22049890.8444                   22049887.7194
 -15638006.87947 -12160617.50046  21033495.7194                   21033491.9534
  -2709800.10947  -2091611.10345  22715915.8754                   22715914.9494
 -16659946.96548 -12966969.25346  21063947.7894                   21063945.0864
   5397447.91446   4223525.64344  23458438.8754                   23458437.9304
 11  7 27 18 38 30.0000000  0  9G03G06G13G28G23G19G08G07G11
  -1083540.63747   -828893.30245  22298827.8674                   22298826.8834
   8004052.22746   6247397.80443  24261893.3834                   24261892.6024
 -11216010.03148  -8724888.50646  20522654.2584                   20522652.4574
   4867972.57047   3811273.61644  23469645.7274                   23469645.1174
   6498581.66847   5074432.71545  22062066.4454                   22062063.3754
 -15647346.59047 -12167895.21646  21031718.0634                   21031714.6094
  -2818672.21147  -2176446.46345  22695198.3834                   22695197.4774
 -16742186.42248 -13031051.93446  21048297.7664                   21048295.5634
   5282878.28547   4134250.66444  23436637.0084                   23436636.1054
 11  7 27 18 39  0.0000000  0  9G03G06G13G28G23G19G08G07G11
  -1030090.22347   -787243.66445  22308999.2584                   22308998.1414
   8064416.35546   6294434.77943  24273379.6954                   24273378.5744
 -11196094.94948  -8709370.28946  20526444.2194                   20526442.2774
   4777792.65647   3741003.60244  23452485.1954                   23452484.7544
   6562873.88348   5124530.44545  22074300.9384                   22074297.8954
 -15656073.16047 -12174695.13046  21030057.8284                   21030053.9414
  -2927536.21147  -2261275.52045  22674481.9454                   22674481.3914
 -16824246.55948 -13094994.88946  21032682.5944                   21032680.1414
   5168412.06347   4045056.33743  23414854.5234                   23414853.6174
 11  7 27 18 39 30.0000000  0  9G03G06G13G28G23G19G08G07G11
   -976269.58247   -745305.54944  22319240.6414                   22319240.1604
   8125000.56346   6341643.15143  24284909.2274                   24284908.0004
 -11175627.41447  -8693421.58746  20530338.9064                   20530337.2854
   4687835.74647   3670907.34044  23435367.5164                   23435366.2664
   6627474.37147   5174868.39145  22086594.4614                   22086591.2194
 -15664185.39847 -12181016.37746  21028514.2034                   21028510.2154
  -3036388.57447  -2346095.52345  22653768.1094                   22653767.0514
 -16906123.16048 -13158794.83146  21017101.9224                   21017099.3674
   5054054.73046   3955946.82143  23393092.1414                   23393092.1134
 11  7 27 18 40  0.0000000  0  9G03G06G13G28G23G19G08G07G11
   -922088.63747   -703086.67645  22329550.8984                   22329550.4344
   8185794.37946   6389014.87244  24296477.2504                   24296477.1174
 -11154617.12548  -8677049.96746  20534337.3674                   20534335.4104
   4598093.82847   3600978.62444  23418289.7344                   23418288.8284
   6692372.49247   5225438.25245  22098943.6724                   22098941.4694
 -15671691.92647 -12186865.63546  21027085.7814                   21027081.5514
  -3145236.09847  -2430911.75045  22633055.2114                   22633054.3324
 -16987822.32848 -13222456.51846  21001554.9774                   21001552.9884
   4939801.15247   3866918.14044  23371350.6254                   23371350.1214
 11  7 27 18 40 30.0000000  0  9G03G06G13G28G23G19G08G07G11
   -867557.12946   -660594.63044  22339927.8134                   22339927.6024
   8246788.62946   6436542.79443  24308084.3444                   24308084.1134
 -11133072.23848  -8660261.77746  20538436.8984                   20538435.2774
   4508559.76647   3531211.86644  23401251.9844                   23401250.6604
   6757558.95347   5276232.81245  22111348.2584                   22111345.7664
 -15678600.67248 -12192249.07446  21025771.2664                   21025766.7814
  -3254083.84447  -2515728.16245  22612342.2114                   22612340.6454
 -17069349.44948 -13285984.14146  20986040.8594                   20986038.6374
   4825647.97747   3777967.70744  23349628.4614                   23349627.7664
 11  7 27 18 41  0.0000000  0  9G03G06G13G28G23G19G08G07G11
   -812676.58246   -617830.62245  22350371.5864                   22350371.3674
   8307982.03946   6484225.94243  24319730.1094                   24319729.7074
 -11110993.16447  -8643057.33746  20542638.6254                   20542636.5984
   4419234.29747   3461607.67044  23384253.9224                   23384252.5984
   6823032.18047   5327250.79445  22123807.7894                   22123805.2774
 -15684911.52747 -12197166.64646  21024570.4064                   21024566.2854
  -3362930.06247  -2600543.37445  22591629.5474                   22591628.2304
 -17150701.24648 -13349375.12646  20970560.2584                   20970558.1414
   4711599.39847   3689098.76344  23327925.3054                   23327925.2234
 11  7 27 18 41 30.0000000  0  9G03G06G13G28G23G19G08G07G11
   -757452.18046   -574798.65644  22360880.3134                   22360880.0124
   8369369.65247   6532060.36244  24331411.7344                   24331411.3834
 -11088383.88748  -8625439.75246  20546941.0314                   20546939.1374
   4330114.76647   3392163.89444  23367294.6884                   23367293.5594
   6888787.00447   5378488.21445  22136320.6024                   22136318.0864
 -15690628.00048 -12201621.04346  21023482.4064                   21023478.3324
  -3471776.10947  -2685358.44345  22570916.4454                   22570915.3834
 -17231878.44948 -13412630.08646  20955112.8674                   20955110.7774
   4597655.80947   3600311.59044  23306242.4844                   23306241.8484
 11  7 27 18 42  0.0000000  0  9G03G06G13G28G23G19G08G07G11
   -701881.97747   -531497.23445  22371455.1094                   22371455.1054
   8430954.27046   6580048.32944  24343129.5474                   24343130.1564
 -11065241.32847  -8607406.62146  20551345.0944                   20551343.1884
   4241205.90647   3322884.32144  23350376.2894                   23350374.9384
   6954825.71147   5429946.83445  22148887.1414                   22148884.8484
 -15695746.27047 -12205609.31746  21022508.4384                   21022504.3244
  -3580615.25847  -2770168.15945  22550204.8054                   22550203.8634
 -17312874.62548 -13475744.00146  20939699.8524                   20939697.1994
   4483825.82047   3511613.00044  23284581.6804                   23284581.2814
 11  7 27 18 42 30.0000000  0  9G03G06G13G28G23G19G08G07G11
   -645972.24647   -487931.25744  22382095.3524                   22382094.4654
   8492730.02346   6628185.24044  24354885.6564                   24354886.3284
 -11041570.69948  -8588962.01946  20555849.3754                   20555847.7664
   4152503.88747   3253765.92244  23333496.9224                   23333496.1484
   7021142.09047   5481621.84745  22161506.6174                   22161504.4224
 -15700270.67248 -12209134.82246  21021647.3444                   21021643.3674
  -3689449.72347  -2854974.21845  22529494.5784                   22529493.2934
 -17393691.00048 -13538717.79246  20924320.9924                   20924318.5084
   4370108.84447   3423002.37544  23262941.6644                   23262941.2934
 11  7 27 18 43  0.0000000  0  9G03G06G13G28G23G19G08G07G11
   -589728.66047   -444105.11245  22392797.5474                   22392797.1884
   8554691.19946   6676466.59844  24366676.3284                   24366676.7464
 -11017376.86347  -8570109.70246  20560453.4454                   20560451.6914
   4064005.11747   3184805.88144  23316655.8134                   23316655.2074
   7087730.27047   5533508.60845  22174178.6724                   22174176.0824
 -15704205.75847 -12212201.13246  21020898.7814                   21020894.9384
  -3798281.73047  -2939778.35845  22508784.7114                   22508783.3714
 -17474329.43448 -13601552.93446  20908975.9384                   20908973.2584
   4256504.82047   3334479.82844  23241323.5864                   23241323.1644
 11  7 27 18 43 30.0000000  0  9G03G06G13G28G23G19G08G07G11
   -533152.55547   -400019.90244  22403564.0944                   22403563.0594
   8616836.81646   6724891.75143  24378501.7664                   24378502.2074
 -10992659.84048  -8550849.73546  20565156.9224                   20565155.0084
   3975710.87947   3116005.23544  23299853.9614                   23299853.0204
   7154588.80547   5585606.06245  22186901.3754                   22186898.7734
 -15707551.36747 -12214808.10346  21020261.7194                   21020258.3244
  -3907108.57847  -3024578.49045  22488075.4774                   22488074.6174
 -17554786.35948 -13664246.64946  20893665.2814                   20893662.9144
   4143018.13347   3246048.68044  23219728.0864                   23219727.6644
 11  7 27 18 44  0.0000000  0  9G03G06G13G28G23G19G08G07G11
   -476246.39847   -355677.49744  22414392.5314                   22414391.8714
   8679164.83246   6773458.88843  24390362.5784                   24390363.4614
 -10967421.32848  -8531183.39446  20569959.7504                   20569957.9574
   3887620.85547   3047363.68344  23283090.9774                   23283089.9574
   7221715.49247   5637912.47145  22199675.4064                   22199672.5314
 -15710308.48448 -12216956.51346  21019737.3134                   21019733.7894
  -4015928.78947  -3109373.43545  22467367.4454                   22467366.9064
 -17635060.04748 -13726797.57446  20878389.8754                   20878387.4414
   4029652.17647   3157711.60444  23198155.1334                   23198153.8874
 11  7 27 18 44 30.0000000  0  9G03G06G13G28G23G19G08G07G11
   -419014.54347   -311081.28944  22425283.1334                   22425282.0084
   8741674.51646   6822167.33243  24402257.7034                   24402257.7854
 -10941663.95748  -8511112.74546  20574861.2584                   20574859.0784
   3799733.77047   2978880.26944  23266366.7194                   23266365.4654
   7289106.21147   5690424.61045  22212499.2424                   22212496.7664
 -15712479.02048 -12218647.84046  21019324.5474                   21019320.7384
  -4124742.05147  -3194162.96545  22446661.3594                   22446660.5474
 -17715149.81648 -13789205.17946  20863149.4064                   20863146.7734
   3916409.37147   3069470.49244  23176605.7664                   23176605.0354
 11  7 27 18 45  0.0000000  0  9G03G06G13G28G23G19G08G07G11
   -361458.11747   -266232.16744  22436236.3284                   22436234.6954
                                  24414186.7274                   24414186.1684
 -10915388.66848  -8490638.54046  20579861.5004                   20579859.2814
   3712050.45747   2910555.64944  23249680.9224                   23249680.0084
   7356760.03147   5743141.75945  22225373.3364                   22225370.8834
 -15714063.28948 -12219882.33646  21019022.6724                   21019019.0434
  -4233545.71947  -3278945.02345  22425956.9384                   22425955.7934
 -17795052.50848 -13851467.03046  20847944.1884                   20847942.2034
   3803293.95747   2981328.63344  23155080.5784                   23155079.7704
 11  7 27 18 45 30.0000000  0  9G03G06G13G28G23G19G08G07G11
   -303582.67647   -221134.45944  22447249.3054                   22447247.7814
   8867216.21146   6919991.85143  24426148.0784                   24426147.7274
 -10888599.69148  -8469764.04446  20584958.8364                   20584957.0824
   3624568.16047   2842387.65744  23233033.9614                   23233032.7734
   7424670.97347   5796059.27745  22238296.7664                   22238294.4844
 -15715065.57048 -12220663.34046  21018832.0314                   21018828.4884
  -4342341.42247  -3363720.84745  22405253.2274                   22405252.3014
 -17874769.01648 -13913583.77646  20832774.8204                   20832772.3984
   3690306.11347   2893286.20344  23133579.5944                   23133578.7974
 11  7 27 18 46  0.0000000  0  9G03G06G13G28G23G19G08G07G11
   -245387.38746   -175787.55344  22458323.8594                   22458322.2584
   8930247.21946   6969106.84143  24438142.3594                   24438142.1564
 -10861295.27748  -8448487.91846  20590154.8524                   20590152.9654
   3537289.62947   2774378.44444  23216425.2974                   23216424.5944
   7492839.95747   5849177.85545  22251268.7734                   22251266.1454
 -15715482.96148 -12220988.58146  21018752.6334                   21018749.0594
  -4451123.91447  -3448486.41445  22384552.5864                   22384551.7114
 -17954293.96948 -13975551.29146  20817641.5784                   20817639.1564
   3577452.67647   2805348.52144  23112104.4304                   23112103.7384
 11  7 27 18 46 30.0000000  0  8G03G13G28G23G19G08G07G11
   -186879.32846   -130196.88844  22469456.7584                   22469456.6994
 -10833481.82448  -8426815.14846  20595447.8674                   20595446.0004
   3450210.50047   2706524.62644  23199854.7344                   23199853.4224
   7561260.05547   5902492.09345  22264288.8674                   22264286.6604
 -15715321.25448 -12220862.57646  21018783.1644                   21018779.9654
  -4559896.38347  -3533244.13145  22363853.4534                   22363852.7234
 -18033629.87948 -14037371.46346  20802544.5864                   20802542.1764
   3464732.62547   2717514.72944  23090654.2274                   23090653.3284
 11  7 27 18 47  0.0000000  0  8G03G13G28G23G19G08G07G11
   -128056.22747    -84360.73244  22480650.5784                   22480650.3014
 -10805156.03148  -8404743.12546  20600838.1024                   20600836.3404
   3363335.27347   2638829.68844  23183322.7344                   23183321.6294
   7629933.64847   5956003.87245  22277357.2584                   22277354.8134
 -15714576.75448 -12220282.45046  21018924.9064                   21018921.6054
  -4668652.50047  -3617989.12345  22343158.3444                   22343157.3834
 -18112769.98848 -14099039.06746  20787484.8284                   20787482.0824
   3352154.43447   2629791.49644  23069230.9534                   23069230.4384
 11  7 27 18 47 30.0000000  0  8G03G13G28G23G19G08G07G11
    -68909.79347    -38272.64844  22491906.7274                   22491905.8094
 -10776308.59448  -8382264.64446  20606327.2584                   20606325.4064
   3276674.47347   2571301.81944  23166831.6174                   23166830.7504
   7698869.00847   6009719.61845  22290474.7194                   22290472.7734
 -15713239.75048 -12219240.63746  21019179.4694                   21019175.6414
  -4777379.42647  -3702711.37545  22322468.0084                   22322467.3914
 -18191700.75448 -14160543.55946  20772464.6254                   20772462.5904
   3239731.77347   2542189.44344  23047838.1484                   23047836.9654
 11  7 27 18 48  0.0000000  0  8G03G13G28G23G19G08G07G11
     -9437.47347      8069.36244  22503223.9304                   22503223.0514
 -10746936.18448  -8359377.08946  20611916.7344                   20611915.1484
   3190233.62147   2503945.34644  23150382.4534                   23150381.6524
   7768068.75447   6063641.37745  22303643.8284                   22303641.5984
 -15711306.28148 -12217734.03946  21019547.2344                   21019543.4024
  -4886071.03547  -3787406.10945  22301784.9454                   22301784.2344
 -18270415.80948 -14221879.96346  20757485.5164                   20757482.9614
   3127473.19147   2454715.28544  23026476.0704                   23026475.1684
 11  7 27 18 48 30.0000000  0  8G03G13G28G23G19G08G07G11
   1625774.41046   1282260.37944  22814394.0554                   22814392.9654
  -9141623.10248  -7108483.80246  20917397.7034                   20917395.7934
   4679433.53947   3664360.91344  23433767.9454                   23433766.6604
   9412946.32447   7345364.02745  22616653.3444                   22616651.2704
 -14133359.31648 -10988164.98146  21319820.6564                   21319816.9024
  -3419303.33247  -2644470.19945  22580901.6414                   22580900.2814
 -16773491.90248 -13055445.73146  21042340.7814                   21042338.3204
   4590804.41047   3594973.45144  23304938.1954                   23304937.6024
 11  7 27 18 49  0.0000000  0  8G03G13G28G23G19G08G07G11
   1685881.87947   1329097.32344  22825832.5164                   22825831.6374
  -9111214.34048  -7084788.70946  20923184.4304                   20923182.7234
   4593422.66847   3597339.45044  23417400.8204                   23417399.3594
   9482658.85547   7399685.35145  22629919.3054                   22629917.1134
 -14130245.26248 -10985738.45646  21320413.0084                   21320409.6134
  -3527927.30547  -2729112.23845  22560231.0234                   22560229.7624
 -16851777.38348 -13116447.39046  21027443.5864                   21027441.3554
   4478875.95747   3507756.47344  23283639.1254                   23283638.6524
 11  7 27 18 49 30.0000000  0  8G03G13G28G23G19G08G07G11
   1746293.08246   1376170.93144  22837327.8914                   22837327.2664
  -9080300.56248  -7060700.09146  20929067.1724                   20929065.0944
   4507616.16047   3530477.26744  23401072.0864                   23401070.5084
   9552613.11347   7454195.02345  22643231.3914                   22643229.4844
 -14126553.34448 -10982861.62146  21321115.8834                   21321112.1994
  -3636525.43747  -2813734.15045  22539565.5314                   22539564.1174
 -16929855.50048 -13177287.46946  21012585.5864                   21012583.3714
   4367107.11347   3420663.97244  23262370.2194                   23262369.3954
 11  7 27 18 50  0.0000000  0  8G03G13G28G23G19G08G07G11
   1807004.07446   1423478.16944  22848880.5394                   22848880.7894
  -9048884.44148  -7036220.03446  20935045.1804                   20935043.4884
   4422012.55547   3463773.20444  23384782.2664                   23384780.8284
   9622805.54347   7508890.29045  22656588.2194                   22656586.6524
 -14122285.68448 -10979536.18146  21321927.8364                   21321924.3714
  -3745097.21147  -2898335.50745  22518905.2114                   22518903.1844
 -17007725.03547 -13237965.01546  20997767.6334                   20997765.3954
   4255500.23447   3333697.57344  23241132.1804                   23241131.1884
